<?xml version="1.0" encoding="UTF-8" standalone="no" ?>
<gpx xmlns="http://www.topografix.com/GPX/1/1" xmlns:xsi="http://www.w3.org/2001/XMLSchema-instance" xsi:schemaLocation="http://www.topografix.com/GPX/1/1 http://www.topografix.com/GPX/1/1/gpx.xsd" version="1.1" creator="VisuGPX - https://www.visugpx.com">
  <metadata>
    <name>Pleneuf val andré Hillion</name>
    <desc><![CDATA[11 éme étape du circuit Mont St Michel St Brieuc]]></desc>
  </metadata>
  <trk>
    <name><![CDATA[2016-07-07-01]]></name>
    <trkseg>
      <trkpt lat="48.58263" lon="-2.55552">
        <ele>35.6</ele>
        <time>2016-07-07T05:44:45Z</time>
      </trkpt>
      <trkpt lat="48.58262" lon="-2.55568">
        <ele>35.5</ele>
        <time>2016-07-07T05:44:46Z</time>
      </trkpt>
      <trkpt lat="48.58255" lon="-2.55559">
        <ele>7.4</ele>
        <time>2016-07-07T05:45:07Z</time>
      </trkpt>
      <trkpt lat="48.58247" lon="-2.55565">
        <ele>7.6</ele>
        <time>2016-07-07T05:51:11Z</time>
      </trkpt>
      <trkpt lat="48.58238" lon="-2.55569">
        <ele>9.1</ele>
        <time>2016-07-07T05:51:26Z</time>
      </trkpt>
      <trkpt lat="48.58231" lon="-2.55581">
        <ele>7.5</ele>
        <time>2016-07-07T05:51:37Z</time>
      </trkpt>
      <trkpt lat="48.58224" lon="-2.55589">
        <ele>8.5</ele>
        <time>2016-07-07T05:51:45Z</time>
      </trkpt>
      <trkpt lat="48.58214" lon="-2.55588">
        <ele>8.7</ele>
        <time>2016-07-07T05:51:53Z</time>
      </trkpt>
      <trkpt lat="48.58205" lon="-2.55588">
        <ele>11</ele>
        <time>2016-07-07T05:52:00Z</time>
      </trkpt>
      <trkpt lat="48.58196" lon="-2.5559">
        <ele>9.2</ele>
        <time>2016-07-07T05:52:09Z</time>
      </trkpt>
      <trkpt lat="48.58187" lon="-2.55592">
        <ele>9.8</ele>
        <time>2016-07-07T05:52:19Z</time>
      </trkpt>
      <trkpt lat="48.58178" lon="-2.55589">
        <ele>10.2</ele>
        <time>2016-07-07T05:52:27Z</time>
      </trkpt>
      <trkpt lat="48.58168" lon="-2.55589">
        <ele>11.3</ele>
        <time>2016-07-07T05:52:36Z</time>
      </trkpt>
      <trkpt lat="48.58159" lon="-2.55591">
        <ele>11.9</ele>
        <time>2016-07-07T05:52:46Z</time>
      </trkpt>
      <trkpt lat="48.5815" lon="-2.5559">
        <ele>12.8</ele>
        <time>2016-07-07T05:52:55Z</time>
      </trkpt>
      <trkpt lat="48.5814" lon="-2.55592">
        <ele>14.5</ele>
        <time>2016-07-07T05:53:08Z</time>
      </trkpt>
      <trkpt lat="48.5813" lon="-2.55593">
        <ele>14.8</ele>
        <time>2016-07-07T05:53:17Z</time>
      </trkpt>
      <trkpt lat="48.58121" lon="-2.55593">
        <ele>15.3</ele>
        <time>2016-07-07T05:53:25Z</time>
      </trkpt>
      <trkpt lat="48.58111" lon="-2.55593">
        <ele>16.6</ele>
        <time>2016-07-07T05:53:38Z</time>
      </trkpt>
      <trkpt lat="48.58101" lon="-2.55593">
        <ele>17.3</ele>
        <time>2016-07-07T05:53:59Z</time>
      </trkpt>
      <trkpt lat="48.58092" lon="-2.55599">
        <ele>17.4</ele>
        <time>2016-07-07T05:54:07Z</time>
      </trkpt>
      <trkpt lat="48.58084" lon="-2.55608">
        <ele>17</ele>
        <time>2016-07-07T05:54:16Z</time>
      </trkpt>
      <trkpt lat="48.58081" lon="-2.55621">
        <ele>16.4</ele>
        <time>2016-07-07T05:54:26Z</time>
      </trkpt>
      <trkpt lat="48.58077" lon="-2.55633">
        <ele>16</ele>
        <time>2016-07-07T05:54:35Z</time>
      </trkpt>
      <trkpt lat="48.58074" lon="-2.55647">
        <ele>15.9</ele>
        <time>2016-07-07T05:55:00Z</time>
      </trkpt>
      <trkpt lat="48.58068" lon="-2.5566">
        <ele>16</ele>
        <time>2016-07-07T05:55:09Z</time>
      </trkpt>
      <trkpt lat="48.58064" lon="-2.55673">
        <ele>15</ele>
        <time>2016-07-07T05:55:22Z</time>
      </trkpt>
      <trkpt lat="48.58059" lon="-2.55685">
        <ele>15.2</ele>
        <time>2016-07-07T05:55:29Z</time>
      </trkpt>
      <trkpt lat="48.58055" lon="-2.55696">
        <ele>14.8</ele>
        <time>2016-07-07T05:55:37Z</time>
      </trkpt>
      <trkpt lat="48.5805" lon="-2.55708">
        <ele>13.8</ele>
        <time>2016-07-07T05:56:11Z</time>
      </trkpt>
      <trkpt lat="48.58045" lon="-2.55721">
        <ele>14.8</ele>
        <time>2016-07-07T05:57:03Z</time>
      </trkpt>
      <trkpt lat="48.5804" lon="-2.55734">
        <ele>13.9</ele>
        <time>2016-07-07T05:57:13Z</time>
      </trkpt>
      <trkpt lat="48.58035" lon="-2.55746">
        <ele>14.3</ele>
        <time>2016-07-07T05:57:22Z</time>
      </trkpt>
      <trkpt lat="48.58029" lon="-2.55757">
        <ele>13.3</ele>
        <time>2016-07-07T05:57:31Z</time>
      </trkpt>
      <trkpt lat="48.58025" lon="-2.55771">
        <ele>13</ele>
        <time>2016-07-07T05:57:39Z</time>
      </trkpt>
      <trkpt lat="48.58019" lon="-2.55782">
        <ele>12.6</ele>
        <time>2016-07-07T05:57:50Z</time>
      </trkpt>
      <trkpt lat="48.58012" lon="-2.55791">
        <ele>12.1</ele>
        <time>2016-07-07T05:57:59Z</time>
      </trkpt>
      <trkpt lat="48.58008" lon="-2.55805">
        <ele>12.1</ele>
        <time>2016-07-07T05:58:07Z</time>
      </trkpt>
      <trkpt lat="48.58004" lon="-2.55818">
        <ele>11.9</ele>
        <time>2016-07-07T05:58:16Z</time>
      </trkpt>
      <trkpt lat="48.58" lon="-2.55832">
        <ele>10.8</ele>
        <time>2016-07-07T05:58:25Z</time>
      </trkpt>
      <trkpt lat="48.57997" lon="-2.55845">
        <ele>10.7</ele>
        <time>2016-07-07T05:58:33Z</time>
      </trkpt>
      <trkpt lat="48.57994" lon="-2.55858">
        <ele>10.8</ele>
        <time>2016-07-07T05:58:41Z</time>
      </trkpt>
      <trkpt lat="48.57991" lon="-2.55872">
        <ele>10</ele>
        <time>2016-07-07T05:58:50Z</time>
      </trkpt>
      <trkpt lat="48.57987" lon="-2.55885">
        <ele>10</ele>
        <time>2016-07-07T05:58:58Z</time>
      </trkpt>
      <trkpt lat="48.57985" lon="-2.55899">
        <ele>9.4</ele>
        <time>2016-07-07T05:59:06Z</time>
      </trkpt>
      <trkpt lat="48.57983" lon="-2.55913">
        <ele>9.6</ele>
        <time>2016-07-07T05:59:14Z</time>
      </trkpt>
      <trkpt lat="48.57983" lon="-2.55928">
        <ele>9.3</ele>
        <time>2016-07-07T05:59:23Z</time>
      </trkpt>
      <trkpt lat="48.57984" lon="-2.55942">
        <ele>8.5</ele>
        <time>2016-07-07T05:59:35Z</time>
      </trkpt>
      <trkpt lat="48.57986" lon="-2.55956">
        <ele>8.2</ele>
        <time>2016-07-07T05:59:52Z</time>
      </trkpt>
      <trkpt lat="48.57987" lon="-2.5597">
        <ele>8</ele>
        <time>2016-07-07T06:00:00Z</time>
      </trkpt>
      <trkpt lat="48.57988" lon="-2.55984">
        <ele>8</ele>
        <time>2016-07-07T06:00:09Z</time>
      </trkpt>
      <trkpt lat="48.57989" lon="-2.55999">
        <ele>7.4</ele>
        <time>2016-07-07T06:00:19Z</time>
      </trkpt>
      <trkpt lat="48.57988" lon="-2.56013">
        <ele>7.3</ele>
        <time>2016-07-07T06:00:31Z</time>
      </trkpt>
      <trkpt lat="48.57986" lon="-2.56027">
        <ele>6.9</ele>
        <time>2016-07-07T06:00:43Z</time>
      </trkpt>
      <trkpt lat="48.57987" lon="-2.5604">
        <ele>6.7</ele>
        <time>2016-07-07T06:00:59Z</time>
      </trkpt>
      <trkpt lat="48.57987" lon="-2.56055">
        <ele>6</ele>
        <time>2016-07-07T06:01:13Z</time>
      </trkpt>
      <trkpt lat="48.57987" lon="-2.56069">
        <ele>6.2</ele>
        <time>2016-07-07T06:01:25Z</time>
      </trkpt>
      <trkpt lat="48.57986" lon="-2.56084">
        <ele>6.5</ele>
        <time>2016-07-07T06:01:33Z</time>
      </trkpt>
      <trkpt lat="48.57985" lon="-2.56098">
        <ele>6.4</ele>
        <time>2016-07-07T06:01:42Z</time>
      </trkpt>
      <trkpt lat="48.57985" lon="-2.56113">
        <ele>5.8</ele>
        <time>2016-07-07T06:01:53Z</time>
      </trkpt>
      <trkpt lat="48.57985" lon="-2.56127">
        <ele>5.8</ele>
        <time>2016-07-07T06:02:01Z</time>
      </trkpt>
      <trkpt lat="48.57984" lon="-2.5614">
        <ele>6.1</ele>
        <time>2016-07-07T06:02:12Z</time>
      </trkpt>
      <trkpt lat="48.57984" lon="-2.56155">
        <ele>5.7</ele>
        <time>2016-07-07T06:02:21Z</time>
      </trkpt>
      <trkpt lat="48.57982" lon="-2.5617">
        <ele>5.9</ele>
        <time>2016-07-07T06:02:46Z</time>
      </trkpt>
      <trkpt lat="48.5798" lon="-2.56184">
        <ele>5.7</ele>
        <time>2016-07-07T06:02:58Z</time>
      </trkpt>
      <trkpt lat="48.57978" lon="-2.56198">
        <ele>5.4</ele>
        <time>2016-07-07T06:03:07Z</time>
      </trkpt>
      <trkpt lat="48.57974" lon="-2.56211">
        <ele>5.5</ele>
        <time>2016-07-07T06:03:16Z</time>
      </trkpt>
      <trkpt lat="48.57969" lon="-2.56224">
        <ele>5.6</ele>
        <time>2016-07-07T06:03:25Z</time>
      </trkpt>
      <trkpt lat="48.57965" lon="-2.56237">
        <ele>5.3</ele>
        <time>2016-07-07T06:03:51Z</time>
      </trkpt>
      <trkpt lat="48.57961" lon="-2.56251">
        <ele>5.4</ele>
        <time>2016-07-07T06:03:59Z</time>
      </trkpt>
      <trkpt lat="48.57954" lon="-2.56261">
        <ele>5.5</ele>
        <time>2016-07-07T06:04:07Z</time>
      </trkpt>
      <trkpt lat="48.57947" lon="-2.56272">
        <ele>5.7</ele>
        <time>2016-07-07T06:04:15Z</time>
      </trkpt>
      <trkpt lat="48.57939" lon="-2.5628">
        <ele>6.1</ele>
        <time>2016-07-07T06:04:23Z</time>
      </trkpt>
      <trkpt lat="48.5793" lon="-2.56285">
        <ele>5.7</ele>
        <time>2016-07-07T06:04:31Z</time>
      </trkpt>
      <trkpt lat="48.5792" lon="-2.56288">
        <ele>5.5</ele>
        <time>2016-07-07T06:04:40Z</time>
      </trkpt>
      <trkpt lat="48.57911" lon="-2.56286">
        <ele>5.8</ele>
        <time>2016-07-07T06:04:51Z</time>
      </trkpt>
      <trkpt lat="48.57902" lon="-2.56284">
        <ele>6.2</ele>
        <time>2016-07-07T06:05:00Z</time>
      </trkpt>
      <trkpt lat="48.57892" lon="-2.56284">
        <ele>5.9</ele>
        <time>2016-07-07T06:05:08Z</time>
      </trkpt>
      <trkpt lat="48.57886" lon="-2.56295">
        <ele>6</ele>
        <time>2016-07-07T06:05:17Z</time>
      </trkpt>
      <trkpt lat="48.57877" lon="-2.56298">
        <ele>5.9</ele>
        <time>2016-07-07T06:05:34Z</time>
      </trkpt>
      <trkpt lat="48.57868" lon="-2.56299">
        <ele>5.4</ele>
        <time>2016-07-07T06:05:47Z</time>
      </trkpt>
      <trkpt lat="48.57859" lon="-2.56304">
        <ele>6.1</ele>
        <time>2016-07-07T06:05:58Z</time>
      </trkpt>
      <trkpt lat="48.57851" lon="-2.56311">
        <ele>6</ele>
        <time>2016-07-07T06:06:05Z</time>
      </trkpt>
      <trkpt lat="48.57843" lon="-2.56319">
        <ele>6.2</ele>
        <time>2016-07-07T06:06:14Z</time>
      </trkpt>
      <trkpt lat="48.57834" lon="-2.56325">
        <ele>5.8</ele>
        <time>2016-07-07T06:06:22Z</time>
      </trkpt>
      <trkpt lat="48.57826" lon="-2.56332">
        <ele>5.3</ele>
        <time>2016-07-07T06:06:29Z</time>
      </trkpt>
      <trkpt lat="48.57817" lon="-2.5634">
        <ele>5.6</ele>
        <time>2016-07-07T06:06:37Z</time>
      </trkpt>
      <trkpt lat="48.5781" lon="-2.5635">
        <ele>5.6</ele>
        <time>2016-07-07T06:06:45Z</time>
      </trkpt>
      <trkpt lat="48.57803" lon="-2.5636">
        <ele>6.3</ele>
        <time>2016-07-07T06:06:53Z</time>
      </trkpt>
      <trkpt lat="48.57796" lon="-2.5637">
        <ele>6.1</ele>
        <time>2016-07-07T06:07:01Z</time>
      </trkpt>
      <trkpt lat="48.57789" lon="-2.5638">
        <ele>6.1</ele>
        <time>2016-07-07T06:07:09Z</time>
      </trkpt>
      <trkpt lat="48.57782" lon="-2.5639">
        <ele>6.2</ele>
        <time>2016-07-07T06:07:18Z</time>
      </trkpt>
      <trkpt lat="48.57777" lon="-2.56403">
        <ele>7.3</ele>
        <time>2016-07-07T06:07:44Z</time>
      </trkpt>
      <trkpt lat="48.57772" lon="-2.56414">
        <ele>6.8</ele>
        <time>2016-07-07T06:07:52Z</time>
      </trkpt>
      <trkpt lat="48.57765" lon="-2.56425">
        <ele>6.7</ele>
        <time>2016-07-07T06:08:02Z</time>
      </trkpt>
      <trkpt lat="48.57756" lon="-2.56432">
        <ele>6.6</ele>
        <time>2016-07-07T06:08:10Z</time>
      </trkpt>
      <trkpt lat="48.57747" lon="-2.56431">
        <ele>6.6</ele>
        <time>2016-07-07T06:08:20Z</time>
      </trkpt>
      <trkpt lat="48.57737" lon="-2.56427">
        <ele>6.5</ele>
        <time>2016-07-07T06:08:29Z</time>
      </trkpt>
      <trkpt lat="48.57729" lon="-2.56422">
        <ele>6.2</ele>
        <time>2016-07-07T06:08:36Z</time>
      </trkpt>
      <trkpt lat="48.57719" lon="-2.56417">
        <ele>6.6</ele>
        <time>2016-07-07T06:08:43Z</time>
      </trkpt>
      <trkpt lat="48.57711" lon="-2.56411">
        <ele>6.6</ele>
        <time>2016-07-07T06:08:51Z</time>
      </trkpt>
      <trkpt lat="48.57702" lon="-2.56404">
        <ele>6.8</ele>
        <time>2016-07-07T06:09:00Z</time>
      </trkpt>
      <trkpt lat="48.57693" lon="-2.56399">
        <ele>6.7</ele>
        <time>2016-07-07T06:09:09Z</time>
      </trkpt>
      <trkpt lat="48.57683" lon="-2.56399">
        <ele>6.4</ele>
        <time>2016-07-07T06:09:23Z</time>
      </trkpt>
      <trkpt lat="48.57673" lon="-2.56393">
        <ele>6.9</ele>
        <time>2016-07-07T06:09:31Z</time>
      </trkpt>
      <trkpt lat="48.57663" lon="-2.56389">
        <ele>6.7</ele>
        <time>2016-07-07T06:09:41Z</time>
      </trkpt>
      <trkpt lat="48.57654" lon="-2.56384">
        <ele>6.6</ele>
        <time>2016-07-07T06:09:48Z</time>
      </trkpt>
      <trkpt lat="48.57646" lon="-2.5638">
        <ele>6.8</ele>
        <time>2016-07-07T06:09:55Z</time>
      </trkpt>
      <trkpt lat="48.57636" lon="-2.56374">
        <ele>6.8</ele>
        <time>2016-07-07T06:10:03Z</time>
      </trkpt>
      <trkpt lat="48.57627" lon="-2.5637">
        <ele>7.2</ele>
        <time>2016-07-07T06:10:11Z</time>
      </trkpt>
      <trkpt lat="48.57617" lon="-2.5637">
        <ele>7.1</ele>
        <time>2016-07-07T06:10:29Z</time>
      </trkpt>
      <trkpt lat="48.57608" lon="-2.56372">
        <ele>7</ele>
        <time>2016-07-07T06:10:38Z</time>
      </trkpt>
      <trkpt lat="48.57604" lon="-2.56386">
        <ele>6.3</ele>
        <time>2016-07-07T06:10:48Z</time>
      </trkpt>
      <trkpt lat="48.57599" lon="-2.56399">
        <ele>4.2</ele>
        <time>2016-07-07T06:11:02Z</time>
      </trkpt>
      <trkpt lat="48.57596" lon="-2.56413">
        <ele>10.3</ele>
        <time>2016-07-07T06:11:22Z</time>
      </trkpt>
      <trkpt lat="48.57593" lon="-2.56426">
        <ele>9.5</ele>
        <time>2016-07-07T06:11:31Z</time>
      </trkpt>
      <trkpt lat="48.5759" lon="-2.56439">
        <ele>7.5</ele>
        <time>2016-07-07T06:11:40Z</time>
      </trkpt>
      <trkpt lat="48.57588" lon="-2.56454">
        <ele>6.9</ele>
        <time>2016-07-07T06:11:48Z</time>
      </trkpt>
      <trkpt lat="48.57585" lon="-2.56467">
        <ele>6.2</ele>
        <time>2016-07-07T06:11:57Z</time>
      </trkpt>
      <trkpt lat="48.57582" lon="-2.5648">
        <ele>6.5</ele>
        <time>2016-07-07T06:12:05Z</time>
      </trkpt>
      <trkpt lat="48.57578" lon="-2.56494">
        <ele>6.7</ele>
        <time>2016-07-07T06:12:12Z</time>
      </trkpt>
      <trkpt lat="48.57575" lon="-2.56508">
        <ele>6.3</ele>
        <time>2016-07-07T06:12:20Z</time>
      </trkpt>
      <trkpt lat="48.57573" lon="-2.56522">
        <ele>6.5</ele>
        <time>2016-07-07T06:12:29Z</time>
      </trkpt>
      <trkpt lat="48.57569" lon="-2.56535">
        <ele>6.4</ele>
        <time>2016-07-07T06:12:37Z</time>
      </trkpt>
      <trkpt lat="48.57566" lon="-2.56548">
        <ele>6.6</ele>
        <time>2016-07-07T06:12:44Z</time>
      </trkpt>
      <trkpt lat="48.57564" lon="-2.56561">
        <ele>6.3</ele>
        <time>2016-07-07T06:12:52Z</time>
      </trkpt>
      <trkpt lat="48.57561" lon="-2.56576">
        <ele>5.7</ele>
        <time>2016-07-07T06:13:01Z</time>
      </trkpt>
      <trkpt lat="48.57558" lon="-2.56589">
        <ele>6</ele>
        <time>2016-07-07T06:13:09Z</time>
      </trkpt>
      <trkpt lat="48.57554" lon="-2.56603">
        <ele>5.6</ele>
        <time>2016-07-07T06:13:30Z</time>
      </trkpt>
      <trkpt lat="48.57555" lon="-2.56617">
        <ele>5.7</ele>
        <time>2016-07-07T06:13:38Z</time>
      </trkpt>
      <trkpt lat="48.57558" lon="-2.56631">
        <ele>4.8</ele>
        <time>2016-07-07T06:13:46Z</time>
      </trkpt>
      <trkpt lat="48.57561" lon="-2.56645">
        <ele>4.6</ele>
        <time>2016-07-07T06:13:54Z</time>
      </trkpt>
      <trkpt lat="48.57564" lon="-2.56659">
        <ele>4.9</ele>
        <time>2016-07-07T06:14:02Z</time>
      </trkpt>
      <trkpt lat="48.57566" lon="-2.56672">
        <ele>4.5</ele>
        <time>2016-07-07T06:14:50Z</time>
      </trkpt>
      <trkpt lat="48.57576" lon="-2.56675">
        <ele>4.1</ele>
        <time>2016-07-07T06:14:58Z</time>
      </trkpt>
      <trkpt lat="48.57585" lon="-2.56675">
        <ele>4</ele>
        <time>2016-07-07T06:15:06Z</time>
      </trkpt>
      <trkpt lat="48.57595" lon="-2.56674">
        <ele>4.2</ele>
        <time>2016-07-07T06:15:14Z</time>
      </trkpt>
      <trkpt lat="48.57604" lon="-2.56673">
        <ele>4.3</ele>
        <time>2016-07-07T06:15:22Z</time>
      </trkpt>
      <trkpt lat="48.57613" lon="-2.56671">
        <ele>4.6</ele>
        <time>2016-07-07T06:15:30Z</time>
      </trkpt>
      <trkpt lat="48.57622" lon="-2.56666">
        <ele>4.3</ele>
        <time>2016-07-07T06:15:37Z</time>
      </trkpt>
      <trkpt lat="48.57632" lon="-2.56661">
        <ele>4.2</ele>
        <time>2016-07-07T06:15:45Z</time>
      </trkpt>
      <trkpt lat="48.57641" lon="-2.56655">
        <ele>5</ele>
        <time>2016-07-07T06:15:53Z</time>
      </trkpt>
      <trkpt lat="48.5765" lon="-2.56652">
        <ele>4.6</ele>
        <time>2016-07-07T06:16:02Z</time>
      </trkpt>
      <trkpt lat="48.57659" lon="-2.56655">
        <ele>4.9</ele>
        <time>2016-07-07T06:16:13Z</time>
      </trkpt>
      <trkpt lat="48.5767" lon="-2.56659">
        <ele>5.4</ele>
        <time>2016-07-07T06:16:26Z</time>
      </trkpt>
      <trkpt lat="48.57679" lon="-2.56663">
        <ele>6.5</ele>
        <time>2016-07-07T06:16:35Z</time>
      </trkpt>
      <trkpt lat="48.57685" lon="-2.56673">
        <ele>6.6</ele>
        <time>2016-07-07T06:16:43Z</time>
      </trkpt>
      <trkpt lat="48.57689" lon="-2.56685">
        <ele>8.2</ele>
        <time>2016-07-07T06:16:59Z</time>
      </trkpt>
      <trkpt lat="48.57682" lon="-2.56695">
        <ele>8.7</ele>
        <time>2016-07-07T06:17:12Z</time>
      </trkpt>
      <trkpt lat="48.57672" lon="-2.567">
        <ele>9.6</ele>
        <time>2016-07-07T06:17:25Z</time>
      </trkpt>
      <trkpt lat="48.57665" lon="-2.56708">
        <ele>9.9</ele>
        <time>2016-07-07T06:17:35Z</time>
      </trkpt>
      <trkpt lat="48.57658" lon="-2.56718">
        <ele>10.6</ele>
        <time>2016-07-07T06:17:44Z</time>
      </trkpt>
      <trkpt lat="48.57651" lon="-2.5673">
        <ele>11.3</ele>
        <time>2016-07-07T06:17:50Z</time>
      </trkpt>
      <trkpt lat="48.57649" lon="-2.56744">
        <ele>12.2</ele>
        <time>2016-07-07T06:18:03Z</time>
      </trkpt>
      <trkpt lat="48.57645" lon="-2.56757">
        <ele>12.8</ele>
        <time>2016-07-07T06:18:11Z</time>
      </trkpt>
      <trkpt lat="48.5764" lon="-2.56768">
        <ele>13.7</ele>
        <time>2016-07-07T06:18:20Z</time>
      </trkpt>
      <trkpt lat="48.57644" lon="-2.56781">
        <ele>16.4</ele>
        <time>2016-07-07T06:18:51Z</time>
      </trkpt>
      <trkpt lat="48.57652" lon="-2.56787">
        <ele>17.4</ele>
        <time>2016-07-07T06:19:00Z</time>
      </trkpt>
      <trkpt lat="48.5766" lon="-2.56793">
        <ele>18.1</ele>
        <time>2016-07-07T06:19:08Z</time>
      </trkpt>
      <trkpt lat="48.57666" lon="-2.56804">
        <ele>19.3</ele>
        <time>2016-07-07T06:19:18Z</time>
      </trkpt>
      <trkpt lat="48.57672" lon="-2.56815">
        <ele>19.6</ele>
        <time>2016-07-07T06:19:28Z</time>
      </trkpt>
      <trkpt lat="48.57679" lon="-2.56825">
        <ele>20.9</ele>
        <time>2016-07-07T06:19:38Z</time>
      </trkpt>
      <trkpt lat="48.57686" lon="-2.56835">
        <ele>21.1</ele>
        <time>2016-07-07T06:19:48Z</time>
      </trkpt>
      <trkpt lat="48.57694" lon="-2.56841">
        <ele>22.6</ele>
        <time>2016-07-07T06:20:16Z</time>
      </trkpt>
      <trkpt lat="48.57702" lon="-2.56835">
        <ele>22.4</ele>
        <time>2016-07-07T06:20:25Z</time>
      </trkpt>
      <trkpt lat="48.5771" lon="-2.56828">
        <ele>21.7</ele>
        <time>2016-07-07T06:20:34Z</time>
      </trkpt>
      <trkpt lat="48.57719" lon="-2.56821">
        <ele>21.4</ele>
        <time>2016-07-07T06:20:44Z</time>
      </trkpt>
      <trkpt lat="48.57725" lon="-2.56811">
        <ele>20.7</ele>
        <time>2016-07-07T06:20:58Z</time>
      </trkpt>
      <trkpt lat="48.57733" lon="-2.56817">
        <ele>21</ele>
        <time>2016-07-07T06:21:08Z</time>
      </trkpt>
      <trkpt lat="48.57742" lon="-2.56814">
        <ele>21.7</ele>
        <time>2016-07-07T06:21:20Z</time>
      </trkpt>
      <trkpt lat="48.57752" lon="-2.56816">
        <ele>20.7</ele>
        <time>2016-07-07T06:21:28Z</time>
      </trkpt>
      <trkpt lat="48.57759" lon="-2.56826">
        <ele>20.6</ele>
        <time>2016-07-07T06:21:35Z</time>
      </trkpt>
      <trkpt lat="48.57765" lon="-2.56837">
        <ele>20.4</ele>
        <time>2016-07-07T06:21:48Z</time>
      </trkpt>
      <trkpt lat="48.57769" lon="-2.5685">
        <ele>20.4</ele>
        <time>2016-07-07T06:21:56Z</time>
      </trkpt>
      <trkpt lat="48.57774" lon="-2.56863">
        <ele>19.9</ele>
        <time>2016-07-07T06:22:04Z</time>
      </trkpt>
      <trkpt lat="48.57773" lon="-2.56878">
        <ele>19.8</ele>
        <time>2016-07-07T06:22:11Z</time>
      </trkpt>
      <trkpt lat="48.5777" lon="-2.56891">
        <ele>20.6</ele>
        <time>2016-07-07T06:22:19Z</time>
      </trkpt>
      <trkpt lat="48.57767" lon="-2.56904">
        <ele>20.9</ele>
        <time>2016-07-07T06:22:29Z</time>
      </trkpt>
      <trkpt lat="48.57767" lon="-2.56918">
        <ele>21.3</ele>
        <time>2016-07-07T06:23:29Z</time>
      </trkpt>
      <trkpt lat="48.57765" lon="-2.56933">
        <ele>21.8</ele>
        <time>2016-07-07T06:23:37Z</time>
      </trkpt>
      <trkpt lat="48.57761" lon="-2.56946">
        <ele>22.2</ele>
        <time>2016-07-07T06:23:44Z</time>
      </trkpt>
      <trkpt lat="48.57757" lon="-2.56958">
        <ele>22.5</ele>
        <time>2016-07-07T06:23:52Z</time>
      </trkpt>
      <trkpt lat="48.57754" lon="-2.56971">
        <ele>22.8</ele>
        <time>2016-07-07T06:24:00Z</time>
      </trkpt>
      <trkpt lat="48.5775" lon="-2.56984">
        <ele>22.6</ele>
        <time>2016-07-07T06:24:10Z</time>
      </trkpt>
      <trkpt lat="48.57754" lon="-2.56998">
        <ele>21.2</ele>
        <time>2016-07-07T06:24:39Z</time>
      </trkpt>
      <trkpt lat="48.57757" lon="-2.57012">
        <ele>21.3</ele>
        <time>2016-07-07T06:24:48Z</time>
      </trkpt>
      <trkpt lat="48.57762" lon="-2.57023">
        <ele>19.7</ele>
        <time>2016-07-07T06:25:01Z</time>
      </trkpt>
      <trkpt lat="48.57768" lon="-2.57034">
        <ele>19.3</ele>
        <time>2016-07-07T06:25:10Z</time>
      </trkpt>
      <trkpt lat="48.57774" lon="-2.57045">
        <ele>20.7</ele>
        <time>2016-07-07T06:25:20Z</time>
      </trkpt>
      <trkpt lat="48.57782" lon="-2.57054">
        <ele>21.7</ele>
        <time>2016-07-07T06:25:30Z</time>
      </trkpt>
      <trkpt lat="48.57789" lon="-2.57064">
        <ele>22</ele>
        <time>2016-07-07T06:25:40Z</time>
      </trkpt>
      <trkpt lat="48.57799" lon="-2.57066">
        <ele>22</ele>
        <time>2016-07-07T06:25:51Z</time>
      </trkpt>
      <trkpt lat="48.57807" lon="-2.57058">
        <ele>17.6</ele>
        <time>2016-07-07T06:26:14Z</time>
      </trkpt>
      <trkpt lat="48.57815" lon="-2.5705">
        <ele>17</ele>
        <time>2016-07-07T06:26:21Z</time>
      </trkpt>
      <trkpt lat="48.57823" lon="-2.57057">
        <ele>16.8</ele>
        <time>2016-07-07T06:26:33Z</time>
      </trkpt>
      <trkpt lat="48.5782" lon="-2.57073">
        <ele>18.3</ele>
        <time>2016-07-07T06:26:50Z</time>
      </trkpt>
      <trkpt lat="48.5782" lon="-2.57087">
        <ele>19.8</ele>
        <time>2016-07-07T06:26:58Z</time>
      </trkpt>
      <trkpt lat="48.57824" lon="-2.57099">
        <ele>21.4</ele>
        <time>2016-07-07T06:27:09Z</time>
      </trkpt>
      <trkpt lat="48.57832" lon="-2.57105">
        <ele>21.2</ele>
        <time>2016-07-07T06:27:24Z</time>
      </trkpt>
      <trkpt lat="48.57842" lon="-2.57106">
        <ele>19.6</ele>
        <time>2016-07-07T06:27:34Z</time>
      </trkpt>
      <trkpt lat="48.57851" lon="-2.57108">
        <ele>17.9</ele>
        <time>2016-07-07T06:27:47Z</time>
      </trkpt>
      <trkpt lat="48.57857" lon="-2.5712">
        <ele>17.1</ele>
        <time>2016-07-07T06:27:55Z</time>
      </trkpt>
      <trkpt lat="48.57865" lon="-2.57128">
        <ele>16.3</ele>
        <time>2016-07-07T06:28:05Z</time>
      </trkpt>
      <trkpt lat="48.57873" lon="-2.57136">
        <ele>15.1</ele>
        <time>2016-07-07T06:28:14Z</time>
      </trkpt>
      <trkpt lat="48.57874" lon="-2.5715">
        <ele>15.3</ele>
        <time>2016-07-07T06:28:27Z</time>
      </trkpt>
      <trkpt lat="48.57869" lon="-2.57162">
        <ele>14.9</ele>
        <time>2016-07-07T06:28:35Z</time>
      </trkpt>
      <trkpt lat="48.57862" lon="-2.57174">
        <ele>16.9</ele>
        <time>2016-07-07T06:29:01Z</time>
      </trkpt>
      <trkpt lat="48.57853" lon="-2.57173">
        <ele>18.5</ele>
        <time>2016-07-07T06:29:15Z</time>
      </trkpt>
      <trkpt lat="48.57844" lon="-2.57177">
        <ele>20.1</ele>
        <time>2016-07-07T06:29:41Z</time>
      </trkpt>
      <trkpt lat="48.57835" lon="-2.57178">
        <ele>19.9</ele>
        <time>2016-07-07T06:29:53Z</time>
      </trkpt>
      <trkpt lat="48.57826" lon="-2.57185">
        <ele>19.9</ele>
        <time>2016-07-07T06:30:01Z</time>
      </trkpt>
      <trkpt lat="48.57819" lon="-2.57193">
        <ele>21.6</ele>
        <time>2016-07-07T06:30:10Z</time>
      </trkpt>
      <trkpt lat="48.57812" lon="-2.57203">
        <ele>22</ele>
        <time>2016-07-07T06:30:20Z</time>
      </trkpt>
      <trkpt lat="48.57804" lon="-2.57208">
        <ele>22.7</ele>
        <time>2016-07-07T06:30:30Z</time>
      </trkpt>
      <trkpt lat="48.57798" lon="-2.5722">
        <ele>23.2</ele>
        <time>2016-07-07T06:30:38Z</time>
      </trkpt>
      <trkpt lat="48.57794" lon="-2.57232">
        <ele>23.1</ele>
        <time>2016-07-07T06:30:48Z</time>
      </trkpt>
      <trkpt lat="48.57789" lon="-2.57245">
        <ele>23.1</ele>
        <time>2016-07-07T06:30:58Z</time>
      </trkpt>
      <trkpt lat="48.57783" lon="-2.57255">
        <ele>22.9</ele>
        <time>2016-07-07T06:31:06Z</time>
      </trkpt>
      <trkpt lat="48.57778" lon="-2.57267">
        <ele>22.9</ele>
        <time>2016-07-07T06:31:15Z</time>
      </trkpt>
      <trkpt lat="48.57774" lon="-2.5728">
        <ele>22.4</ele>
        <time>2016-07-07T06:31:23Z</time>
      </trkpt>
      <trkpt lat="48.57769" lon="-2.57291">
        <ele>21.6</ele>
        <time>2016-07-07T06:31:32Z</time>
      </trkpt>
      <trkpt lat="48.57762" lon="-2.57302">
        <ele>21.4</ele>
        <time>2016-07-07T06:31:41Z</time>
      </trkpt>
      <trkpt lat="48.57754" lon="-2.5731">
        <ele>20.5</ele>
        <time>2016-07-07T06:31:50Z</time>
      </trkpt>
      <trkpt lat="48.57745" lon="-2.57307">
        <ele>20.5</ele>
        <time>2016-07-07T06:31:59Z</time>
      </trkpt>
      <trkpt lat="48.57738" lon="-2.57297">
        <ele>22.1</ele>
        <time>2016-07-07T06:32:13Z</time>
      </trkpt>
      <trkpt lat="48.57734" lon="-2.57284">
        <ele>25</ele>
        <time>2016-07-07T06:32:34Z</time>
      </trkpt>
      <trkpt lat="48.57724" lon="-2.57284">
        <ele>24.4</ele>
        <time>2016-07-07T06:33:25Z</time>
      </trkpt>
      <trkpt lat="48.57715" lon="-2.57286">
        <ele>22.7</ele>
        <time>2016-07-07T06:33:36Z</time>
      </trkpt>
      <trkpt lat="48.57707" lon="-2.57293">
        <ele>21.3</ele>
        <time>2016-07-07T06:33:50Z</time>
      </trkpt>
      <trkpt lat="48.577" lon="-2.57302">
        <ele>20</ele>
        <time>2016-07-07T06:34:04Z</time>
      </trkpt>
      <trkpt lat="48.57691" lon="-2.57307">
        <ele>19.8</ele>
        <time>2016-07-07T06:34:12Z</time>
      </trkpt>
      <trkpt lat="48.57683" lon="-2.57313">
        <ele>19.4</ele>
        <time>2016-07-07T06:34:20Z</time>
      </trkpt>
      <trkpt lat="48.57674" lon="-2.57319">
        <ele>19.1</ele>
        <time>2016-07-07T06:34:29Z</time>
      </trkpt>
      <trkpt lat="48.57665" lon="-2.57324">
        <ele>19.5</ele>
        <time>2016-07-07T06:34:37Z</time>
      </trkpt>
      <trkpt lat="48.57655" lon="-2.57328">
        <ele>19.9</ele>
        <time>2016-07-07T06:34:46Z</time>
      </trkpt>
      <trkpt lat="48.57646" lon="-2.57332">
        <ele>20.2</ele>
        <time>2016-07-07T06:34:54Z</time>
      </trkpt>
      <trkpt lat="48.57636" lon="-2.57335">
        <ele>21.3</ele>
        <time>2016-07-07T06:35:03Z</time>
      </trkpt>
      <trkpt lat="48.57628" lon="-2.57338">
        <ele>22.1</ele>
        <time>2016-07-07T06:35:12Z</time>
      </trkpt>
      <trkpt lat="48.57619" lon="-2.57341">
        <ele>23.1</ele>
        <time>2016-07-07T06:35:20Z</time>
      </trkpt>
      <trkpt lat="48.57609" lon="-2.57345">
        <ele>23.8</ele>
        <time>2016-07-07T06:35:30Z</time>
      </trkpt>
      <trkpt lat="48.576" lon="-2.57349">
        <ele>25.1</ele>
        <time>2016-07-07T06:35:41Z</time>
      </trkpt>
      <trkpt lat="48.57592" lon="-2.57354">
        <ele>26.5</ele>
        <time>2016-07-07T06:35:50Z</time>
      </trkpt>
      <trkpt lat="48.57584" lon="-2.57363">
        <ele>26.9</ele>
        <time>2016-07-07T06:36:36Z</time>
      </trkpt>
      <trkpt lat="48.57576" lon="-2.57371">
        <ele>27.2</ele>
        <time>2016-07-07T06:36:45Z</time>
      </trkpt>
      <trkpt lat="48.57568" lon="-2.5738">
        <ele>27</ele>
        <time>2016-07-07T06:36:55Z</time>
      </trkpt>
      <trkpt lat="48.5756" lon="-2.57389">
        <ele>26.7</ele>
        <time>2016-07-07T06:37:04Z</time>
      </trkpt>
      <trkpt lat="48.57551" lon="-2.57394">
        <ele>24.7</ele>
        <time>2016-07-07T06:37:16Z</time>
      </trkpt>
      <trkpt lat="48.57544" lon="-2.57403">
        <ele>22.8</ele>
        <time>2016-07-07T06:37:34Z</time>
      </trkpt>
      <trkpt lat="48.57547" lon="-2.57417">
        <ele>20.6</ele>
        <time>2016-07-07T06:37:54Z</time>
      </trkpt>
      <trkpt lat="48.57554" lon="-2.57428">
        <ele>18.7</ele>
        <time>2016-07-07T06:38:10Z</time>
      </trkpt>
      <trkpt lat="48.5756" lon="-2.57438">
        <ele>17.2</ele>
        <time>2016-07-07T06:38:19Z</time>
      </trkpt>
      <trkpt lat="48.57566" lon="-2.5745">
        <ele>16.8</ele>
        <time>2016-07-07T06:38:31Z</time>
      </trkpt>
      <trkpt lat="48.57572" lon="-2.57461">
        <ele>15.2</ele>
        <time>2016-07-07T06:38:45Z</time>
      </trkpt>
      <trkpt lat="48.57578" lon="-2.57473">
        <ele>13.4</ele>
        <time>2016-07-07T06:38:56Z</time>
      </trkpt>
      <trkpt lat="48.57586" lon="-2.57485">
        <ele>11.2</ele>
        <time>2016-07-07T06:39:15Z</time>
      </trkpt>
      <trkpt lat="48.57592" lon="-2.57496">
        <ele>9.5</ele>
        <time>2016-07-07T06:39:25Z</time>
      </trkpt>
      <trkpt lat="48.57583" lon="-2.57502">
        <ele>9.7</ele>
        <time>2016-07-07T06:39:46Z</time>
      </trkpt>
      <trkpt lat="48.57574" lon="-2.57501">
        <ele>11</ele>
        <time>2016-07-07T06:39:56Z</time>
      </trkpt>
      <trkpt lat="48.57565" lon="-2.57504">
        <ele>12.3</ele>
        <time>2016-07-07T06:40:10Z</time>
      </trkpt>
      <trkpt lat="48.57556" lon="-2.57509">
        <ele>13</ele>
        <time>2016-07-07T06:40:19Z</time>
      </trkpt>
      <trkpt lat="48.57547" lon="-2.57505">
        <ele>13.7</ele>
        <time>2016-07-07T06:40:31Z</time>
      </trkpt>
      <trkpt lat="48.57538" lon="-2.57508">
        <ele>13.5</ele>
        <time>2016-07-07T06:40:40Z</time>
      </trkpt>
      <trkpt lat="48.57529" lon="-2.57507">
        <ele>13.8</ele>
        <time>2016-07-07T06:41:08Z</time>
      </trkpt>
      <trkpt lat="48.57519" lon="-2.57507">
        <ele>15.1</ele>
        <time>2016-07-07T06:41:19Z</time>
      </trkpt>
      <trkpt lat="48.5751" lon="-2.57511">
        <ele>16.8</ele>
        <time>2016-07-07T06:41:33Z</time>
      </trkpt>
      <trkpt lat="48.57501" lon="-2.57515">
        <ele>18</ele>
        <time>2016-07-07T06:41:43Z</time>
      </trkpt>
      <trkpt lat="48.57492" lon="-2.57521">
        <ele>20</ele>
        <time>2016-07-07T06:41:54Z</time>
      </trkpt>
      <trkpt lat="48.57489" lon="-2.57534">
        <ele>21.1</ele>
        <time>2016-07-07T06:42:29Z</time>
      </trkpt>
      <trkpt lat="48.57488" lon="-2.57548">
        <ele>21.1</ele>
        <time>2016-07-07T06:42:37Z</time>
      </trkpt>
      <trkpt lat="48.57482" lon="-2.57559">
        <ele>22</ele>
        <time>2016-07-07T06:42:45Z</time>
      </trkpt>
      <trkpt lat="48.57472" lon="-2.57564">
        <ele>22.6</ele>
        <time>2016-07-07T06:42:53Z</time>
      </trkpt>
      <trkpt lat="48.57463" lon="-2.57569">
        <ele>24.2</ele>
        <time>2016-07-07T06:43:02Z</time>
      </trkpt>
      <trkpt lat="48.57454" lon="-2.57575">
        <ele>24.6</ele>
        <time>2016-07-07T06:43:11Z</time>
      </trkpt>
      <trkpt lat="48.57446" lon="-2.57583">
        <ele>25.4</ele>
        <time>2016-07-07T06:43:19Z</time>
      </trkpt>
      <trkpt lat="48.57437" lon="-2.57591">
        <ele>25.6</ele>
        <time>2016-07-07T06:43:27Z</time>
      </trkpt>
      <trkpt lat="48.5743" lon="-2.576">
        <ele>26.5</ele>
        <time>2016-07-07T06:43:35Z</time>
      </trkpt>
      <trkpt lat="48.57422" lon="-2.57606">
        <ele>27</ele>
        <time>2016-07-07T06:43:43Z</time>
      </trkpt>
      <trkpt lat="48.57413" lon="-2.5761">
        <ele>27.8</ele>
        <time>2016-07-07T06:43:52Z</time>
      </trkpt>
      <trkpt lat="48.57404" lon="-2.57612">
        <ele>28.8</ele>
        <time>2016-07-07T06:44:00Z</time>
      </trkpt>
      <trkpt lat="48.57395" lon="-2.57617">
        <ele>29.4</ele>
        <time>2016-07-07T06:44:22Z</time>
      </trkpt>
      <trkpt lat="48.5739" lon="-2.57628">
        <ele>28.9</ele>
        <time>2016-07-07T06:44:30Z</time>
      </trkpt>
      <trkpt lat="48.57383" lon="-2.57639">
        <ele>29.3</ele>
        <time>2016-07-07T06:44:38Z</time>
      </trkpt>
      <trkpt lat="48.57379" lon="-2.57652">
        <ele>29.3</ele>
        <time>2016-07-07T06:44:47Z</time>
      </trkpt>
      <trkpt lat="48.57379" lon="-2.57667">
        <ele>29.3</ele>
        <time>2016-07-07T06:44:55Z</time>
      </trkpt>
      <trkpt lat="48.57383" lon="-2.5768">
        <ele>30.1</ele>
        <time>2016-07-07T06:45:04Z</time>
      </trkpt>
      <trkpt lat="48.57378" lon="-2.57693">
        <ele>29.5</ele>
        <time>2016-07-07T06:45:20Z</time>
      </trkpt>
      <trkpt lat="48.5737" lon="-2.57699">
        <ele>30</ele>
        <time>2016-07-07T06:45:27Z</time>
      </trkpt>
      <trkpt lat="48.57362" lon="-2.57704">
        <ele>31.1</ele>
        <time>2016-07-07T06:45:34Z</time>
      </trkpt>
      <trkpt lat="48.57354" lon="-2.5771">
        <ele>31.4</ele>
        <time>2016-07-07T06:45:41Z</time>
      </trkpt>
      <trkpt lat="48.57345" lon="-2.57718">
        <ele>31.1</ele>
        <time>2016-07-07T06:45:50Z</time>
      </trkpt>
      <trkpt lat="48.57337" lon="-2.57726">
        <ele>31.3</ele>
        <time>2016-07-07T06:45:57Z</time>
      </trkpt>
      <trkpt lat="48.57329" lon="-2.57735">
        <ele>31.5</ele>
        <time>2016-07-07T06:46:05Z</time>
      </trkpt>
      <trkpt lat="48.57322" lon="-2.57744">
        <ele>31.9</ele>
        <time>2016-07-07T06:46:13Z</time>
      </trkpt>
      <trkpt lat="48.57321" lon="-2.57758">
        <ele>31.6</ele>
        <time>2016-07-07T06:46:22Z</time>
      </trkpt>
      <trkpt lat="48.57318" lon="-2.57772">
        <ele>32</ele>
        <time>2016-07-07T06:46:31Z</time>
      </trkpt>
      <trkpt lat="48.57312" lon="-2.57783">
        <ele>32.1</ele>
        <time>2016-07-07T06:46:39Z</time>
      </trkpt>
      <trkpt lat="48.57305" lon="-2.57793">
        <ele>33.1</ele>
        <time>2016-07-07T06:46:48Z</time>
      </trkpt>
      <trkpt lat="48.57299" lon="-2.57804">
        <ele>36.4</ele>
        <time>2016-07-07T06:47:00Z</time>
      </trkpt>
      <trkpt lat="48.57296" lon="-2.57817">
        <ele>38.4</ele>
        <time>2016-07-07T06:47:12Z</time>
      </trkpt>
      <trkpt lat="48.57293" lon="-2.5783">
        <ele>39.8</ele>
        <time>2016-07-07T06:47:41Z</time>
      </trkpt>
      <trkpt lat="48.57287" lon="-2.57842">
        <ele>39.4</ele>
        <time>2016-07-07T06:47:52Z</time>
      </trkpt>
      <trkpt lat="48.57279" lon="-2.5785">
        <ele>38.2</ele>
        <time>2016-07-07T06:48:03Z</time>
      </trkpt>
      <trkpt lat="48.57274" lon="-2.57861">
        <ele>36.1</ele>
        <time>2016-07-07T06:48:13Z</time>
      </trkpt>
      <trkpt lat="48.57269" lon="-2.57874">
        <ele>35.1</ele>
        <time>2016-07-07T06:48:22Z</time>
      </trkpt>
      <trkpt lat="48.57264" lon="-2.57887">
        <ele>35.4</ele>
        <time>2016-07-07T06:48:30Z</time>
      </trkpt>
      <trkpt lat="48.57259" lon="-2.57899">
        <ele>36.2</ele>
        <time>2016-07-07T06:48:39Z</time>
      </trkpt>
      <trkpt lat="48.57255" lon="-2.57912">
        <ele>37.6</ele>
        <time>2016-07-07T06:48:47Z</time>
      </trkpt>
      <trkpt lat="48.57251" lon="-2.57924">
        <ele>39</ele>
        <time>2016-07-07T06:49:00Z</time>
      </trkpt>
      <trkpt lat="48.57246" lon="-2.57935">
        <ele>42</ele>
        <time>2016-07-07T06:49:18Z</time>
      </trkpt>
      <trkpt lat="48.5724" lon="-2.57946">
        <ele>42.7</ele>
        <time>2016-07-07T06:49:27Z</time>
      </trkpt>
      <trkpt lat="48.57233" lon="-2.57955">
        <ele>43.4</ele>
        <time>2016-07-07T06:49:37Z</time>
      </trkpt>
      <trkpt lat="48.57224" lon="-2.57956">
        <ele>42</ele>
        <time>2016-07-07T06:55:17Z</time>
      </trkpt>
      <trkpt lat="48.57218" lon="-2.57967">
        <ele>41.5</ele>
        <time>2016-07-07T06:55:26Z</time>
      </trkpt>
      <trkpt lat="48.57212" lon="-2.57979">
        <ele>40.3</ele>
        <time>2016-07-07T06:55:36Z</time>
      </trkpt>
      <trkpt lat="48.57207" lon="-2.57992">
        <ele>40.1</ele>
        <time>2016-07-07T06:55:45Z</time>
      </trkpt>
      <trkpt lat="48.572" lon="-2.58001">
        <ele>42.4</ele>
        <time>2016-07-07T06:55:54Z</time>
      </trkpt>
      <trkpt lat="48.57194" lon="-2.58011">
        <ele>40.7</ele>
        <time>2016-07-07T06:56:06Z</time>
      </trkpt>
      <trkpt lat="48.57187" lon="-2.58021">
        <ele>38.9</ele>
        <time>2016-07-07T06:56:20Z</time>
      </trkpt>
      <trkpt lat="48.57179" lon="-2.58027">
        <ele>35.8</ele>
        <time>2016-07-07T06:56:41Z</time>
      </trkpt>
      <trkpt lat="48.5717" lon="-2.58031">
        <ele>33.8</ele>
        <time>2016-07-07T06:57:10Z</time>
      </trkpt>
      <trkpt lat="48.57162" lon="-2.58023">
        <ele>30.8</ele>
        <time>2016-07-07T06:57:22Z</time>
      </trkpt>
      <trkpt lat="48.57155" lon="-2.58015">
        <ele>27</ele>
        <time>2016-07-07T06:57:42Z</time>
      </trkpt>
      <trkpt lat="48.57147" lon="-2.58006">
        <ele>25.9</ele>
        <time>2016-07-07T06:57:55Z</time>
      </trkpt>
      <trkpt lat="48.57139" lon="-2.57998">
        <ele>22.8</ele>
        <time>2016-07-07T06:58:16Z</time>
      </trkpt>
      <trkpt lat="48.57132" lon="-2.57988">
        <ele>20.5</ele>
        <time>2016-07-07T06:58:27Z</time>
      </trkpt>
      <trkpt lat="48.57125" lon="-2.57979">
        <ele>18.8</ele>
        <time>2016-07-07T06:58:45Z</time>
      </trkpt>
      <trkpt lat="48.57121" lon="-2.57967">
        <ele>17.1</ele>
        <time>2016-07-07T06:58:58Z</time>
      </trkpt>
      <trkpt lat="48.57113" lon="-2.57959">
        <ele>14.5</ele>
        <time>2016-07-07T06:59:14Z</time>
      </trkpt>
      <trkpt lat="48.57106" lon="-2.57951">
        <ele>12.7</ele>
        <time>2016-07-07T06:59:31Z</time>
      </trkpt>
      <trkpt lat="48.57098" lon="-2.57943">
        <ele>10.3</ele>
        <time>2016-07-07T06:59:50Z</time>
      </trkpt>
      <trkpt lat="48.57089" lon="-2.57935">
        <ele>8</ele>
        <time>2016-07-07T07:00:03Z</time>
      </trkpt>
      <trkpt lat="48.57081" lon="-2.57927">
        <ele>8.5</ele>
        <time>2016-07-07T07:00:15Z</time>
      </trkpt>
      <trkpt lat="48.57074" lon="-2.57916">
        <ele>8.9</ele>
        <time>2016-07-07T07:00:23Z</time>
      </trkpt>
      <trkpt lat="48.57065" lon="-2.57911">
        <ele>9.4</ele>
        <time>2016-07-07T07:00:33Z</time>
      </trkpt>
      <trkpt lat="48.57056" lon="-2.57919">
        <ele>10.8</ele>
        <time>2016-07-07T07:00:45Z</time>
      </trkpt>
      <trkpt lat="48.57047" lon="-2.57923">
        <ele>12.4</ele>
        <time>2016-07-07T07:01:09Z</time>
      </trkpt>
      <trkpt lat="48.57038" lon="-2.57927">
        <ele>12.8</ele>
        <time>2016-07-07T07:01:19Z</time>
      </trkpt>
      <trkpt lat="48.57029" lon="-2.57929">
        <ele>13.5</ele>
        <time>2016-07-07T07:01:28Z</time>
      </trkpt>
      <trkpt lat="48.5702" lon="-2.57933">
        <ele>14.5</ele>
        <time>2016-07-07T07:01:39Z</time>
      </trkpt>
      <trkpt lat="48.5701" lon="-2.57937">
        <ele>14.8</ele>
        <time>2016-07-07T07:01:50Z</time>
      </trkpt>
      <trkpt lat="48.57001" lon="-2.5794">
        <ele>15.8</ele>
        <time>2016-07-07T07:02:00Z</time>
      </trkpt>
      <trkpt lat="48.56992" lon="-2.57941">
        <ele>16.5</ele>
        <time>2016-07-07T07:02:08Z</time>
      </trkpt>
      <trkpt lat="48.56983" lon="-2.57947">
        <ele>18.1</ele>
        <time>2016-07-07T07:02:47Z</time>
      </trkpt>
      <trkpt lat="48.56974" lon="-2.57951">
        <ele>18.2</ele>
        <time>2016-07-07T07:02:57Z</time>
      </trkpt>
      <trkpt lat="48.56965" lon="-2.57952">
        <ele>19.1</ele>
        <time>2016-07-07T07:03:05Z</time>
      </trkpt>
      <trkpt lat="48.56956" lon="-2.57955">
        <ele>20.1</ele>
        <time>2016-07-07T07:03:15Z</time>
      </trkpt>
      <trkpt lat="48.56947" lon="-2.57959">
        <ele>21.5</ele>
        <time>2016-07-07T07:03:25Z</time>
      </trkpt>
      <trkpt lat="48.56937" lon="-2.57959">
        <ele>22</ele>
        <time>2016-07-07T07:03:35Z</time>
      </trkpt>
      <trkpt lat="48.56927" lon="-2.57958">
        <ele>23.4</ele>
        <time>2016-07-07T07:04:08Z</time>
      </trkpt>
      <trkpt lat="48.56918" lon="-2.57956">
        <ele>24.4</ele>
        <time>2016-07-07T07:04:20Z</time>
      </trkpt>
      <trkpt lat="48.56909" lon="-2.57954">
        <ele>25.9</ele>
        <time>2016-07-07T07:04:28Z</time>
      </trkpt>
      <trkpt lat="48.56899" lon="-2.57954">
        <ele>27.2</ele>
        <time>2016-07-07T07:04:38Z</time>
      </trkpt>
      <trkpt lat="48.5689" lon="-2.57956">
        <ele>29</ele>
        <time>2016-07-07T07:04:48Z</time>
      </trkpt>
      <trkpt lat="48.5688" lon="-2.57958">
        <ele>29.6</ele>
        <time>2016-07-07T07:04:57Z</time>
      </trkpt>
      <trkpt lat="48.5687" lon="-2.57959">
        <ele>31.1</ele>
        <time>2016-07-07T07:05:06Z</time>
      </trkpt>
      <trkpt lat="48.56861" lon="-2.57959">
        <ele>30.6</ele>
        <time>2016-07-07T07:05:17Z</time>
      </trkpt>
      <trkpt lat="48.56851" lon="-2.57963">
        <ele>30.9</ele>
        <time>2016-07-07T07:05:27Z</time>
      </trkpt>
      <trkpt lat="48.56841" lon="-2.57965">
        <ele>32</ele>
        <time>2016-07-07T07:05:36Z</time>
      </trkpt>
      <trkpt lat="48.56832" lon="-2.57965">
        <ele>32.2</ele>
        <time>2016-07-07T07:05:45Z</time>
      </trkpt>
      <trkpt lat="48.56822" lon="-2.57966">
        <ele>33.3</ele>
        <time>2016-07-07T07:05:54Z</time>
      </trkpt>
      <trkpt lat="48.5682" lon="-2.5798">
        <ele>32.7</ele>
        <time>2016-07-07T07:06:25Z</time>
      </trkpt>
      <trkpt lat="48.56819" lon="-2.57994">
        <ele>32.9</ele>
        <time>2016-07-07T07:06:33Z</time>
      </trkpt>
      <trkpt lat="48.56815" lon="-2.58008">
        <ele>32.3</ele>
        <time>2016-07-07T07:06:42Z</time>
      </trkpt>
      <trkpt lat="48.56812" lon="-2.58022">
        <ele>31.6</ele>
        <time>2016-07-07T07:06:51Z</time>
      </trkpt>
      <trkpt lat="48.5681" lon="-2.58036">
        <ele>30.9</ele>
        <time>2016-07-07T07:06:59Z</time>
      </trkpt>
      <trkpt lat="48.56809" lon="-2.5805">
        <ele>30.4</ele>
        <time>2016-07-07T07:07:07Z</time>
      </trkpt>
      <trkpt lat="48.56809" lon="-2.58065">
        <ele>29.3</ele>
        <time>2016-07-07T07:07:15Z</time>
      </trkpt>
      <trkpt lat="48.56809" lon="-2.5808">
        <ele>27.8</ele>
        <time>2016-07-07T07:07:24Z</time>
      </trkpt>
      <trkpt lat="48.5681" lon="-2.58094">
        <ele>27</ele>
        <time>2016-07-07T07:07:33Z</time>
      </trkpt>
      <trkpt lat="48.56807" lon="-2.58107">
        <ele>26.3</ele>
        <time>2016-07-07T07:07:45Z</time>
      </trkpt>
      <trkpt lat="48.56808" lon="-2.58122">
        <ele>25.9</ele>
        <time>2016-07-07T07:07:53Z</time>
      </trkpt>
      <trkpt lat="48.56807" lon="-2.58136">
        <ele>25.1</ele>
        <time>2016-07-07T07:08:01Z</time>
      </trkpt>
      <trkpt lat="48.56805" lon="-2.58151">
        <ele>24.5</ele>
        <time>2016-07-07T07:08:09Z</time>
      </trkpt>
      <trkpt lat="48.56803" lon="-2.58165">
        <ele>24.3</ele>
        <time>2016-07-07T07:08:16Z</time>
      </trkpt>
      <trkpt lat="48.568" lon="-2.58179">
        <ele>24.7</ele>
        <time>2016-07-07T07:08:24Z</time>
      </trkpt>
      <trkpt lat="48.56808" lon="-2.58186">
        <ele>25.6</ele>
        <time>2016-07-07T07:08:41Z</time>
      </trkpt>
      <trkpt lat="48.56817" lon="-2.58184">
        <ele>25.6</ele>
        <time>2016-07-07T07:08:49Z</time>
      </trkpt>
      <trkpt lat="48.56826" lon="-2.58188">
        <ele>26.5</ele>
        <time>2016-07-07T07:08:57Z</time>
      </trkpt>
      <trkpt lat="48.56836" lon="-2.5819">
        <ele>27.1</ele>
        <time>2016-07-07T07:09:10Z</time>
      </trkpt>
      <trkpt lat="48.56844" lon="-2.58185">
        <ele>29.5</ele>
        <time>2016-07-07T07:09:26Z</time>
      </trkpt>
      <trkpt lat="48.56852" lon="-2.58177">
        <ele>31.4</ele>
        <time>2016-07-07T07:09:42Z</time>
      </trkpt>
      <trkpt lat="48.56859" lon="-2.58167">
        <ele>31.5</ele>
        <time>2016-07-07T07:09:50Z</time>
      </trkpt>
      <trkpt lat="48.56868" lon="-2.58162">
        <ele>31.5</ele>
        <time>2016-07-07T07:09:59Z</time>
      </trkpt>
      <trkpt lat="48.56877" lon="-2.5816">
        <ele>31.2</ele>
        <time>2016-07-07T07:10:07Z</time>
      </trkpt>
      <trkpt lat="48.56887" lon="-2.58162">
        <ele>30.6</ele>
        <time>2016-07-07T07:10:16Z</time>
      </trkpt>
      <trkpt lat="48.56897" lon="-2.58164">
        <ele>30.1</ele>
        <time>2016-07-07T07:10:24Z</time>
      </trkpt>
      <trkpt lat="48.56906" lon="-2.58165">
        <ele>30</ele>
        <time>2016-07-07T07:10:34Z</time>
      </trkpt>
      <trkpt lat="48.56913" lon="-2.58175">
        <ele>29.8</ele>
        <time>2016-07-07T07:10:48Z</time>
      </trkpt>
      <trkpt lat="48.56918" lon="-2.58187">
        <ele>30.5</ele>
        <time>2016-07-07T07:10:57Z</time>
      </trkpt>
      <trkpt lat="48.56924" lon="-2.582">
        <ele>28.3</ele>
        <time>2016-07-07T07:11:06Z</time>
      </trkpt>
      <trkpt lat="48.56923" lon="-2.58215">
        <ele>26.7</ele>
        <time>2016-07-07T07:11:15Z</time>
      </trkpt>
      <trkpt lat="48.56922" lon="-2.58229">
        <ele>27.5</ele>
        <time>2016-07-07T07:11:24Z</time>
      </trkpt>
      <trkpt lat="48.56918" lon="-2.58242">
        <ele>27.3</ele>
        <time>2016-07-07T07:11:32Z</time>
      </trkpt>
      <trkpt lat="48.56912" lon="-2.58252">
        <ele>28.1</ele>
        <time>2016-07-07T07:11:40Z</time>
      </trkpt>
      <trkpt lat="48.56906" lon="-2.58263">
        <ele>30.1</ele>
        <time>2016-07-07T07:11:51Z</time>
      </trkpt>
      <trkpt lat="48.56902" lon="-2.58276">
        <ele>31.8</ele>
        <time>2016-07-07T07:12:02Z</time>
      </trkpt>
      <trkpt lat="48.56897" lon="-2.58288">
        <ele>33.1</ele>
        <time>2016-07-07T07:12:13Z</time>
      </trkpt>
      <trkpt lat="48.56891" lon="-2.58299">
        <ele>36</ele>
        <time>2016-07-07T07:12:29Z</time>
      </trkpt>
      <trkpt lat="48.56884" lon="-2.5831">
        <ele>37.6</ele>
        <time>2016-07-07T07:12:44Z</time>
      </trkpt>
      <trkpt lat="48.5688" lon="-2.58322">
        <ele>38.1</ele>
        <time>2016-07-07T07:13:57Z</time>
      </trkpt>
      <trkpt lat="48.56877" lon="-2.58335">
        <ele>37.3</ele>
        <time>2016-07-07T07:14:08Z</time>
      </trkpt>
      <trkpt lat="48.56876" lon="-2.58349">
        <ele>37</ele>
        <time>2016-07-07T07:14:16Z</time>
      </trkpt>
      <trkpt lat="48.56874" lon="-2.58363">
        <ele>36.9</ele>
        <time>2016-07-07T07:14:24Z</time>
      </trkpt>
      <trkpt lat="48.56873" lon="-2.58378">
        <ele>37.6</ele>
        <time>2016-07-07T07:14:32Z</time>
      </trkpt>
      <trkpt lat="48.56871" lon="-2.58392">
        <ele>37.6</ele>
        <time>2016-07-07T07:14:40Z</time>
      </trkpt>
      <trkpt lat="48.56869" lon="-2.58406">
        <ele>36.6</ele>
        <time>2016-07-07T07:14:49Z</time>
      </trkpt>
      <trkpt lat="48.56865" lon="-2.58419">
        <ele>33.8</ele>
        <time>2016-07-07T07:15:01Z</time>
      </trkpt>
      <trkpt lat="48.56858" lon="-2.5843">
        <ele>31.9</ele>
        <time>2016-07-07T07:15:11Z</time>
      </trkpt>
      <trkpt lat="48.56851" lon="-2.5844">
        <ele>30.6</ele>
        <time>2016-07-07T07:15:20Z</time>
      </trkpt>
      <trkpt lat="48.56843" lon="-2.58446">
        <ele>29.9</ele>
        <time>2016-07-07T07:15:28Z</time>
      </trkpt>
      <trkpt lat="48.56833" lon="-2.5845">
        <ele>30.4</ele>
        <time>2016-07-07T07:15:36Z</time>
      </trkpt>
      <trkpt lat="48.56824" lon="-2.5845">
        <ele>29.2</ele>
        <time>2016-07-07T07:15:44Z</time>
      </trkpt>
      <trkpt lat="48.56815" lon="-2.58452">
        <ele>30.6</ele>
        <time>2016-07-07T07:15:52Z</time>
      </trkpt>
      <trkpt lat="48.56806" lon="-2.58456">
        <ele>31</ele>
        <time>2016-07-07T07:16:00Z</time>
      </trkpt>
      <trkpt lat="48.56797" lon="-2.58463">
        <ele>31.8</ele>
        <time>2016-07-07T07:16:09Z</time>
      </trkpt>
      <trkpt lat="48.56791" lon="-2.58475">
        <ele>31.6</ele>
        <time>2016-07-07T07:16:18Z</time>
      </trkpt>
      <trkpt lat="48.56785" lon="-2.58489">
        <ele>31.1</ele>
        <time>2016-07-07T07:16:26Z</time>
      </trkpt>
      <trkpt lat="48.56778" lon="-2.58498">
        <ele>30.7</ele>
        <time>2016-07-07T07:16:35Z</time>
      </trkpt>
      <trkpt lat="48.56773" lon="-2.5851">
        <ele>29.8</ele>
        <time>2016-07-07T07:16:44Z</time>
      </trkpt>
      <trkpt lat="48.56767" lon="-2.58521">
        <ele>28.3</ele>
        <time>2016-07-07T07:16:55Z</time>
      </trkpt>
      <trkpt lat="48.5676" lon="-2.58532">
        <ele>27.1</ele>
        <time>2016-07-07T07:17:03Z</time>
      </trkpt>
      <trkpt lat="48.56754" lon="-2.58544">
        <ele>26.2</ele>
        <time>2016-07-07T07:17:11Z</time>
      </trkpt>
      <trkpt lat="48.56749" lon="-2.58557">
        <ele>27.2</ele>
        <time>2016-07-07T07:17:20Z</time>
      </trkpt>
      <trkpt lat="48.56746" lon="-2.5857">
        <ele>27.9</ele>
        <time>2016-07-07T07:17:28Z</time>
      </trkpt>
      <trkpt lat="48.56745" lon="-2.58585">
        <ele>28.2</ele>
        <time>2016-07-07T07:17:36Z</time>
      </trkpt>
      <trkpt lat="48.56738" lon="-2.58595">
        <ele>31.3</ele>
        <time>2016-07-07T07:17:56Z</time>
      </trkpt>
      <trkpt lat="48.56731" lon="-2.58605">
        <ele>34</ele>
        <time>2016-07-07T07:18:36Z</time>
      </trkpt>
      <trkpt lat="48.56724" lon="-2.58614">
        <ele>33.4</ele>
        <time>2016-07-07T07:18:44Z</time>
      </trkpt>
      <trkpt lat="48.56718" lon="-2.58626">
        <ele>33.9</ele>
        <time>2016-07-07T07:18:52Z</time>
      </trkpt>
      <trkpt lat="48.56713" lon="-2.58638">
        <ele>33.9</ele>
        <time>2016-07-07T07:18:59Z</time>
      </trkpt>
      <trkpt lat="48.56708" lon="-2.5865">
        <ele>34.4</ele>
        <time>2016-07-07T07:19:07Z</time>
      </trkpt>
      <trkpt lat="48.567" lon="-2.58659">
        <ele>34.7</ele>
        <time>2016-07-07T07:19:16Z</time>
      </trkpt>
      <trkpt lat="48.56691" lon="-2.58664">
        <ele>35.6</ele>
        <time>2016-07-07T07:19:24Z</time>
      </trkpt>
      <trkpt lat="48.56681" lon="-2.58667">
        <ele>36.2</ele>
        <time>2016-07-07T07:19:33Z</time>
      </trkpt>
      <trkpt lat="48.56672" lon="-2.58671">
        <ele>35.8</ele>
        <time>2016-07-07T07:19:41Z</time>
      </trkpt>
      <trkpt lat="48.56663" lon="-2.58677">
        <ele>35.8</ele>
        <time>2016-07-07T07:19:49Z</time>
      </trkpt>
      <trkpt lat="48.56655" lon="-2.58684">
        <ele>35</ele>
        <time>2016-07-07T07:19:57Z</time>
      </trkpt>
      <trkpt lat="48.56647" lon="-2.58692">
        <ele>34.1</ele>
        <time>2016-07-07T07:20:06Z</time>
      </trkpt>
      <trkpt lat="48.56641" lon="-2.58703">
        <ele>33.2</ele>
        <time>2016-07-07T07:20:15Z</time>
      </trkpt>
      <trkpt lat="48.56632" lon="-2.5871">
        <ele>32.4</ele>
        <time>2016-07-07T07:20:23Z</time>
      </trkpt>
      <trkpt lat="48.56626" lon="-2.58719">
        <ele>32.1</ele>
        <time>2016-07-07T07:20:32Z</time>
      </trkpt>
      <trkpt lat="48.5662" lon="-2.5873">
        <ele>29.5</ele>
        <time>2016-07-07T07:20:43Z</time>
      </trkpt>
      <trkpt lat="48.56614" lon="-2.58742">
        <ele>28.5</ele>
        <time>2016-07-07T07:20:53Z</time>
      </trkpt>
      <trkpt lat="48.56607" lon="-2.58752">
        <ele>27.7</ele>
        <time>2016-07-07T07:21:01Z</time>
      </trkpt>
      <trkpt lat="48.56598" lon="-2.58758">
        <ele>26.3</ele>
        <time>2016-07-07T07:21:09Z</time>
      </trkpt>
      <trkpt lat="48.56594" lon="-2.58771">
        <ele>26</ele>
        <time>2016-07-07T07:21:18Z</time>
      </trkpt>
      <trkpt lat="48.56588" lon="-2.58782">
        <ele>24.3</ele>
        <time>2016-07-07T07:21:26Z</time>
      </trkpt>
      <trkpt lat="48.5658" lon="-2.58789">
        <ele>24.1</ele>
        <time>2016-07-07T07:21:34Z</time>
      </trkpt>
      <trkpt lat="48.56572" lon="-2.58799">
        <ele>25.2</ele>
        <time>2016-07-07T07:21:42Z</time>
      </trkpt>
      <trkpt lat="48.56566" lon="-2.5881">
        <ele>24.2</ele>
        <time>2016-07-07T07:21:52Z</time>
      </trkpt>
      <trkpt lat="48.56561" lon="-2.58823">
        <ele>24.5</ele>
        <time>2016-07-07T07:22:01Z</time>
      </trkpt>
      <trkpt lat="48.56554" lon="-2.58832">
        <ele>23.2</ele>
        <time>2016-07-07T07:22:10Z</time>
      </trkpt>
      <trkpt lat="48.56545" lon="-2.58835">
        <ele>22.6</ele>
        <time>2016-07-07T07:22:56Z</time>
      </trkpt>
      <trkpt lat="48.56537" lon="-2.5883">
        <ele>22.9</ele>
        <time>2016-07-07T07:23:04Z</time>
      </trkpt>
      <trkpt lat="48.56532" lon="-2.58817">
        <ele>20.2</ele>
        <time>2016-07-07T07:23:17Z</time>
      </trkpt>
      <trkpt lat="48.56528" lon="-2.58805">
        <ele>19.6</ele>
        <time>2016-07-07T07:23:28Z</time>
      </trkpt>
      <trkpt lat="48.56523" lon="-2.58792">
        <ele>19.7</ele>
        <time>2016-07-07T07:23:36Z</time>
      </trkpt>
      <trkpt lat="48.56521" lon="-2.58777">
        <ele>20</ele>
        <time>2016-07-07T07:23:46Z</time>
      </trkpt>
      <trkpt lat="48.56514" lon="-2.58768">
        <ele>20.8</ele>
        <time>2016-07-07T07:24:53Z</time>
      </trkpt>
      <trkpt lat="48.5651" lon="-2.58781">
        <ele>20.6</ele>
        <time>2016-07-07T07:25:04Z</time>
      </trkpt>
      <trkpt lat="48.56507" lon="-2.58795">
        <ele>19.7</ele>
        <time>2016-07-07T07:25:13Z</time>
      </trkpt>
      <trkpt lat="48.565" lon="-2.58804">
        <ele>19.8</ele>
        <time>2016-07-07T07:25:21Z</time>
      </trkpt>
      <trkpt lat="48.5649" lon="-2.58804">
        <ele>22.4</ele>
        <time>2016-07-07T07:25:30Z</time>
      </trkpt>
      <trkpt lat="48.56481" lon="-2.58804">
        <ele>22.2</ele>
        <time>2016-07-07T07:25:40Z</time>
      </trkpt>
      <trkpt lat="48.56472" lon="-2.58807">
        <ele>24.1</ele>
        <time>2016-07-07T07:25:53Z</time>
      </trkpt>
      <trkpt lat="48.56463" lon="-2.58813">
        <ele>24.7</ele>
        <time>2016-07-07T07:26:03Z</time>
      </trkpt>
      <trkpt lat="48.56456" lon="-2.58822">
        <ele>24.9</ele>
        <time>2016-07-07T07:26:32Z</time>
      </trkpt>
      <trkpt lat="48.56447" lon="-2.58827">
        <ele>25</ele>
        <time>2016-07-07T07:26:41Z</time>
      </trkpt>
      <trkpt lat="48.56438" lon="-2.58828">
        <ele>25.7</ele>
        <time>2016-07-07T07:26:51Z</time>
      </trkpt>
      <trkpt lat="48.56428" lon="-2.58829">
        <ele>27.5</ele>
        <time>2016-07-07T07:27:04Z</time>
      </trkpt>
      <trkpt lat="48.56419" lon="-2.58834">
        <ele>28</ele>
        <time>2016-07-07T07:27:24Z</time>
      </trkpt>
      <trkpt lat="48.5641" lon="-2.58839">
        <ele>29.1</ele>
        <time>2016-07-07T07:27:34Z</time>
      </trkpt>
      <trkpt lat="48.56401" lon="-2.5884">
        <ele>30.2</ele>
        <time>2016-07-07T07:27:43Z</time>
      </trkpt>
      <trkpt lat="48.56391" lon="-2.58839">
        <ele>31.3</ele>
        <time>2016-07-07T07:27:53Z</time>
      </trkpt>
      <trkpt lat="48.56383" lon="-2.58835">
        <ele>32</ele>
        <time>2016-07-07T07:28:02Z</time>
      </trkpt>
      <trkpt lat="48.56375" lon="-2.58826">
        <ele>32.5</ele>
        <time>2016-07-07T07:28:19Z</time>
      </trkpt>
      <trkpt lat="48.56366" lon="-2.58822">
        <ele>34.7</ele>
        <time>2016-07-07T07:28:29Z</time>
      </trkpt>
      <trkpt lat="48.56374" lon="-2.58814">
        <ele>38.5</ele>
        <time>2016-07-07T07:28:53Z</time>
      </trkpt>
      <trkpt lat="48.5637" lon="-2.58801">
        <ele>43.8</ele>
        <time>2016-07-07T07:29:33Z</time>
      </trkpt>
      <trkpt lat="48.56361" lon="-2.58804">
        <ele>47.3</ele>
        <time>2016-07-07T07:30:17Z</time>
      </trkpt>
      <trkpt lat="48.56352" lon="-2.58808">
        <ele>47.1</ele>
        <time>2016-07-07T07:30:26Z</time>
      </trkpt>
      <trkpt lat="48.56344" lon="-2.58814">
        <ele>46.7</ele>
        <time>2016-07-07T07:30:35Z</time>
      </trkpt>
      <trkpt lat="48.56336" lon="-2.5882">
        <ele>47.6</ele>
        <time>2016-07-07T07:30:45Z</time>
      </trkpt>
      <trkpt lat="48.56328" lon="-2.58828">
        <ele>49.8</ele>
        <time>2016-07-07T07:30:58Z</time>
      </trkpt>
      <trkpt lat="48.56322" lon="-2.58838">
        <ele>49.2</ele>
        <time>2016-07-07T07:31:41Z</time>
      </trkpt>
      <trkpt lat="48.56316" lon="-2.58849">
        <ele>48.2</ele>
        <time>2016-07-07T07:31:55Z</time>
      </trkpt>
      <trkpt lat="48.56308" lon="-2.58858">
        <ele>46.5</ele>
        <time>2016-07-07T07:32:09Z</time>
      </trkpt>
      <trkpt lat="48.56302" lon="-2.58868">
        <ele>45.3</ele>
        <time>2016-07-07T07:32:18Z</time>
      </trkpt>
      <trkpt lat="48.56295" lon="-2.58877">
        <ele>43.9</ele>
        <time>2016-07-07T07:32:26Z</time>
      </trkpt>
      <trkpt lat="48.56288" lon="-2.58888">
        <ele>43.3</ele>
        <time>2016-07-07T07:32:34Z</time>
      </trkpt>
      <trkpt lat="48.56283" lon="-2.58902">
        <ele>42.1</ele>
        <time>2016-07-07T07:32:43Z</time>
      </trkpt>
      <trkpt lat="48.5628" lon="-2.58915">
        <ele>42</ele>
        <time>2016-07-07T07:32:51Z</time>
      </trkpt>
      <trkpt lat="48.56275" lon="-2.58928">
        <ele>40.5</ele>
        <time>2016-07-07T07:33:00Z</time>
      </trkpt>
      <trkpt lat="48.56267" lon="-2.58934">
        <ele>40.1</ele>
        <time>2016-07-07T07:33:07Z</time>
      </trkpt>
      <trkpt lat="48.5626" lon="-2.58924">
        <ele>42.3</ele>
        <time>2016-07-07T07:33:27Z</time>
      </trkpt>
      <trkpt lat="48.56251" lon="-2.58922">
        <ele>45.1</ele>
        <time>2016-07-07T07:33:44Z</time>
      </trkpt>
      <trkpt lat="48.56242" lon="-2.58923">
        <ele>46</ele>
        <time>2016-07-07T07:33:53Z</time>
      </trkpt>
      <trkpt lat="48.56233" lon="-2.58927">
        <ele>46.6</ele>
        <time>2016-07-07T07:34:04Z</time>
      </trkpt>
      <trkpt lat="48.56225" lon="-2.58934">
        <ele>48.2</ele>
        <time>2016-07-07T07:34:17Z</time>
      </trkpt>
      <trkpt lat="48.56217" lon="-2.58942">
        <ele>49.3</ele>
        <time>2016-07-07T07:34:28Z</time>
      </trkpt>
      <trkpt lat="48.5621" lon="-2.58952">
        <ele>50.9</ele>
        <time>2016-07-07T07:34:39Z</time>
      </trkpt>
      <trkpt lat="48.56203" lon="-2.5896">
        <ele>51.7</ele>
        <time>2016-07-07T07:34:48Z</time>
      </trkpt>
      <trkpt lat="48.56196" lon="-2.5897">
        <ele>52.9</ele>
        <time>2016-07-07T07:35:36Z</time>
      </trkpt>
      <trkpt lat="48.56199" lon="-2.58983">
        <ele>51.9</ele>
        <time>2016-07-07T07:36:03Z</time>
      </trkpt>
      <trkpt lat="48.56192" lon="-2.58993">
        <ele>49.4</ele>
        <time>2016-07-07T07:36:17Z</time>
      </trkpt>
      <trkpt lat="48.56191" lon="-2.59007">
        <ele>46.8</ele>
        <time>2016-07-07T07:36:44Z</time>
      </trkpt>
      <trkpt lat="48.56196" lon="-2.59018">
        <ele>44.7</ele>
        <time>2016-07-07T07:37:00Z</time>
      </trkpt>
      <trkpt lat="48.56197" lon="-2.59033">
        <ele>42.8</ele>
        <time>2016-07-07T07:37:12Z</time>
      </trkpt>
      <trkpt lat="48.56195" lon="-2.59046">
        <ele>43.1</ele>
        <time>2016-07-07T07:37:23Z</time>
      </trkpt>
      <trkpt lat="48.56191" lon="-2.59059">
        <ele>42.4</ele>
        <time>2016-07-07T07:37:42Z</time>
      </trkpt>
      <trkpt lat="48.56189" lon="-2.59074">
        <ele>41.1</ele>
        <time>2016-07-07T07:38:05Z</time>
      </trkpt>
      <trkpt lat="48.56187" lon="-2.59089">
        <ele>40</ele>
        <time>2016-07-07T07:38:27Z</time>
      </trkpt>
      <trkpt lat="48.56184" lon="-2.59103">
        <ele>38.1</ele>
        <time>2016-07-07T07:38:35Z</time>
      </trkpt>
      <trkpt lat="48.56185" lon="-2.59117">
        <ele>36.6</ele>
        <time>2016-07-07T07:38:42Z</time>
      </trkpt>
      <trkpt lat="48.56189" lon="-2.5913">
        <ele>34.7</ele>
        <time>2016-07-07T07:38:50Z</time>
      </trkpt>
      <trkpt lat="48.56187" lon="-2.59144">
        <ele>34.2</ele>
        <time>2016-07-07T07:38:57Z</time>
      </trkpt>
      <trkpt lat="48.56183" lon="-2.59158">
        <ele>33.4</ele>
        <time>2016-07-07T07:39:05Z</time>
      </trkpt>
      <trkpt lat="48.56176" lon="-2.59169">
        <ele>33.2</ele>
        <time>2016-07-07T07:39:12Z</time>
      </trkpt>
      <trkpt lat="48.56167" lon="-2.59178">
        <ele>33.4</ele>
        <time>2016-07-07T07:40:03Z</time>
      </trkpt>
      <trkpt lat="48.56158" lon="-2.59181">
        <ele>33.9</ele>
        <time>2016-07-07T07:40:08Z</time>
      </trkpt>
      <trkpt lat="48.56149" lon="-2.59183">
        <ele>34.3</ele>
        <time>2016-07-07T07:40:15Z</time>
      </trkpt>
      <trkpt lat="48.56139" lon="-2.59186">
        <ele>34.5</ele>
        <time>2016-07-07T07:40:22Z</time>
      </trkpt>
      <trkpt lat="48.56129" lon="-2.59187">
        <ele>35.5</ele>
        <time>2016-07-07T07:40:29Z</time>
      </trkpt>
      <trkpt lat="48.56119" lon="-2.59187">
        <ele>36.5</ele>
        <time>2016-07-07T07:40:37Z</time>
      </trkpt>
      <trkpt lat="48.5611" lon="-2.59188">
        <ele>37.7</ele>
        <time>2016-07-07T07:40:45Z</time>
      </trkpt>
      <trkpt lat="48.56101" lon="-2.59189">
        <ele>39.9</ele>
        <time>2016-07-07T07:40:57Z</time>
      </trkpt>
      <trkpt lat="48.56092" lon="-2.59195">
        <ele>40.8</ele>
        <time>2016-07-07T07:41:04Z</time>
      </trkpt>
      <trkpt lat="48.56084" lon="-2.59202">
        <ele>40.4</ele>
        <time>2016-07-07T07:41:13Z</time>
      </trkpt>
      <trkpt lat="48.56074" lon="-2.59202">
        <ele>40.2</ele>
        <time>2016-07-07T07:41:27Z</time>
      </trkpt>
      <trkpt lat="48.56067" lon="-2.59212">
        <ele>40.5</ele>
        <time>2016-07-07T07:41:34Z</time>
      </trkpt>
      <trkpt lat="48.56059" lon="-2.59221">
        <ele>40.9</ele>
        <time>2016-07-07T07:41:41Z</time>
      </trkpt>
      <trkpt lat="48.56052" lon="-2.59228">
        <ele>42.1</ele>
        <time>2016-07-07T07:41:49Z</time>
      </trkpt>
      <trkpt lat="48.56044" lon="-2.59239">
        <ele>43.8</ele>
        <time>2016-07-07T07:41:58Z</time>
      </trkpt>
      <trkpt lat="48.56038" lon="-2.5925">
        <ele>45.1</ele>
        <time>2016-07-07T07:42:06Z</time>
      </trkpt>
      <trkpt lat="48.56033" lon="-2.59261">
        <ele>45.2</ele>
        <time>2016-07-07T07:42:15Z</time>
      </trkpt>
      <trkpt lat="48.56026" lon="-2.59271">
        <ele>45.5</ele>
        <time>2016-07-07T07:42:23Z</time>
      </trkpt>
      <trkpt lat="48.56019" lon="-2.59279">
        <ele>45.4</ele>
        <time>2016-07-07T07:42:31Z</time>
      </trkpt>
      <trkpt lat="48.56009" lon="-2.59281">
        <ele>43.9</ele>
        <time>2016-07-07T07:42:38Z</time>
      </trkpt>
      <trkpt lat="48.56" lon="-2.59278">
        <ele>43.7</ele>
        <time>2016-07-07T07:42:45Z</time>
      </trkpt>
      <trkpt lat="48.5599" lon="-2.59281">
        <ele>42.3</ele>
        <time>2016-07-07T07:42:56Z</time>
      </trkpt>
      <trkpt lat="48.55986" lon="-2.59294">
        <ele>40.3</ele>
        <time>2016-07-07T07:43:26Z</time>
      </trkpt>
      <trkpt lat="48.55988" lon="-2.59307">
        <ele>39.2</ele>
        <time>2016-07-07T07:43:36Z</time>
      </trkpt>
      <trkpt lat="48.55991" lon="-2.59321">
        <ele>38.5</ele>
        <time>2016-07-07T07:43:46Z</time>
      </trkpt>
      <trkpt lat="48.55989" lon="-2.59334">
        <ele>40.7</ele>
        <time>2016-07-07T07:43:58Z</time>
      </trkpt>
      <trkpt lat="48.55995" lon="-2.59346">
        <ele>41.9</ele>
        <time>2016-07-07T07:44:21Z</time>
      </trkpt>
      <trkpt lat="48.55996" lon="-2.59361">
        <ele>40.2</ele>
        <time>2016-07-07T07:44:29Z</time>
      </trkpt>
      <trkpt lat="48.56001" lon="-2.59372">
        <ele>39.2</ele>
        <time>2016-07-07T07:44:37Z</time>
      </trkpt>
      <trkpt lat="48.56004" lon="-2.59385">
        <ele>38.8</ele>
        <time>2016-07-07T07:44:44Z</time>
      </trkpt>
      <trkpt lat="48.56004" lon="-2.59399">
        <ele>38.8</ele>
        <time>2016-07-07T07:44:51Z</time>
      </trkpt>
      <trkpt lat="48.56008" lon="-2.59413">
        <ele>39.5</ele>
        <time>2016-07-07T07:44:59Z</time>
      </trkpt>
      <trkpt lat="48.56011" lon="-2.59427">
        <ele>39.7</ele>
        <time>2016-07-07T07:45:07Z</time>
      </trkpt>
      <trkpt lat="48.56017" lon="-2.5944">
        <ele>40.8</ele>
        <time>2016-07-07T07:46:02Z</time>
      </trkpt>
      <trkpt lat="48.5602" lon="-2.59453">
        <ele>41.1</ele>
        <time>2016-07-07T07:46:12Z</time>
      </trkpt>
      <trkpt lat="48.56018" lon="-2.59467">
        <ele>40.9</ele>
        <time>2016-07-07T07:46:29Z</time>
      </trkpt>
      <trkpt lat="48.56017" lon="-2.59481">
        <ele>40.7</ele>
        <time>2016-07-07T07:46:43Z</time>
      </trkpt>
      <trkpt lat="48.56015" lon="-2.59494">
        <ele>37.7</ele>
        <time>2016-07-07T07:46:55Z</time>
      </trkpt>
      <trkpt lat="48.56013" lon="-2.59509">
        <ele>37.2</ele>
        <time>2016-07-07T07:47:04Z</time>
      </trkpt>
      <trkpt lat="48.56012" lon="-2.59523">
        <ele>36.3</ele>
        <time>2016-07-07T07:47:16Z</time>
      </trkpt>
      <trkpt lat="48.56009" lon="-2.59536">
        <ele>34.2</ele>
        <time>2016-07-07T07:47:25Z</time>
      </trkpt>
      <trkpt lat="48.56005" lon="-2.59548">
        <ele>35.2</ele>
        <time>2016-07-07T07:47:33Z</time>
      </trkpt>
      <trkpt lat="48.55998" lon="-2.59558">
        <ele>34.4</ele>
        <time>2016-07-07T07:47:41Z</time>
      </trkpt>
      <trkpt lat="48.55991" lon="-2.59568">
        <ele>35.3</ele>
        <time>2016-07-07T07:47:49Z</time>
      </trkpt>
      <trkpt lat="48.55983" lon="-2.59577">
        <ele>35.1</ele>
        <time>2016-07-07T07:47:57Z</time>
      </trkpt>
      <trkpt lat="48.55973" lon="-2.59579">
        <ele>34.3</ele>
        <time>2016-07-07T07:48:19Z</time>
      </trkpt>
      <trkpt lat="48.55964" lon="-2.59577">
        <ele>35.8</ele>
        <time>2016-07-07T07:48:27Z</time>
      </trkpt>
      <trkpt lat="48.55955" lon="-2.5958">
        <ele>36.3</ele>
        <time>2016-07-07T07:48:39Z</time>
      </trkpt>
      <trkpt lat="48.55947" lon="-2.59586">
        <ele>33.9</ele>
        <time>2016-07-07T07:48:57Z</time>
      </trkpt>
      <trkpt lat="48.55944" lon="-2.59599">
        <ele>27.4</ele>
        <time>2016-07-07T07:50:38Z</time>
      </trkpt>
      <trkpt lat="48.55938" lon="-2.5961">
        <ele>22</ele>
        <time>2016-07-07T07:51:41Z</time>
      </trkpt>
      <trkpt lat="48.5593" lon="-2.59617">
        <ele>20.2</ele>
        <time>2016-07-07T07:51:51Z</time>
      </trkpt>
      <trkpt lat="48.55923" lon="-2.59625">
        <ele>16.8</ele>
        <time>2016-07-07T07:52:03Z</time>
      </trkpt>
      <trkpt lat="48.55916" lon="-2.59635">
        <ele>15.9</ele>
        <time>2016-07-07T07:52:26Z</time>
      </trkpt>
      <trkpt lat="48.55907" lon="-2.59638">
        <ele>18.3</ele>
        <time>2016-07-07T07:52:40Z</time>
      </trkpt>
      <trkpt lat="48.55903" lon="-2.59651">
        <ele>20.1</ele>
        <time>2016-07-07T07:53:03Z</time>
      </trkpt>
      <trkpt lat="48.55903" lon="-2.59665">
        <ele>22.9</ele>
        <time>2016-07-07T07:53:23Z</time>
      </trkpt>
      <trkpt lat="48.55905" lon="-2.59679">
        <ele>25.7</ele>
        <time>2016-07-07T07:53:40Z</time>
      </trkpt>
      <trkpt lat="48.55905" lon="-2.59693">
        <ele>27.5</ele>
        <time>2016-07-07T07:53:56Z</time>
      </trkpt>
      <trkpt lat="48.55896" lon="-2.59699">
        <ele>29.7</ele>
        <time>2016-07-07T07:54:16Z</time>
      </trkpt>
      <trkpt lat="48.55888" lon="-2.59707">
        <ele>30.4</ele>
        <time>2016-07-07T07:57:43Z</time>
      </trkpt>
      <trkpt lat="48.5588" lon="-2.59701">
        <ele>30.3</ele>
        <time>2016-07-07T07:57:54Z</time>
      </trkpt>
      <trkpt lat="48.55872" lon="-2.59693">
        <ele>32.1</ele>
        <time>2016-07-07T07:58:21Z</time>
      </trkpt>
      <trkpt lat="48.55863" lon="-2.59695">
        <ele>34.5</ele>
        <time>2016-07-07T07:58:32Z</time>
      </trkpt>
      <trkpt lat="48.55854" lon="-2.59701">
        <ele>35.5</ele>
        <time>2016-07-07T07:58:44Z</time>
      </trkpt>
      <trkpt lat="48.55847" lon="-2.59709">
        <ele>36.9</ele>
        <time>2016-07-07T07:58:57Z</time>
      </trkpt>
      <trkpt lat="48.55841" lon="-2.5972">
        <ele>38.4</ele>
        <time>2016-07-07T07:59:10Z</time>
      </trkpt>
      <trkpt lat="48.55833" lon="-2.59728">
        <ele>40.6</ele>
        <time>2016-07-07T07:59:26Z</time>
      </trkpt>
      <trkpt lat="48.55824" lon="-2.5973">
        <ele>44</ele>
        <time>2016-07-07T07:59:48Z</time>
      </trkpt>
      <trkpt lat="48.55818" lon="-2.5974">
        <ele>46.5</ele>
        <time>2016-07-07T08:00:11Z</time>
      </trkpt>
      <trkpt lat="48.55811" lon="-2.5975">
        <ele>47.2</ele>
        <time>2016-07-07T08:00:24Z</time>
      </trkpt>
      <trkpt lat="48.55806" lon="-2.59762">
        <ele>47.8</ele>
        <time>2016-07-07T08:00:35Z</time>
      </trkpt>
      <trkpt lat="48.558" lon="-2.59773">
        <ele>48.1</ele>
        <time>2016-07-07T08:00:47Z</time>
      </trkpt>
      <trkpt lat="48.55794" lon="-2.59784">
        <ele>48.9</ele>
        <time>2016-07-07T08:00:59Z</time>
      </trkpt>
      <trkpt lat="48.55787" lon="-2.59792">
        <ele>49.1</ele>
        <time>2016-07-07T08:01:11Z</time>
      </trkpt>
      <trkpt lat="48.55783" lon="-2.59804">
        <ele>48.9</ele>
        <time>2016-07-07T08:01:23Z</time>
      </trkpt>
      <trkpt lat="48.55778" lon="-2.59817">
        <ele>47.7</ele>
        <time>2016-07-07T08:01:35Z</time>
      </trkpt>
      <trkpt lat="48.55772" lon="-2.59827">
        <ele>49.6</ele>
        <time>2016-07-07T08:11:51Z</time>
      </trkpt>
      <trkpt lat="48.55762" lon="-2.59829">
        <ele>49.5</ele>
        <time>2016-07-07T08:12:00Z</time>
      </trkpt>
      <trkpt lat="48.55753" lon="-2.5983">
        <ele>48.9</ele>
        <time>2016-07-07T08:12:09Z</time>
      </trkpt>
      <trkpt lat="48.55743" lon="-2.59831">
        <ele>48.2</ele>
        <time>2016-07-07T08:12:20Z</time>
      </trkpt>
      <trkpt lat="48.55734" lon="-2.59833">
        <ele>48.2</ele>
        <time>2016-07-07T08:12:30Z</time>
      </trkpt>
      <trkpt lat="48.55725" lon="-2.59836">
        <ele>47.6</ele>
        <time>2016-07-07T08:12:41Z</time>
      </trkpt>
      <trkpt lat="48.55718" lon="-2.59845">
        <ele>46</ele>
        <time>2016-07-07T08:12:54Z</time>
      </trkpt>
      <trkpt lat="48.55711" lon="-2.59856">
        <ele>46.9</ele>
        <time>2016-07-07T08:13:03Z</time>
      </trkpt>
      <trkpt lat="48.55705" lon="-2.59868">
        <ele>45.8</ele>
        <time>2016-07-07T08:13:41Z</time>
      </trkpt>
      <trkpt lat="48.55697" lon="-2.59876">
        <ele>46.3</ele>
        <time>2016-07-07T08:13:50Z</time>
      </trkpt>
      <trkpt lat="48.5569" lon="-2.59884">
        <ele>46.1</ele>
        <time>2016-07-07T08:13:58Z</time>
      </trkpt>
      <trkpt lat="48.55681" lon="-2.59889">
        <ele>45.5</ele>
        <time>2016-07-07T08:14:09Z</time>
      </trkpt>
      <trkpt lat="48.55674" lon="-2.59897">
        <ele>42.8</ele>
        <time>2016-07-07T08:14:21Z</time>
      </trkpt>
      <trkpt lat="48.55666" lon="-2.59906">
        <ele>40.7</ele>
        <time>2016-07-07T08:14:38Z</time>
      </trkpt>
      <trkpt lat="48.55657" lon="-2.5991">
        <ele>38.2</ele>
        <time>2016-07-07T08:15:06Z</time>
      </trkpt>
      <trkpt lat="48.55647" lon="-2.59912">
        <ele>35.3</ele>
        <time>2016-07-07T08:15:22Z</time>
      </trkpt>
      <trkpt lat="48.55638" lon="-2.59911">
        <ele>34.9</ele>
        <time>2016-07-07T08:15:30Z</time>
      </trkpt>
      <trkpt lat="48.55629" lon="-2.59915">
        <ele>35.7</ele>
        <time>2016-07-07T08:15:40Z</time>
      </trkpt>
      <trkpt lat="48.5562" lon="-2.59915">
        <ele>36.1</ele>
        <time>2016-07-07T08:16:07Z</time>
      </trkpt>
      <trkpt lat="48.5561" lon="-2.59914">
        <ele>40.3</ele>
        <time>2016-07-07T08:16:29Z</time>
      </trkpt>
      <trkpt lat="48.55602" lon="-2.59907">
        <ele>42.1</ele>
        <time>2016-07-07T08:16:46Z</time>
      </trkpt>
      <trkpt lat="48.55594" lon="-2.59912">
        <ele>44.9</ele>
        <time>2016-07-07T08:17:48Z</time>
      </trkpt>
      <trkpt lat="48.55585" lon="-2.59912">
        <ele>45.3</ele>
        <time>2016-07-07T08:17:57Z</time>
      </trkpt>
      <trkpt lat="48.55575" lon="-2.59912">
        <ele>45.8</ele>
        <time>2016-07-07T08:18:07Z</time>
      </trkpt>
      <trkpt lat="48.55567" lon="-2.59918">
        <ele>47.5</ele>
        <time>2016-07-07T08:18:31Z</time>
      </trkpt>
      <trkpt lat="48.5556" lon="-2.59928">
        <ele>47.3</ele>
        <time>2016-07-07T08:18:40Z</time>
      </trkpt>
      <trkpt lat="48.55556" lon="-2.59941">
        <ele>47</ele>
        <time>2016-07-07T08:18:48Z</time>
      </trkpt>
      <trkpt lat="48.55552" lon="-2.59955">
        <ele>46.3</ele>
        <time>2016-07-07T08:18:58Z</time>
      </trkpt>
      <trkpt lat="48.55543" lon="-2.59961">
        <ele>45.6</ele>
        <time>2016-07-07T08:19:06Z</time>
      </trkpt>
      <trkpt lat="48.55532" lon="-2.59964">
        <ele>45.4</ele>
        <time>2016-07-07T08:19:15Z</time>
      </trkpt>
      <trkpt lat="48.55524" lon="-2.59971">
        <ele>46.1</ele>
        <time>2016-07-07T08:19:22Z</time>
      </trkpt>
      <trkpt lat="48.55516" lon="-2.59978">
        <ele>46.7</ele>
        <time>2016-07-07T08:19:29Z</time>
      </trkpt>
      <trkpt lat="48.55508" lon="-2.59985">
        <ele>47.8</ele>
        <time>2016-07-07T08:19:50Z</time>
      </trkpt>
      <trkpt lat="48.55499" lon="-2.59992">
        <ele>47.6</ele>
        <time>2016-07-07T08:19:59Z</time>
      </trkpt>
      <trkpt lat="48.55491" lon="-2.60001">
        <ele>48.3</ele>
        <time>2016-07-07T08:20:06Z</time>
      </trkpt>
      <trkpt lat="48.55485" lon="-2.60011">
        <ele>49.4</ele>
        <time>2016-07-07T08:20:15Z</time>
      </trkpt>
      <trkpt lat="48.55481" lon="-2.60024">
        <ele>48.8</ele>
        <time>2016-07-07T08:20:23Z</time>
      </trkpt>
      <trkpt lat="48.55476" lon="-2.60036">
        <ele>48.3</ele>
        <time>2016-07-07T08:20:32Z</time>
      </trkpt>
      <trkpt lat="48.5547" lon="-2.60047">
        <ele>48</ele>
        <time>2016-07-07T08:20:40Z</time>
      </trkpt>
      <trkpt lat="48.55466" lon="-2.60059">
        <ele>47.2</ele>
        <time>2016-07-07T08:20:51Z</time>
      </trkpt>
      <trkpt lat="48.55458" lon="-2.60065">
        <ele>45.9</ele>
        <time>2016-07-07T08:21:00Z</time>
      </trkpt>
      <trkpt lat="48.55449" lon="-2.60069">
        <ele>44.6</ele>
        <time>2016-07-07T08:21:08Z</time>
      </trkpt>
      <trkpt lat="48.5544" lon="-2.60072">
        <ele>42.9</ele>
        <time>2016-07-07T08:21:16Z</time>
      </trkpt>
      <trkpt lat="48.55431" lon="-2.60078">
        <ele>43.2</ele>
        <time>2016-07-07T08:21:25Z</time>
      </trkpt>
      <trkpt lat="48.55422" lon="-2.60083">
        <ele>42.8</ele>
        <time>2016-07-07T08:21:32Z</time>
      </trkpt>
      <trkpt lat="48.55413" lon="-2.60087">
        <ele>40.5</ele>
        <time>2016-07-07T08:22:06Z</time>
      </trkpt>
      <trkpt lat="48.55403" lon="-2.60091">
        <ele>40.1</ele>
        <time>2016-07-07T08:22:14Z</time>
      </trkpt>
      <trkpt lat="48.55396" lon="-2.60101">
        <ele>38.8</ele>
        <time>2016-07-07T08:22:22Z</time>
      </trkpt>
      <trkpt lat="48.55388" lon="-2.6011">
        <ele>40.6</ele>
        <time>2016-07-07T08:22:35Z</time>
      </trkpt>
      <trkpt lat="48.55382" lon="-2.60121">
        <ele>43.4</ele>
        <time>2016-07-07T08:22:54Z</time>
      </trkpt>
      <trkpt lat="48.55373" lon="-2.60124">
        <ele>45.6</ele>
        <time>2016-07-07T08:23:07Z</time>
      </trkpt>
      <trkpt lat="48.55364" lon="-2.60129">
        <ele>48.7</ele>
        <time>2016-07-07T08:23:25Z</time>
      </trkpt>
      <trkpt lat="48.55358" lon="-2.60138">
        <ele>49.5</ele>
        <time>2016-07-07T08:23:36Z</time>
      </trkpt>
      <trkpt lat="48.55355" lon="-2.60153">
        <ele>50</ele>
        <time>2016-07-07T08:24:10Z</time>
      </trkpt>
      <trkpt lat="48.55349" lon="-2.60166">
        <ele>48.7</ele>
        <time>2016-07-07T08:24:20Z</time>
      </trkpt>
      <trkpt lat="48.55344" lon="-2.60178">
        <ele>49.8</ele>
        <time>2016-07-07T08:24:29Z</time>
      </trkpt>
      <trkpt lat="48.55338" lon="-2.60188">
        <ele>49.3</ele>
        <time>2016-07-07T08:24:39Z</time>
      </trkpt>
      <trkpt lat="48.55336" lon="-2.60202">
        <ele>47.8</ele>
        <time>2016-07-07T08:24:55Z</time>
      </trkpt>
      <trkpt lat="48.55332" lon="-2.60215">
        <ele>46.3</ele>
        <time>2016-07-07T08:25:04Z</time>
      </trkpt>
      <trkpt lat="48.55331" lon="-2.60229">
        <ele>45.6</ele>
        <time>2016-07-07T08:25:11Z</time>
      </trkpt>
      <trkpt lat="48.55328" lon="-2.60243">
        <ele>45.2</ele>
        <time>2016-07-07T08:25:18Z</time>
      </trkpt>
      <trkpt lat="48.55327" lon="-2.60259">
        <ele>45.6</ele>
        <time>2016-07-07T08:25:33Z</time>
      </trkpt>
      <trkpt lat="48.55326" lon="-2.60273">
        <ele>45.9</ele>
        <time>2016-07-07T08:25:42Z</time>
      </trkpt>
      <trkpt lat="48.55323" lon="-2.60289">
        <ele>45.3</ele>
        <time>2016-07-07T08:25:49Z</time>
      </trkpt>
      <trkpt lat="48.5532" lon="-2.60302">
        <ele>46.3</ele>
        <time>2016-07-07T08:25:56Z</time>
      </trkpt>
      <trkpt lat="48.55316" lon="-2.60315">
        <ele>46.2</ele>
        <time>2016-07-07T08:26:04Z</time>
      </trkpt>
      <trkpt lat="48.5531" lon="-2.60327">
        <ele>45.9</ele>
        <time>2016-07-07T08:26:12Z</time>
      </trkpt>
      <trkpt lat="48.55307" lon="-2.60341">
        <ele>45.2</ele>
        <time>2016-07-07T08:26:21Z</time>
      </trkpt>
      <trkpt lat="48.55305" lon="-2.60355">
        <ele>45.2</ele>
        <time>2016-07-07T08:26:30Z</time>
      </trkpt>
      <trkpt lat="48.55305" lon="-2.60369">
        <ele>43.8</ele>
        <time>2016-07-07T08:26:43Z</time>
      </trkpt>
      <trkpt lat="48.55304" lon="-2.60384">
        <ele>42.3</ele>
        <time>2016-07-07T08:26:54Z</time>
      </trkpt>
      <trkpt lat="48.55299" lon="-2.60397">
        <ele>42.2</ele>
        <time>2016-07-07T08:27:02Z</time>
      </trkpt>
      <trkpt lat="48.55292" lon="-2.60407">
        <ele>41.2</ele>
        <time>2016-07-07T08:27:11Z</time>
      </trkpt>
      <trkpt lat="48.55283" lon="-2.60413">
        <ele>42.2</ele>
        <time>2016-07-07T08:27:20Z</time>
      </trkpt>
      <trkpt lat="48.55274" lon="-2.60418">
        <ele>42.7</ele>
        <time>2016-07-07T08:27:29Z</time>
      </trkpt>
      <trkpt lat="48.55266" lon="-2.60427">
        <ele>44.3</ele>
        <time>2016-07-07T08:27:39Z</time>
      </trkpt>
      <trkpt lat="48.5526" lon="-2.60438">
        <ele>45.1</ele>
        <time>2016-07-07T08:28:20Z</time>
      </trkpt>
      <trkpt lat="48.55252" lon="-2.60447">
        <ele>44.7</ele>
        <time>2016-07-07T08:28:32Z</time>
      </trkpt>
      <trkpt lat="48.55243" lon="-2.60453">
        <ele>44.3</ele>
        <time>2016-07-07T08:28:43Z</time>
      </trkpt>
      <trkpt lat="48.55234" lon="-2.6045">
        <ele>42.4</ele>
        <time>2016-07-07T08:28:51Z</time>
      </trkpt>
      <trkpt lat="48.55225" lon="-2.60455">
        <ele>42.6</ele>
        <time>2016-07-07T08:28:59Z</time>
      </trkpt>
      <trkpt lat="48.55217" lon="-2.60463">
        <ele>42.1</ele>
        <time>2016-07-07T08:29:08Z</time>
      </trkpt>
      <trkpt lat="48.55212" lon="-2.60475">
        <ele>42.7</ele>
        <time>2016-07-07T08:29:18Z</time>
      </trkpt>
      <trkpt lat="48.55206" lon="-2.60485">
        <ele>42</ele>
        <time>2016-07-07T08:29:26Z</time>
      </trkpt>
      <trkpt lat="48.552" lon="-2.60497">
        <ele>42.2</ele>
        <time>2016-07-07T08:29:34Z</time>
      </trkpt>
      <trkpt lat="48.55199" lon="-2.60511">
        <ele>41.4</ele>
        <time>2016-07-07T08:29:46Z</time>
      </trkpt>
      <trkpt lat="48.55191" lon="-2.6052">
        <ele>41.1</ele>
        <time>2016-07-07T08:29:54Z</time>
      </trkpt>
      <trkpt lat="48.55183" lon="-2.60526">
        <ele>40.2</ele>
        <time>2016-07-07T08:30:00Z</time>
      </trkpt>
      <trkpt lat="48.55173" lon="-2.60528">
        <ele>40.3</ele>
        <time>2016-07-07T08:30:08Z</time>
      </trkpt>
      <trkpt lat="48.55164" lon="-2.60528">
        <ele>40.8</ele>
        <time>2016-07-07T08:30:16Z</time>
      </trkpt>
      <trkpt lat="48.55154" lon="-2.60531">
        <ele>40.1</ele>
        <time>2016-07-07T08:30:24Z</time>
      </trkpt>
      <trkpt lat="48.55145" lon="-2.60529">
        <ele>41.5</ele>
        <time>2016-07-07T08:30:38Z</time>
      </trkpt>
      <trkpt lat="48.55138" lon="-2.6052">
        <ele>42.9</ele>
        <time>2016-07-07T08:30:46Z</time>
      </trkpt>
      <trkpt lat="48.5513" lon="-2.60513">
        <ele>44.9</ele>
        <time>2016-07-07T08:30:54Z</time>
      </trkpt>
      <trkpt lat="48.55126" lon="-2.60499">
        <ele>46.1</ele>
        <time>2016-07-07T08:31:05Z</time>
      </trkpt>
      <trkpt lat="48.5512" lon="-2.60487">
        <ele>45.4</ele>
        <time>2016-07-07T08:31:19Z</time>
      </trkpt>
      <trkpt lat="48.55115" lon="-2.60476">
        <ele>43.6</ele>
        <time>2016-07-07T08:31:35Z</time>
      </trkpt>
      <trkpt lat="48.55112" lon="-2.60463">
        <ele>41.9</ele>
        <time>2016-07-07T08:31:49Z</time>
      </trkpt>
      <trkpt lat="48.55109" lon="-2.60449">
        <ele>39.9</ele>
        <time>2016-07-07T08:32:02Z</time>
      </trkpt>
      <trkpt lat="48.55106" lon="-2.60435">
        <ele>40</ele>
        <time>2016-07-07T08:32:12Z</time>
      </trkpt>
      <trkpt lat="48.55105" lon="-2.60421">
        <ele>40.2</ele>
        <time>2016-07-07T08:32:20Z</time>
      </trkpt>
      <trkpt lat="48.55108" lon="-2.60409">
        <ele>42.7</ele>
        <time>2016-07-07T08:32:35Z</time>
      </trkpt>
      <trkpt lat="48.55106" lon="-2.60395">
        <ele>45.4</ele>
        <time>2016-07-07T08:32:50Z</time>
      </trkpt>
      <trkpt lat="48.55107" lon="-2.60381">
        <ele>45.8</ele>
        <time>2016-07-07T08:34:13Z</time>
      </trkpt>
      <trkpt lat="48.551" lon="-2.60371">
        <ele>43.5</ele>
        <time>2016-07-07T08:34:27Z</time>
      </trkpt>
      <trkpt lat="48.55093" lon="-2.60362">
        <ele>41.5</ele>
        <time>2016-07-07T08:34:39Z</time>
      </trkpt>
      <trkpt lat="48.55091" lon="-2.60348">
        <ele>40.1</ele>
        <time>2016-07-07T08:35:24Z</time>
      </trkpt>
      <trkpt lat="48.55092" lon="-2.60334">
        <ele>38.7</ele>
        <time>2016-07-07T08:35:33Z</time>
      </trkpt>
      <trkpt lat="48.55083" lon="-2.60341">
        <ele>36.3</ele>
        <time>2016-07-07T08:35:45Z</time>
      </trkpt>
      <trkpt lat="48.55076" lon="-2.60351">
        <ele>35</ele>
        <time>2016-07-07T08:35:57Z</time>
      </trkpt>
      <trkpt lat="48.55072" lon="-2.60364">
        <ele>33.2</ele>
        <time>2016-07-07T08:36:05Z</time>
      </trkpt>
      <trkpt lat="48.55068" lon="-2.60377">
        <ele>30.9</ele>
        <time>2016-07-07T08:36:17Z</time>
      </trkpt>
      <trkpt lat="48.55066" lon="-2.60391">
        <ele>28.8</ele>
        <time>2016-07-07T08:36:27Z</time>
      </trkpt>
      <trkpt lat="48.55062" lon="-2.60404">
        <ele>27.8</ele>
        <time>2016-07-07T08:36:35Z</time>
      </trkpt>
      <trkpt lat="48.55057" lon="-2.60415">
        <ele>26.6</ele>
        <time>2016-07-07T08:36:44Z</time>
      </trkpt>
      <trkpt lat="48.55049" lon="-2.60423">
        <ele>26.3</ele>
        <time>2016-07-07T08:36:53Z</time>
      </trkpt>
      <trkpt lat="48.5504" lon="-2.60427">
        <ele>26.2</ele>
        <time>2016-07-07T08:37:02Z</time>
      </trkpt>
      <trkpt lat="48.55031" lon="-2.60429">
        <ele>25.3</ele>
        <time>2016-07-07T08:38:53Z</time>
      </trkpt>
      <trkpt lat="48.55022" lon="-2.60436">
        <ele>25.6</ele>
        <time>2016-07-07T08:39:01Z</time>
      </trkpt>
      <trkpt lat="48.55018" lon="-2.60449">
        <ele>27.8</ele>
        <time>2016-07-07T08:39:45Z</time>
      </trkpt>
      <trkpt lat="48.55025" lon="-2.6046">
        <ele>28.3</ele>
        <time>2016-07-07T08:39:56Z</time>
      </trkpt>
      <trkpt lat="48.55032" lon="-2.6047">
        <ele>28.8</ele>
        <time>2016-07-07T08:40:03Z</time>
      </trkpt>
      <trkpt lat="48.55038" lon="-2.60481">
        <ele>28.8</ele>
        <time>2016-07-07T08:40:10Z</time>
      </trkpt>
      <trkpt lat="48.55039" lon="-2.60495">
        <ele>28.9</ele>
        <time>2016-07-07T08:40:19Z</time>
      </trkpt>
      <trkpt lat="48.5504" lon="-2.6051">
        <ele>29.3</ele>
        <time>2016-07-07T08:40:30Z</time>
      </trkpt>
      <trkpt lat="48.55039" lon="-2.60525">
        <ele>30</ele>
        <time>2016-07-07T08:40:43Z</time>
      </trkpt>
      <trkpt lat="48.55041" lon="-2.60539">
        <ele>30.8</ele>
        <time>2016-07-07T08:40:52Z</time>
      </trkpt>
      <trkpt lat="48.55042" lon="-2.60554">
        <ele>31.7</ele>
        <time>2016-07-07T08:41:04Z</time>
      </trkpt>
      <trkpt lat="48.55042" lon="-2.60567">
        <ele>32.4</ele>
        <time>2016-07-07T08:41:15Z</time>
      </trkpt>
      <trkpt lat="48.55043" lon="-2.60581">
        <ele>33.3</ele>
        <time>2016-07-07T08:41:25Z</time>
      </trkpt>
      <trkpt lat="48.55046" lon="-2.60596">
        <ele>33</ele>
        <time>2016-07-07T08:41:33Z</time>
      </trkpt>
      <trkpt lat="48.55052" lon="-2.60607">
        <ele>32.4</ele>
        <time>2016-07-07T08:41:41Z</time>
      </trkpt>
      <trkpt lat="48.55054" lon="-2.6062">
        <ele>31.9</ele>
        <time>2016-07-07T08:41:51Z</time>
      </trkpt>
      <trkpt lat="48.55055" lon="-2.60635">
        <ele>32.2</ele>
        <time>2016-07-07T08:42:00Z</time>
      </trkpt>
      <trkpt lat="48.5506" lon="-2.60648">
        <ele>33.2</ele>
        <time>2016-07-07T08:42:10Z</time>
      </trkpt>
      <trkpt lat="48.55064" lon="-2.60661">
        <ele>34.7</ele>
        <time>2016-07-07T08:42:24Z</time>
      </trkpt>
      <trkpt lat="48.55068" lon="-2.60673">
        <ele>36.6</ele>
        <time>2016-07-07T08:42:33Z</time>
      </trkpt>
      <trkpt lat="48.55067" lon="-2.60687">
        <ele>38</ele>
        <time>2016-07-07T08:42:47Z</time>
      </trkpt>
      <trkpt lat="48.55061" lon="-2.60697">
        <ele>40.3</ele>
        <time>2016-07-07T08:42:57Z</time>
      </trkpt>
      <trkpt lat="48.5506" lon="-2.60711">
        <ele>41.3</ele>
        <time>2016-07-07T08:43:08Z</time>
      </trkpt>
      <trkpt lat="48.55055" lon="-2.60724">
        <ele>41.6</ele>
        <time>2016-07-07T08:43:26Z</time>
      </trkpt>
      <trkpt lat="48.55047" lon="-2.60733">
        <ele>42.2</ele>
        <time>2016-07-07T08:43:36Z</time>
      </trkpt>
      <trkpt lat="48.55041" lon="-2.60744">
        <ele>44.1</ele>
        <time>2016-07-07T08:43:45Z</time>
      </trkpt>
      <trkpt lat="48.55035" lon="-2.60755">
        <ele>44.3</ele>
        <time>2016-07-07T08:43:53Z</time>
      </trkpt>
      <trkpt lat="48.5503" lon="-2.60768">
        <ele>45</ele>
        <time>2016-07-07T08:44:03Z</time>
      </trkpt>
      <trkpt lat="48.55027" lon="-2.60782">
        <ele>45.3</ele>
        <time>2016-07-07T08:44:43Z</time>
      </trkpt>
      <trkpt lat="48.55022" lon="-2.60794">
        <ele>45.9</ele>
        <time>2016-07-07T08:44:54Z</time>
      </trkpt>
      <trkpt lat="48.55019" lon="-2.60808">
        <ele>44.9</ele>
        <time>2016-07-07T08:45:29Z</time>
      </trkpt>
      <trkpt lat="48.55014" lon="-2.60819">
        <ele>44.8</ele>
        <time>2016-07-07T08:45:37Z</time>
      </trkpt>
      <trkpt lat="48.5501" lon="-2.60832">
        <ele>45.7</ele>
        <time>2016-07-07T08:45:47Z</time>
      </trkpt>
      <trkpt lat="48.55005" lon="-2.60846">
        <ele>46.4</ele>
        <time>2016-07-07T08:45:58Z</time>
      </trkpt>
      <trkpt lat="48.54999" lon="-2.60855">
        <ele>46.6</ele>
        <time>2016-07-07T08:46:06Z</time>
      </trkpt>
      <trkpt lat="48.5499" lon="-2.60861">
        <ele>46.8</ele>
        <time>2016-07-07T08:46:15Z</time>
      </trkpt>
      <trkpt lat="48.54983" lon="-2.6087">
        <ele>47.8</ele>
        <time>2016-07-07T08:46:24Z</time>
      </trkpt>
      <trkpt lat="48.54977" lon="-2.60881">
        <ele>48.3</ele>
        <time>2016-07-07T08:46:31Z</time>
      </trkpt>
      <trkpt lat="48.54975" lon="-2.60895">
        <ele>48.5</ele>
        <time>2016-07-07T08:46:41Z</time>
      </trkpt>
      <trkpt lat="48.54976" lon="-2.60909">
        <ele>48</ele>
        <time>2016-07-07T08:46:49Z</time>
      </trkpt>
      <trkpt lat="48.54975" lon="-2.60923">
        <ele>45.8</ele>
        <time>2016-07-07T08:47:02Z</time>
      </trkpt>
      <trkpt lat="48.54974" lon="-2.60938">
        <ele>44.2</ele>
        <time>2016-07-07T08:47:14Z</time>
      </trkpt>
      <trkpt lat="48.5498" lon="-2.6095">
        <ele>42.8</ele>
        <time>2016-07-07T08:47:23Z</time>
      </trkpt>
      <trkpt lat="48.54988" lon="-2.60958">
        <ele>41</ele>
        <time>2016-07-07T08:47:34Z</time>
      </trkpt>
      <trkpt lat="48.54995" lon="-2.60968">
        <ele>41.2</ele>
        <time>2016-07-07T08:47:42Z</time>
      </trkpt>
      <trkpt lat="48.55002" lon="-2.60977">
        <ele>40.3</ele>
        <time>2016-07-07T08:47:50Z</time>
      </trkpt>
      <trkpt lat="48.55" lon="-2.60991">
        <ele>40</ele>
        <time>2016-07-07T08:47:59Z</time>
      </trkpt>
      <trkpt lat="48.54991" lon="-2.60996">
        <ele>39.6</ele>
        <time>2016-07-07T08:48:25Z</time>
      </trkpt>
      <trkpt lat="48.54984" lon="-2.61007">
        <ele>41.5</ele>
        <time>2016-07-07T08:48:33Z</time>
      </trkpt>
      <trkpt lat="48.54977" lon="-2.61016">
        <ele>40.7</ele>
        <time>2016-07-07T08:48:40Z</time>
      </trkpt>
      <trkpt lat="48.5497" lon="-2.61026">
        <ele>40.6</ele>
        <time>2016-07-07T08:48:47Z</time>
      </trkpt>
      <trkpt lat="48.54962" lon="-2.61034">
        <ele>40.5</ele>
        <time>2016-07-07T08:48:55Z</time>
      </trkpt>
      <trkpt lat="48.54954" lon="-2.61037">
        <ele>41</ele>
        <time>2016-07-07T08:49:03Z</time>
      </trkpt>
      <trkpt lat="48.54944" lon="-2.61038">
        <ele>41.1</ele>
        <time>2016-07-07T08:49:12Z</time>
      </trkpt>
      <trkpt lat="48.54934" lon="-2.6104">
        <ele>42</ele>
        <time>2016-07-07T08:49:22Z</time>
      </trkpt>
      <trkpt lat="48.54924" lon="-2.61046">
        <ele>43.1</ele>
        <time>2016-07-07T08:49:39Z</time>
      </trkpt>
      <trkpt lat="48.54915" lon="-2.61049">
        <ele>42.8</ele>
        <time>2016-07-07T08:49:48Z</time>
      </trkpt>
      <trkpt lat="48.54905" lon="-2.61051">
        <ele>42.5</ele>
        <time>2016-07-07T08:49:57Z</time>
      </trkpt>
      <trkpt lat="48.54897" lon="-2.61055">
        <ele>43.5</ele>
        <time>2016-07-07T08:50:05Z</time>
      </trkpt>
      <trkpt lat="48.54887" lon="-2.61057">
        <ele>44</ele>
        <time>2016-07-07T08:50:14Z</time>
      </trkpt>
      <trkpt lat="48.54877" lon="-2.61059">
        <ele>43.6</ele>
        <time>2016-07-07T08:50:23Z</time>
      </trkpt>
      <trkpt lat="48.54868" lon="-2.61058">
        <ele>43.4</ele>
        <time>2016-07-07T08:50:31Z</time>
      </trkpt>
      <trkpt lat="48.54858" lon="-2.61058">
        <ele>44.6</ele>
        <time>2016-07-07T08:50:42Z</time>
      </trkpt>
      <trkpt lat="48.5485" lon="-2.61066">
        <ele>45.3</ele>
        <time>2016-07-07T08:50:50Z</time>
      </trkpt>
      <trkpt lat="48.54844" lon="-2.61076">
        <ele>45.8</ele>
        <time>2016-07-07T08:50:58Z</time>
      </trkpt>
      <trkpt lat="48.54838" lon="-2.61088">
        <ele>44.5</ele>
        <time>2016-07-07T08:51:07Z</time>
      </trkpt>
      <trkpt lat="48.54831" lon="-2.61097">
        <ele>45.2</ele>
        <time>2016-07-07T08:51:16Z</time>
      </trkpt>
      <trkpt lat="48.54825" lon="-2.61107">
        <ele>46.2</ele>
        <time>2016-07-07T08:51:24Z</time>
      </trkpt>
      <trkpt lat="48.54821" lon="-2.6112">
        <ele>46.2</ele>
        <time>2016-07-07T08:51:35Z</time>
      </trkpt>
      <trkpt lat="48.5482" lon="-2.61135">
        <ele>44.9</ele>
        <time>2016-07-07T08:51:45Z</time>
      </trkpt>
      <trkpt lat="48.54819" lon="-2.61151">
        <ele>44.1</ele>
        <time>2016-07-07T08:51:54Z</time>
      </trkpt>
      <trkpt lat="48.54819" lon="-2.61164">
        <ele>44.8</ele>
        <time>2016-07-07T08:52:04Z</time>
      </trkpt>
      <trkpt lat="48.54815" lon="-2.61179">
        <ele>45.5</ele>
        <time>2016-07-07T08:52:14Z</time>
      </trkpt>
      <trkpt lat="48.54814" lon="-2.61194">
        <ele>47.5</ele>
        <time>2016-07-07T08:52:24Z</time>
      </trkpt>
      <trkpt lat="48.54807" lon="-2.61203">
        <ele>49.2</ele>
        <time>2016-07-07T08:52:36Z</time>
      </trkpt>
      <trkpt lat="48.54798" lon="-2.6121">
        <ele>49.5</ele>
        <time>2016-07-07T08:52:46Z</time>
      </trkpt>
      <trkpt lat="48.54789" lon="-2.61216">
        <ele>48.8</ele>
        <time>2016-07-07T08:52:56Z</time>
      </trkpt>
      <trkpt lat="48.54785" lon="-2.61228">
        <ele>49.5</ele>
        <time>2016-07-07T08:53:48Z</time>
      </trkpt>
      <trkpt lat="48.54779" lon="-2.6124">
        <ele>48</ele>
        <time>2016-07-07T08:53:54Z</time>
      </trkpt>
      <trkpt lat="48.54771" lon="-2.6125">
        <ele>47.4</ele>
        <time>2016-07-07T08:54:00Z</time>
      </trkpt>
      <trkpt lat="48.54763" lon="-2.61258">
        <ele>48.4</ele>
        <time>2016-07-07T08:54:08Z</time>
      </trkpt>
      <trkpt lat="48.54757" lon="-2.61268">
        <ele>48.3</ele>
        <time>2016-07-07T08:54:15Z</time>
      </trkpt>
      <trkpt lat="48.5475" lon="-2.61277">
        <ele>45.7</ele>
        <time>2016-07-07T08:54:31Z</time>
      </trkpt>
      <trkpt lat="48.54743" lon="-2.61288">
        <ele>45.4</ele>
        <time>2016-07-07T08:54:39Z</time>
      </trkpt>
      <trkpt lat="48.54734" lon="-2.61286">
        <ele>44.1</ele>
        <time>2016-07-07T08:54:49Z</time>
      </trkpt>
      <trkpt lat="48.54727" lon="-2.61295">
        <ele>42.7</ele>
        <time>2016-07-07T08:54:59Z</time>
      </trkpt>
      <trkpt lat="48.54725" lon="-2.61311">
        <ele>39.8</ele>
        <time>2016-07-07T08:55:14Z</time>
      </trkpt>
      <trkpt lat="48.54722" lon="-2.61325">
        <ele>39.3</ele>
        <time>2016-07-07T08:55:26Z</time>
      </trkpt>
      <trkpt lat="48.54723" lon="-2.61339">
        <ele>39.4</ele>
        <time>2016-07-07T08:55:35Z</time>
      </trkpt>
      <trkpt lat="48.54715" lon="-2.61346">
        <ele>41.3</ele>
        <time>2016-07-07T08:55:51Z</time>
      </trkpt>
      <trkpt lat="48.54706" lon="-2.61345">
        <ele>44.1</ele>
        <time>2016-07-07T08:56:06Z</time>
      </trkpt>
      <trkpt lat="48.54697" lon="-2.61349">
        <ele>44.6</ele>
        <time>2016-07-07T08:56:19Z</time>
      </trkpt>
      <trkpt lat="48.5469" lon="-2.61359">
        <ele>43.5</ele>
        <time>2016-07-07T08:56:34Z</time>
      </trkpt>
      <trkpt lat="48.54682" lon="-2.61366">
        <ele>41.5</ele>
        <time>2016-07-07T08:57:02Z</time>
      </trkpt>
      <trkpt lat="48.54675" lon="-2.61374">
        <ele>44.7</ele>
        <time>2016-07-07T08:57:09Z</time>
      </trkpt>
      <trkpt lat="48.54665" lon="-2.61372">
        <ele>43.4</ele>
        <time>2016-07-07T08:57:21Z</time>
      </trkpt>
      <trkpt lat="48.54656" lon="-2.61371">
        <ele>43.2</ele>
        <time>2016-07-07T08:57:31Z</time>
      </trkpt>
      <trkpt lat="48.54647" lon="-2.61378">
        <ele>43.3</ele>
        <time>2016-07-07T08:57:39Z</time>
      </trkpt>
      <trkpt lat="48.5464" lon="-2.61386">
        <ele>43</ele>
        <time>2016-07-07T08:57:46Z</time>
      </trkpt>
      <trkpt lat="48.54631" lon="-2.61392">
        <ele>44</ele>
        <time>2016-07-07T08:57:57Z</time>
      </trkpt>
      <trkpt lat="48.54623" lon="-2.614">
        <ele>46.1</ele>
        <time>2016-07-07T08:58:10Z</time>
      </trkpt>
      <trkpt lat="48.54619" lon="-2.61412">
        <ele>47.7</ele>
        <time>2016-07-07T08:58:24Z</time>
      </trkpt>
      <trkpt lat="48.54617" lon="-2.61428">
        <ele>47.5</ele>
        <time>2016-07-07T08:58:37Z</time>
      </trkpt>
      <trkpt lat="48.54616" lon="-2.61442">
        <ele>48.1</ele>
        <time>2016-07-07T08:58:48Z</time>
      </trkpt>
      <trkpt lat="48.54615" lon="-2.61457">
        <ele>46.7</ele>
        <time>2016-07-07T08:58:56Z</time>
      </trkpt>
      <trkpt lat="48.54615" lon="-2.61471">
        <ele>46.2</ele>
        <time>2016-07-07T08:59:06Z</time>
      </trkpt>
      <trkpt lat="48.54616" lon="-2.61485">
        <ele>45.2</ele>
        <time>2016-07-07T08:59:17Z</time>
      </trkpt>
      <trkpt lat="48.54613" lon="-2.61499">
        <ele>46.1</ele>
        <time>2016-07-07T08:59:28Z</time>
      </trkpt>
      <trkpt lat="48.54608" lon="-2.61512">
        <ele>45.7</ele>
        <time>2016-07-07T08:59:36Z</time>
      </trkpt>
      <trkpt lat="48.54603" lon="-2.61523">
        <ele>45.3</ele>
        <time>2016-07-07T08:59:45Z</time>
      </trkpt>
      <trkpt lat="48.54595" lon="-2.6153">
        <ele>44.7</ele>
        <time>2016-07-07T08:59:56Z</time>
      </trkpt>
      <trkpt lat="48.54587" lon="-2.61537">
        <ele>45.7</ele>
        <time>2016-07-07T09:00:05Z</time>
      </trkpt>
      <trkpt lat="48.54578" lon="-2.61543">
        <ele>45.9</ele>
        <time>2016-07-07T09:00:17Z</time>
      </trkpt>
      <trkpt lat="48.5457" lon="-2.61549">
        <ele>46.5</ele>
        <time>2016-07-07T09:00:27Z</time>
      </trkpt>
      <trkpt lat="48.54562" lon="-2.61558">
        <ele>48</ele>
        <time>2016-07-07T09:00:40Z</time>
      </trkpt>
      <trkpt lat="48.54554" lon="-2.61564">
        <ele>47.7</ele>
        <time>2016-07-07T09:01:04Z</time>
      </trkpt>
      <trkpt lat="48.54546" lon="-2.61576">
        <ele>47.2</ele>
        <time>2016-07-07T09:01:10Z</time>
      </trkpt>
      <trkpt lat="48.54538" lon="-2.61582">
        <ele>47.4</ele>
        <time>2016-07-07T09:01:19Z</time>
      </trkpt>
      <trkpt lat="48.54531" lon="-2.61591">
        <ele>48.6</ele>
        <time>2016-07-07T09:01:29Z</time>
      </trkpt>
      <trkpt lat="48.54524" lon="-2.616">
        <ele>49.6</ele>
        <time>2016-07-07T09:01:37Z</time>
      </trkpt>
      <trkpt lat="48.54517" lon="-2.6161">
        <ele>49.6</ele>
        <time>2016-07-07T09:01:47Z</time>
      </trkpt>
      <trkpt lat="48.54511" lon="-2.6162">
        <ele>48.9</ele>
        <time>2016-07-07T09:01:57Z</time>
      </trkpt>
      <trkpt lat="48.54505" lon="-2.61632">
        <ele>49.5</ele>
        <time>2016-07-07T09:02:06Z</time>
      </trkpt>
      <trkpt lat="48.54498" lon="-2.61642">
        <ele>49.3</ele>
        <time>2016-07-07T09:02:14Z</time>
      </trkpt>
      <trkpt lat="48.54489" lon="-2.61647">
        <ele>49.5</ele>
        <time>2016-07-07T09:02:22Z</time>
      </trkpt>
      <trkpt lat="48.54479" lon="-2.6165">
        <ele>48.8</ele>
        <time>2016-07-07T09:02:31Z</time>
      </trkpt>
      <trkpt lat="48.54479" lon="-2.61664">
        <ele>44.1</ele>
        <time>2016-07-07T09:03:31Z</time>
      </trkpt>
      <trkpt lat="48.54471" lon="-2.6167">
        <ele>42</ele>
        <time>2016-07-07T09:03:45Z</time>
      </trkpt>
      <trkpt lat="48.54468" lon="-2.61683">
        <ele>38.2</ele>
        <time>2016-07-07T09:04:12Z</time>
      </trkpt>
      <trkpt lat="48.54475" lon="-2.61691">
        <ele>34.8</ele>
        <time>2016-07-07T09:04:31Z</time>
      </trkpt>
      <trkpt lat="48.54483" lon="-2.61698">
        <ele>32</ele>
        <time>2016-07-07T09:04:55Z</time>
      </trkpt>
      <trkpt lat="48.54475" lon="-2.61705">
        <ele>27.1</ele>
        <time>2016-07-07T09:05:22Z</time>
      </trkpt>
      <trkpt lat="48.54478" lon="-2.61719">
        <ele>25.7</ele>
        <time>2016-07-07T09:05:36Z</time>
      </trkpt>
      <trkpt lat="48.54482" lon="-2.61731">
        <ele>21.1</ele>
        <time>2016-07-07T09:06:17Z</time>
      </trkpt>
      <trkpt lat="48.54484" lon="-2.61745">
        <ele>17.9</ele>
        <time>2016-07-07T09:07:59Z</time>
      </trkpt>
      <trkpt lat="48.54474" lon="-2.61746">
        <ele>22</ele>
        <time>2016-07-07T09:08:38Z</time>
      </trkpt>
      <trkpt lat="48.54465" lon="-2.61747">
        <ele>25.4</ele>
        <time>2016-07-07T09:09:13Z</time>
      </trkpt>
      <trkpt lat="48.54456" lon="-2.61751">
        <ele>27</ele>
        <time>2016-07-07T09:09:36Z</time>
      </trkpt>
      <trkpt lat="48.54456" lon="-2.61764">
        <ele>29.2</ele>
        <time>2016-07-07T09:09:54Z</time>
      </trkpt>
      <trkpt lat="48.54462" lon="-2.61774">
        <ele>32.1</ele>
        <time>2016-07-07T09:10:15Z</time>
      </trkpt>
      <trkpt lat="48.54454" lon="-2.61782">
        <ele>35.4</ele>
        <time>2016-07-07T09:10:50Z</time>
      </trkpt>
      <trkpt lat="48.54445" lon="-2.6178">
        <ele>37</ele>
        <time>2016-07-07T09:11:06Z</time>
      </trkpt>
      <trkpt lat="48.54435" lon="-2.6178">
        <ele>38.4</ele>
        <time>2016-07-07T09:11:23Z</time>
      </trkpt>
      <trkpt lat="48.54443" lon="-2.61789">
        <ele>40.3</ele>
        <time>2016-07-07T09:12:04Z</time>
      </trkpt>
      <trkpt lat="48.54451" lon="-2.61796">
        <ele>42.1</ele>
        <time>2016-07-07T09:12:19Z</time>
      </trkpt>
      <trkpt lat="48.54459" lon="-2.61802">
        <ele>44.7</ele>
        <time>2016-07-07T09:12:40Z</time>
      </trkpt>
      <trkpt lat="48.54463" lon="-2.61814">
        <ele>47.1</ele>
        <time>2016-07-07T09:12:58Z</time>
      </trkpt>
      <trkpt lat="48.54461" lon="-2.61828">
        <ele>49.8</ele>
        <time>2016-07-07T09:13:36Z</time>
      </trkpt>
      <trkpt lat="48.54456" lon="-2.6184">
        <ele>51.4</ele>
        <time>2016-07-07T09:13:52Z</time>
      </trkpt>
      <trkpt lat="48.54456" lon="-2.61854">
        <ele>54.1</ele>
        <time>2016-07-07T09:14:09Z</time>
      </trkpt>
      <trkpt lat="48.54452" lon="-2.61867">
        <ele>58.6</ele>
        <time>2016-07-07T09:16:40Z</time>
      </trkpt>
      <trkpt lat="48.54445" lon="-2.61878">
        <ele>59</ele>
        <time>2016-07-07T09:16:50Z</time>
      </trkpt>
      <trkpt lat="48.54438" lon="-2.61888">
        <ele>58.5</ele>
        <time>2016-07-07T09:16:58Z</time>
      </trkpt>
      <trkpt lat="48.54431" lon="-2.61898">
        <ele>56.7</ele>
        <time>2016-07-07T09:17:08Z</time>
      </trkpt>
      <trkpt lat="48.54425" lon="-2.61909">
        <ele>54.7</ele>
        <time>2016-07-07T09:17:21Z</time>
      </trkpt>
      <trkpt lat="48.54418" lon="-2.6192">
        <ele>53.7</ele>
        <time>2016-07-07T09:17:30Z</time>
      </trkpt>
      <trkpt lat="48.54413" lon="-2.61931">
        <ele>53.9</ele>
        <time>2016-07-07T09:17:38Z</time>
      </trkpt>
      <trkpt lat="48.54407" lon="-2.61942">
        <ele>53.8</ele>
        <time>2016-07-07T09:17:45Z</time>
      </trkpt>
      <trkpt lat="48.54401" lon="-2.61953">
        <ele>54.2</ele>
        <time>2016-07-07T09:17:53Z</time>
      </trkpt>
      <trkpt lat="48.54394" lon="-2.61965">
        <ele>54.8</ele>
        <time>2016-07-07T09:18:03Z</time>
      </trkpt>
      <trkpt lat="48.54387" lon="-2.61974">
        <ele>55.9</ele>
        <time>2016-07-07T09:18:12Z</time>
      </trkpt>
      <trkpt lat="48.5438" lon="-2.61986">
        <ele>57</ele>
        <time>2016-07-07T09:18:21Z</time>
      </trkpt>
      <trkpt lat="48.54374" lon="-2.61998">
        <ele>56.9</ele>
        <time>2016-07-07T09:18:30Z</time>
      </trkpt>
      <trkpt lat="48.54371" lon="-2.6201">
        <ele>56.7</ele>
        <time>2016-07-07T09:18:44Z</time>
      </trkpt>
      <trkpt lat="48.54367" lon="-2.62024">
        <ele>56.5</ele>
        <time>2016-07-07T09:18:55Z</time>
      </trkpt>
      <trkpt lat="48.54368" lon="-2.6204">
        <ele>57.4</ele>
        <time>2016-07-07T09:19:04Z</time>
      </trkpt>
      <trkpt lat="48.54368" lon="-2.62054">
        <ele>58</ele>
        <time>2016-07-07T09:19:13Z</time>
      </trkpt>
      <trkpt lat="48.54366" lon="-2.62068">
        <ele>58.9</ele>
        <time>2016-07-07T09:19:22Z</time>
      </trkpt>
      <trkpt lat="48.54364" lon="-2.62083">
        <ele>58.9</ele>
        <time>2016-07-07T09:19:30Z</time>
      </trkpt>
      <trkpt lat="48.54362" lon="-2.62097">
        <ele>58.4</ele>
        <time>2016-07-07T09:19:35Z</time>
      </trkpt>
      <trkpt lat="48.54365" lon="-2.62111">
        <ele>57.9</ele>
        <time>2016-07-07T09:19:45Z</time>
      </trkpt>
      <trkpt lat="48.54366" lon="-2.62125">
        <ele>57.5</ele>
        <time>2016-07-07T09:19:56Z</time>
      </trkpt>
      <trkpt lat="48.54358" lon="-2.62133">
        <ele>58.7</ele>
        <time>2016-07-07T09:20:08Z</time>
      </trkpt>
      <trkpt lat="48.54349" lon="-2.62137">
        <ele>60</ele>
        <time>2016-07-07T09:20:17Z</time>
      </trkpt>
      <trkpt lat="48.5434" lon="-2.62139">
        <ele>61.2</ele>
        <time>2016-07-07T09:20:29Z</time>
      </trkpt>
      <trkpt lat="48.54335" lon="-2.62152">
        <ele>62.1</ele>
        <time>2016-07-07T09:21:16Z</time>
      </trkpt>
      <trkpt lat="48.54327" lon="-2.62159">
        <ele>61</ele>
        <time>2016-07-07T09:21:27Z</time>
      </trkpt>
      <trkpt lat="48.54318" lon="-2.62165">
        <ele>60.3</ele>
        <time>2016-07-07T09:21:35Z</time>
      </trkpt>
      <trkpt lat="48.54309" lon="-2.62172">
        <ele>60.9</ele>
        <time>2016-07-07T09:21:43Z</time>
      </trkpt>
      <trkpt lat="48.54302" lon="-2.62182">
        <ele>59.8</ele>
        <time>2016-07-07T09:21:54Z</time>
      </trkpt>
      <trkpt lat="48.54295" lon="-2.62192">
        <ele>59.5</ele>
        <time>2016-07-07T09:22:10Z</time>
      </trkpt>
      <trkpt lat="48.5429" lon="-2.62203">
        <ele>59.4</ele>
        <time>2016-07-07T09:22:18Z</time>
      </trkpt>
      <trkpt lat="48.54286" lon="-2.62217">
        <ele>59.7</ele>
        <time>2016-07-07T09:22:30Z</time>
      </trkpt>
      <trkpt lat="48.54281" lon="-2.62228">
        <ele>60.3</ele>
        <time>2016-07-07T09:22:40Z</time>
      </trkpt>
      <trkpt lat="48.54275" lon="-2.62239">
        <ele>63</ele>
        <time>2016-07-07T09:22:54Z</time>
      </trkpt>
      <trkpt lat="48.54269" lon="-2.62252">
        <ele>63.6</ele>
        <time>2016-07-07T09:23:05Z</time>
      </trkpt>
      <trkpt lat="48.54262" lon="-2.62261">
        <ele>68.2</ele>
        <time>2016-07-07T09:24:01Z</time>
      </trkpt>
      <trkpt lat="48.54257" lon="-2.62273">
        <ele>66.9</ele>
        <time>2016-07-07T09:24:08Z</time>
      </trkpt>
      <trkpt lat="48.54253" lon="-2.62286">
        <ele>65.5</ele>
        <time>2016-07-07T09:24:15Z</time>
      </trkpt>
      <trkpt lat="48.54248" lon="-2.623">
        <ele>64.3</ele>
        <time>2016-07-07T09:24:23Z</time>
      </trkpt>
      <trkpt lat="48.54242" lon="-2.62311">
        <ele>63.7</ele>
        <time>2016-07-07T09:24:32Z</time>
      </trkpt>
      <trkpt lat="48.54236" lon="-2.62322">
        <ele>64.1</ele>
        <time>2016-07-07T09:24:41Z</time>
      </trkpt>
      <trkpt lat="48.54231" lon="-2.62335">
        <ele>64.9</ele>
        <time>2016-07-07T09:24:51Z</time>
      </trkpt>
      <trkpt lat="48.54226" lon="-2.62348">
        <ele>66.1</ele>
        <time>2016-07-07T09:24:59Z</time>
      </trkpt>
      <trkpt lat="48.54223" lon="-2.62361">
        <ele>66.5</ele>
        <time>2016-07-07T09:25:08Z</time>
      </trkpt>
      <trkpt lat="48.54216" lon="-2.62373">
        <ele>65.2</ele>
        <time>2016-07-07T09:25:17Z</time>
      </trkpt>
      <trkpt lat="48.54207" lon="-2.62381">
        <ele>64.7</ele>
        <time>2016-07-07T09:25:27Z</time>
      </trkpt>
      <trkpt lat="48.54201" lon="-2.62392">
        <ele>64.2</ele>
        <time>2016-07-07T09:25:36Z</time>
      </trkpt>
      <trkpt lat="48.54197" lon="-2.62405">
        <ele>64.5</ele>
        <time>2016-07-07T09:25:44Z</time>
      </trkpt>
      <trkpt lat="48.54192" lon="-2.62418">
        <ele>64.5</ele>
        <time>2016-07-07T09:25:52Z</time>
      </trkpt>
      <trkpt lat="48.54188" lon="-2.6243">
        <ele>64.6</ele>
        <time>2016-07-07T09:26:00Z</time>
      </trkpt>
      <trkpt lat="48.54184" lon="-2.62444">
        <ele>64.6</ele>
        <time>2016-07-07T09:26:08Z</time>
      </trkpt>
      <trkpt lat="48.54183" lon="-2.62458">
        <ele>64</ele>
        <time>2016-07-07T09:26:17Z</time>
      </trkpt>
      <trkpt lat="48.54184" lon="-2.62472">
        <ele>64.3</ele>
        <time>2016-07-07T09:26:27Z</time>
      </trkpt>
      <trkpt lat="48.54182" lon="-2.62487">
        <ele>64.3</ele>
        <time>2016-07-07T09:26:35Z</time>
      </trkpt>
      <trkpt lat="48.5418" lon="-2.625">
        <ele>64.7</ele>
        <time>2016-07-07T09:26:43Z</time>
      </trkpt>
      <trkpt lat="48.54178" lon="-2.62514">
        <ele>65.7</ele>
        <time>2016-07-07T09:26:53Z</time>
      </trkpt>
      <trkpt lat="48.54174" lon="-2.62526">
        <ele>67.1</ele>
        <time>2016-07-07T09:27:03Z</time>
      </trkpt>
      <trkpt lat="48.54168" lon="-2.62538">
        <ele>67.6</ele>
        <time>2016-07-07T09:27:31Z</time>
      </trkpt>
      <trkpt lat="48.54161" lon="-2.62546">
        <ele>67.9</ele>
        <time>2016-07-07T09:27:39Z</time>
      </trkpt>
      <trkpt lat="48.54156" lon="-2.62559">
        <ele>68.3</ele>
        <time>2016-07-07T09:27:47Z</time>
      </trkpt>
      <trkpt lat="48.54148" lon="-2.62569">
        <ele>68.1</ele>
        <time>2016-07-07T09:27:54Z</time>
      </trkpt>
      <trkpt lat="48.5414" lon="-2.62576">
        <ele>67.3</ele>
        <time>2016-07-07T09:28:02Z</time>
      </trkpt>
      <trkpt lat="48.54134" lon="-2.62587">
        <ele>67.8</ele>
        <time>2016-07-07T09:28:10Z</time>
      </trkpt>
      <trkpt lat="48.54129" lon="-2.626">
        <ele>68.6</ele>
        <time>2016-07-07T09:28:18Z</time>
      </trkpt>
      <trkpt lat="48.54123" lon="-2.62612">
        <ele>69.3</ele>
        <time>2016-07-07T09:28:27Z</time>
      </trkpt>
      <trkpt lat="48.54118" lon="-2.62623">
        <ele>69.7</ele>
        <time>2016-07-07T09:28:35Z</time>
      </trkpt>
      <trkpt lat="48.54111" lon="-2.62635">
        <ele>69.9</ele>
        <time>2016-07-07T09:28:56Z</time>
      </trkpt>
      <trkpt lat="48.54107" lon="-2.62648">
        <ele>70.2</ele>
        <time>2016-07-07T09:29:04Z</time>
      </trkpt>
      <trkpt lat="48.541" lon="-2.62656">
        <ele>70.3</ele>
        <time>2016-07-07T09:29:11Z</time>
      </trkpt>
      <trkpt lat="48.54091" lon="-2.62663">
        <ele>70.5</ele>
        <time>2016-07-07T09:29:19Z</time>
      </trkpt>
      <trkpt lat="48.54084" lon="-2.62672">
        <ele>69.9</ele>
        <time>2016-07-07T09:29:42Z</time>
      </trkpt>
      <trkpt lat="48.54078" lon="-2.62682">
        <ele>69</ele>
        <time>2016-07-07T09:29:55Z</time>
      </trkpt>
      <trkpt lat="48.54069" lon="-2.62685">
        <ele>68.5</ele>
        <time>2016-07-07T09:30:02Z</time>
      </trkpt>
      <trkpt lat="48.5406" lon="-2.62685">
        <ele>68</ele>
        <time>2016-07-07T09:30:10Z</time>
      </trkpt>
      <trkpt lat="48.5405" lon="-2.62686">
        <ele>68.3</ele>
        <time>2016-07-07T09:30:19Z</time>
      </trkpt>
      <trkpt lat="48.54042" lon="-2.62692">
        <ele>67.2</ele>
        <time>2016-07-07T09:30:28Z</time>
      </trkpt>
      <trkpt lat="48.54032" lon="-2.62693">
        <ele>65.9</ele>
        <time>2016-07-07T09:30:35Z</time>
      </trkpt>
      <trkpt lat="48.54023" lon="-2.62692">
        <ele>65.1</ele>
        <time>2016-07-07T09:30:43Z</time>
      </trkpt>
      <trkpt lat="48.54013" lon="-2.62693">
        <ele>64.9</ele>
        <time>2016-07-07T09:30:51Z</time>
      </trkpt>
      <trkpt lat="48.54004" lon="-2.62697">
        <ele>63.3</ele>
        <time>2016-07-07T09:31:00Z</time>
      </trkpt>
      <trkpt lat="48.53996" lon="-2.62705">
        <ele>62.2</ele>
        <time>2016-07-07T09:31:10Z</time>
      </trkpt>
      <trkpt lat="48.53993" lon="-2.62719">
        <ele>62.5</ele>
        <time>2016-07-07T09:31:20Z</time>
      </trkpt>
      <trkpt lat="48.53989" lon="-2.62733">
        <ele>62.8</ele>
        <time>2016-07-07T09:31:29Z</time>
      </trkpt>
      <trkpt lat="48.53984" lon="-2.62745">
        <ele>64</ele>
        <time>2016-07-07T09:31:37Z</time>
      </trkpt>
      <trkpt lat="48.53979" lon="-2.62758">
        <ele>64.3</ele>
        <time>2016-07-07T09:31:46Z</time>
      </trkpt>
      <trkpt lat="48.53972" lon="-2.62769">
        <ele>64.4</ele>
        <time>2016-07-07T09:31:54Z</time>
      </trkpt>
      <trkpt lat="48.53964" lon="-2.62777">
        <ele>64.2</ele>
        <time>2016-07-07T09:32:03Z</time>
      </trkpt>
      <trkpt lat="48.53956" lon="-2.62786">
        <ele>64.5</ele>
        <time>2016-07-07T09:32:27Z</time>
      </trkpt>
      <trkpt lat="48.53947" lon="-2.62791">
        <ele>57.4</ele>
        <time>2016-07-07T09:32:34Z</time>
      </trkpt>
      <trkpt lat="48.53937" lon="-2.62798">
        <ele>70.1</ele>
        <time>2016-07-07T09:32:41Z</time>
      </trkpt>
      <trkpt lat="48.53929" lon="-2.62806">
        <ele>65.9</ele>
        <time>2016-07-07T09:32:49Z</time>
      </trkpt>
      <trkpt lat="48.53921" lon="-2.62814">
        <ele>62.1</ele>
        <time>2016-07-07T09:32:57Z</time>
      </trkpt>
      <trkpt lat="48.53915" lon="-2.62825">
        <ele>61.5</ele>
        <time>2016-07-07T09:33:05Z</time>
      </trkpt>
      <trkpt lat="48.53906" lon="-2.62827">
        <ele>61.1</ele>
        <time>2016-07-07T09:33:15Z</time>
      </trkpt>
      <trkpt lat="48.53896" lon="-2.62825">
        <ele>63.4</ele>
        <time>2016-07-07T09:33:28Z</time>
      </trkpt>
      <trkpt lat="48.53887" lon="-2.62826">
        <ele>61.4</ele>
        <time>2016-07-07T09:33:38Z</time>
      </trkpt>
      <trkpt lat="48.53877" lon="-2.62834">
        <ele>61.3</ele>
        <time>2016-07-07T09:33:46Z</time>
      </trkpt>
      <trkpt lat="48.5387" lon="-2.62843">
        <ele>61.9</ele>
        <time>2016-07-07T09:34:02Z</time>
      </trkpt>
      <trkpt lat="48.53863" lon="-2.62855">
        <ele>61.6</ele>
        <time>2016-07-07T09:34:10Z</time>
      </trkpt>
      <trkpt lat="48.53855" lon="-2.62865">
        <ele>60.9</ele>
        <time>2016-07-07T09:34:18Z</time>
      </trkpt>
      <trkpt lat="48.53849" lon="-2.62875">
        <ele>60.8</ele>
        <time>2016-07-07T09:34:26Z</time>
      </trkpt>
      <trkpt lat="48.53842" lon="-2.62885">
        <ele>59.6</ele>
        <time>2016-07-07T09:34:35Z</time>
      </trkpt>
      <trkpt lat="48.53835" lon="-2.62895">
        <ele>58.9</ele>
        <time>2016-07-07T09:34:45Z</time>
      </trkpt>
      <trkpt lat="48.53829" lon="-2.62907">
        <ele>58</ele>
        <time>2016-07-07T09:34:53Z</time>
      </trkpt>
      <trkpt lat="48.53822" lon="-2.62916">
        <ele>57.7</ele>
        <time>2016-07-07T09:35:01Z</time>
      </trkpt>
      <trkpt lat="48.53815" lon="-2.62926">
        <ele>57.5</ele>
        <time>2016-07-07T09:35:09Z</time>
      </trkpt>
      <trkpt lat="48.53808" lon="-2.62935">
        <ele>56.2</ele>
        <time>2016-07-07T09:35:17Z</time>
      </trkpt>
      <trkpt lat="48.538" lon="-2.62943">
        <ele>56</ele>
        <time>2016-07-07T09:35:25Z</time>
      </trkpt>
      <trkpt lat="48.53791" lon="-2.62948">
        <ele>56</ele>
        <time>2016-07-07T09:35:33Z</time>
      </trkpt>
      <trkpt lat="48.53782" lon="-2.62953">
        <ele>56.1</ele>
        <time>2016-07-07T09:35:41Z</time>
      </trkpt>
      <trkpt lat="48.53775" lon="-2.62963">
        <ele>56.4</ele>
        <time>2016-07-07T09:35:50Z</time>
      </trkpt>
      <trkpt lat="48.53768" lon="-2.62974">
        <ele>54.4</ele>
        <time>2016-07-07T09:35:58Z</time>
      </trkpt>
      <trkpt lat="48.53763" lon="-2.62987">
        <ele>54.1</ele>
        <time>2016-07-07T09:36:07Z</time>
      </trkpt>
      <trkpt lat="48.53761" lon="-2.63">
        <ele>52.3</ele>
        <time>2016-07-07T09:36:17Z</time>
      </trkpt>
      <trkpt lat="48.53761" lon="-2.63015">
        <ele>49</ele>
        <time>2016-07-07T09:36:32Z</time>
      </trkpt>
      <trkpt lat="48.53761" lon="-2.63029">
        <ele>48</ele>
        <time>2016-07-07T09:36:40Z</time>
      </trkpt>
      <trkpt lat="48.53761" lon="-2.63043">
        <ele>46.6</ele>
        <time>2016-07-07T09:36:49Z</time>
      </trkpt>
      <trkpt lat="48.53763" lon="-2.63057">
        <ele>46.7</ele>
        <time>2016-07-07T09:37:04Z</time>
      </trkpt>
      <trkpt lat="48.53765" lon="-2.63071">
        <ele>47.7</ele>
        <time>2016-07-07T09:37:13Z</time>
      </trkpt>
      <trkpt lat="48.5377" lon="-2.63084">
        <ele>48.6</ele>
        <time>2016-07-07T09:37:21Z</time>
      </trkpt>
      <trkpt lat="48.53772" lon="-2.63097">
        <ele>48.8</ele>
        <time>2016-07-07T09:37:28Z</time>
      </trkpt>
      <trkpt lat="48.53776" lon="-2.63111">
        <ele>50.3</ele>
        <time>2016-07-07T09:37:37Z</time>
      </trkpt>
      <trkpt lat="48.53774" lon="-2.63125">
        <ele>37.8</ele>
        <time>2016-07-07T10:03:23Z</time>
      </trkpt>
      <trkpt lat="48.53765" lon="-2.63125">
        <ele>35.4</ele>
        <time>2016-07-07T10:03:44Z</time>
      </trkpt>
      <trkpt lat="48.53755" lon="-2.63127">
        <ele>35.3</ele>
        <time>2016-07-07T10:03:55Z</time>
      </trkpt>
      <trkpt lat="48.53746" lon="-2.63132">
        <ele>35.1</ele>
        <time>2016-07-07T10:04:07Z</time>
      </trkpt>
      <trkpt lat="48.53739" lon="-2.63142">
        <ele>34.3</ele>
        <time>2016-07-07T10:04:15Z</time>
      </trkpt>
      <trkpt lat="48.53729" lon="-2.63147">
        <ele>36.1</ele>
        <time>2016-07-07T10:04:24Z</time>
      </trkpt>
      <trkpt lat="48.53722" lon="-2.63156">
        <ele>33.1</ele>
        <time>2016-07-07T10:04:35Z</time>
      </trkpt>
      <trkpt lat="48.53713" lon="-2.63159">
        <ele>33.9</ele>
        <time>2016-07-07T10:04:45Z</time>
      </trkpt>
      <trkpt lat="48.53704" lon="-2.63164">
        <ele>32.1</ele>
        <time>2016-07-07T10:04:58Z</time>
      </trkpt>
      <trkpt lat="48.53697" lon="-2.63173">
        <ele>30</ele>
        <time>2016-07-07T10:05:11Z</time>
      </trkpt>
      <trkpt lat="48.53688" lon="-2.63178">
        <ele>28</ele>
        <time>2016-07-07T10:05:33Z</time>
      </trkpt>
      <trkpt lat="48.53679" lon="-2.63181">
        <ele>23.8</ele>
        <time>2016-07-07T10:06:02Z</time>
      </trkpt>
      <trkpt lat="48.53669" lon="-2.63177">
        <ele>21.4</ele>
        <time>2016-07-07T10:06:12Z</time>
      </trkpt>
      <trkpt lat="48.53664" lon="-2.63164">
        <ele>23.1</ele>
        <time>2016-07-07T10:06:23Z</time>
      </trkpt>
      <trkpt lat="48.53656" lon="-2.63158">
        <ele>19.7</ele>
        <time>2016-07-07T10:06:56Z</time>
      </trkpt>
      <trkpt lat="48.53647" lon="-2.63155">
        <ele>16.9</ele>
        <time>2016-07-07T10:07:11Z</time>
      </trkpt>
      <trkpt lat="48.53638" lon="-2.63152">
        <ele>13.2</ele>
        <time>2016-07-07T10:07:23Z</time>
      </trkpt>
      <trkpt lat="48.53628" lon="-2.6315">
        <ele>14</ele>
        <time>2016-07-07T10:07:32Z</time>
      </trkpt>
      <trkpt lat="48.53619" lon="-2.63157">
        <ele>12.4</ele>
        <time>2016-07-07T10:07:40Z</time>
      </trkpt>
      <trkpt lat="48.53611" lon="-2.63164">
        <ele>11.6</ele>
        <time>2016-07-07T10:07:49Z</time>
      </trkpt>
      <trkpt lat="48.53601" lon="-2.63169">
        <ele>13.5</ele>
        <time>2016-07-07T10:08:07Z</time>
      </trkpt>
      <trkpt lat="48.53592" lon="-2.63172">
        <ele>13.1</ele>
        <time>2016-07-07T10:08:19Z</time>
      </trkpt>
      <trkpt lat="48.53584" lon="-2.63177">
        <ele>14.4</ele>
        <time>2016-07-07T10:08:29Z</time>
      </trkpt>
      <trkpt lat="48.53575" lon="-2.63179">
        <ele>14.8</ele>
        <time>2016-07-07T10:08:41Z</time>
      </trkpt>
      <trkpt lat="48.53565" lon="-2.63177">
        <ele>16.1</ele>
        <time>2016-07-07T10:08:50Z</time>
      </trkpt>
      <trkpt lat="48.53557" lon="-2.63172">
        <ele>16.1</ele>
        <time>2016-07-07T10:08:59Z</time>
      </trkpt>
      <trkpt lat="48.53548" lon="-2.63166">
        <ele>16.5</ele>
        <time>2016-07-07T10:09:08Z</time>
      </trkpt>
      <trkpt lat="48.53541" lon="-2.63159">
        <ele>16</ele>
        <time>2016-07-07T10:09:16Z</time>
      </trkpt>
      <trkpt lat="48.53532" lon="-2.63152">
        <ele>15</ele>
        <time>2016-07-07T10:09:27Z</time>
      </trkpt>
      <trkpt lat="48.53523" lon="-2.63152">
        <ele>12.6</ele>
        <time>2016-07-07T10:09:45Z</time>
      </trkpt>
      <trkpt lat="48.53513" lon="-2.63153">
        <ele>11.7</ele>
        <time>2016-07-07T10:09:55Z</time>
      </trkpt>
      <trkpt lat="48.53507" lon="-2.63162">
        <ele>12.8</ele>
        <time>2016-07-07T10:10:05Z</time>
      </trkpt>
      <trkpt lat="48.53497" lon="-2.63164">
        <ele>12.7</ele>
        <time>2016-07-07T10:10:16Z</time>
      </trkpt>
      <trkpt lat="48.53488" lon="-2.6316">
        <ele>14.4</ele>
        <time>2016-07-07T10:10:25Z</time>
      </trkpt>
      <trkpt lat="48.53479" lon="-2.63157">
        <ele>14.3</ele>
        <time>2016-07-07T10:10:34Z</time>
      </trkpt>
      <trkpt lat="48.53471" lon="-2.63152">
        <ele>18.2</ele>
        <time>2016-07-07T10:10:55Z</time>
      </trkpt>
      <trkpt lat="48.53461" lon="-2.6315">
        <ele>20.1</ele>
        <time>2016-07-07T10:11:16Z</time>
      </trkpt>
      <trkpt lat="48.53452" lon="-2.6315">
        <ele>21.6</ele>
        <time>2016-07-07T10:11:53Z</time>
      </trkpt>
      <trkpt lat="48.53451" lon="-2.63136">
        <ele>25.5</ele>
        <time>2016-07-07T10:12:23Z</time>
      </trkpt>
      <trkpt lat="48.53442" lon="-2.63131">
        <ele>28.5</ele>
        <time>2016-07-07T10:12:57Z</time>
      </trkpt>
      <trkpt lat="48.53434" lon="-2.63124">
        <ele>30.7</ele>
        <time>2016-07-07T10:13:13Z</time>
      </trkpt>
      <trkpt lat="48.53426" lon="-2.63118">
        <ele>31.4</ele>
        <time>2016-07-07T10:13:25Z</time>
      </trkpt>
      <trkpt lat="48.53416" lon="-2.63118">
        <ele>32.6</ele>
        <time>2016-07-07T10:13:59Z</time>
      </trkpt>
      <trkpt lat="48.53407" lon="-2.63119">
        <ele>33.5</ele>
        <time>2016-07-07T10:14:09Z</time>
      </trkpt>
      <trkpt lat="48.53398" lon="-2.63124">
        <ele>32.9</ele>
        <time>2016-07-07T10:14:23Z</time>
      </trkpt>
      <trkpt lat="48.53389" lon="-2.63126">
        <ele>33.3</ele>
        <time>2016-07-07T10:14:31Z</time>
      </trkpt>
      <trkpt lat="48.5338" lon="-2.63128">
        <ele>35.6</ele>
        <time>2016-07-07T10:14:40Z</time>
      </trkpt>
      <trkpt lat="48.53371" lon="-2.63132">
        <ele>34.8</ele>
        <time>2016-07-07T10:14:48Z</time>
      </trkpt>
      <trkpt lat="48.53362" lon="-2.63134">
        <ele>33.8</ele>
        <time>2016-07-07T10:14:56Z</time>
      </trkpt>
      <trkpt lat="48.53352" lon="-2.63135">
        <ele>32.3</ele>
        <time>2016-07-07T10:15:04Z</time>
      </trkpt>
      <trkpt lat="48.53342" lon="-2.63135">
        <ele>32.7</ele>
        <time>2016-07-07T10:15:12Z</time>
      </trkpt>
      <trkpt lat="48.53333" lon="-2.63134">
        <ele>30.6</ele>
        <time>2016-07-07T10:15:20Z</time>
      </trkpt>
      <trkpt lat="48.53324" lon="-2.63134">
        <ele>29.2</ele>
        <time>2016-07-07T10:15:28Z</time>
      </trkpt>
      <trkpt lat="48.53314" lon="-2.63136">
        <ele>31.7</ele>
        <time>2016-07-07T10:15:38Z</time>
      </trkpt>
      <trkpt lat="48.53305" lon="-2.63139">
        <ele>31.1</ele>
        <time>2016-07-07T10:15:48Z</time>
      </trkpt>
      <trkpt lat="48.53294" lon="-2.6314">
        <ele>30.2</ele>
        <time>2016-07-07T10:15:59Z</time>
      </trkpt>
      <trkpt lat="48.53285" lon="-2.63138">
        <ele>31.4</ele>
        <time>2016-07-07T10:16:07Z</time>
      </trkpt>
      <trkpt lat="48.53275" lon="-2.63141">
        <ele>31.6</ele>
        <time>2016-07-07T10:16:16Z</time>
      </trkpt>
      <trkpt lat="48.53268" lon="-2.6315">
        <ele>31.7</ele>
        <time>2016-07-07T10:16:25Z</time>
      </trkpt>
      <trkpt lat="48.53265" lon="-2.63164">
        <ele>31.6</ele>
        <time>2016-07-07T10:16:39Z</time>
      </trkpt>
      <trkpt lat="48.53262" lon="-2.63178">
        <ele>31</ele>
        <time>2016-07-07T10:16:54Z</time>
      </trkpt>
      <trkpt lat="48.53257" lon="-2.6319">
        <ele>31.2</ele>
        <time>2016-07-07T10:17:02Z</time>
      </trkpt>
      <trkpt lat="48.5325" lon="-2.632">
        <ele>31</ele>
        <time>2016-07-07T10:17:26Z</time>
      </trkpt>
      <trkpt lat="48.53242" lon="-2.63207">
        <ele>30.4</ele>
        <time>2016-07-07T10:17:33Z</time>
      </trkpt>
      <trkpt lat="48.53232" lon="-2.63212">
        <ele>30.8</ele>
        <time>2016-07-07T10:17:42Z</time>
      </trkpt>
      <trkpt lat="48.53223" lon="-2.63215">
        <ele>30.8</ele>
        <time>2016-07-07T10:17:50Z</time>
      </trkpt>
      <trkpt lat="48.53213" lon="-2.63219">
        <ele>30.9</ele>
        <time>2016-07-07T10:17:58Z</time>
      </trkpt>
      <trkpt lat="48.53204" lon="-2.63223">
        <ele>30.1</ele>
        <time>2016-07-07T10:18:08Z</time>
      </trkpt>
      <trkpt lat="48.53195" lon="-2.63224">
        <ele>29.6</ele>
        <time>2016-07-07T10:18:17Z</time>
      </trkpt>
      <trkpt lat="48.53186" lon="-2.63229">
        <ele>28.6</ele>
        <time>2016-07-07T10:18:26Z</time>
      </trkpt>
      <trkpt lat="48.53177" lon="-2.63238">
        <ele>28.3</ele>
        <time>2016-07-07T10:18:42Z</time>
      </trkpt>
      <trkpt lat="48.53169" lon="-2.63243">
        <ele>27.1</ele>
        <time>2016-07-07T10:18:49Z</time>
      </trkpt>
      <trkpt lat="48.53159" lon="-2.63249">
        <ele>26.5</ele>
        <time>2016-07-07T10:18:57Z</time>
      </trkpt>
      <trkpt lat="48.5315" lon="-2.63254">
        <ele>25.7</ele>
        <time>2016-07-07T10:19:04Z</time>
      </trkpt>
      <trkpt lat="48.53141" lon="-2.63259">
        <ele>23.9</ele>
        <time>2016-07-07T10:19:13Z</time>
      </trkpt>
      <trkpt lat="48.53132" lon="-2.63265">
        <ele>23.4</ele>
        <time>2016-07-07T10:19:21Z</time>
      </trkpt>
      <trkpt lat="48.53123" lon="-2.63268">
        <ele>23.3</ele>
        <time>2016-07-07T10:19:28Z</time>
      </trkpt>
      <trkpt lat="48.53113" lon="-2.63273">
        <ele>23.4</ele>
        <time>2016-07-07T10:19:36Z</time>
      </trkpt>
      <trkpt lat="48.53105" lon="-2.6328">
        <ele>23.6</ele>
        <time>2016-07-07T10:19:44Z</time>
      </trkpt>
      <trkpt lat="48.53096" lon="-2.63286">
        <ele>24.2</ele>
        <time>2016-07-07T10:19:52Z</time>
      </trkpt>
      <trkpt lat="48.53086" lon="-2.63291">
        <ele>25.9</ele>
        <time>2016-07-07T10:20:02Z</time>
      </trkpt>
      <trkpt lat="48.53078" lon="-2.63299">
        <ele>26.1</ele>
        <time>2016-07-07T10:20:10Z</time>
      </trkpt>
      <trkpt lat="48.53069" lon="-2.63303">
        <ele>25.5</ele>
        <time>2016-07-07T10:20:18Z</time>
      </trkpt>
      <trkpt lat="48.53059" lon="-2.63302">
        <ele>26.6</ele>
        <time>2016-07-07T10:20:30Z</time>
      </trkpt>
      <trkpt lat="48.53052" lon="-2.63293">
        <ele>26.4</ele>
        <time>2016-07-07T10:20:41Z</time>
      </trkpt>
      <trkpt lat="48.53043" lon="-2.63294">
        <ele>25.7</ele>
        <time>2016-07-07T10:20:54Z</time>
      </trkpt>
      <trkpt lat="48.53034" lon="-2.633">
        <ele>21.2</ele>
        <time>2016-07-07T10:21:20Z</time>
      </trkpt>
      <trkpt lat="48.53025" lon="-2.63305">
        <ele>19.7</ele>
        <time>2016-07-07T10:21:26Z</time>
      </trkpt>
      <trkpt lat="48.53016" lon="-2.63311">
        <ele>17.6</ele>
        <time>2016-07-07T10:21:33Z</time>
      </trkpt>
      <trkpt lat="48.53007" lon="-2.63317">
        <ele>16.1</ele>
        <time>2016-07-07T10:21:41Z</time>
      </trkpt>
      <trkpt lat="48.52997" lon="-2.63322">
        <ele>15</ele>
        <time>2016-07-07T10:21:49Z</time>
      </trkpt>
      <trkpt lat="48.52989" lon="-2.6333">
        <ele>15.2</ele>
        <time>2016-07-07T10:21:57Z</time>
      </trkpt>
      <trkpt lat="48.52982" lon="-2.63341">
        <ele>15.7</ele>
        <time>2016-07-07T10:22:06Z</time>
      </trkpt>
      <trkpt lat="48.52974" lon="-2.63348">
        <ele>16.3</ele>
        <time>2016-07-07T10:22:13Z</time>
      </trkpt>
      <trkpt lat="48.52971" lon="-2.63335">
        <ele>16.5</ele>
        <time>2016-07-07T10:24:16Z</time>
      </trkpt>
      <trkpt lat="48.52975" lon="-2.63321">
        <ele>17.1</ele>
        <time>2016-07-07T10:24:30Z</time>
      </trkpt>
      <trkpt lat="48.52981" lon="-2.6331">
        <ele>15.3</ele>
        <time>2016-07-07T10:24:38Z</time>
      </trkpt>
      <trkpt lat="48.5298" lon="-2.63296">
        <ele>12.8</ele>
        <time>2016-07-07T10:25:07Z</time>
      </trkpt>
      <trkpt lat="48.52978" lon="-2.63282">
        <ele>12.2</ele>
        <time>2016-07-07T10:25:16Z</time>
      </trkpt>
      <trkpt lat="48.52978" lon="-2.63268">
        <ele>11.5</ele>
        <time>2016-07-07T10:25:25Z</time>
      </trkpt>
      <trkpt lat="48.52979" lon="-2.63253">
        <ele>10.3</ele>
        <time>2016-07-07T10:25:35Z</time>
      </trkpt>
      <trkpt lat="48.52972" lon="-2.63242">
        <ele>9.3</ele>
        <time>2016-07-07T10:25:46Z</time>
      </trkpt>
      <trkpt lat="48.52966" lon="-2.63231">
        <ele>10</ele>
        <time>2016-07-07T10:25:54Z</time>
      </trkpt>
      <trkpt lat="48.52958" lon="-2.63222">
        <ele>10.2</ele>
        <time>2016-07-07T10:26:02Z</time>
      </trkpt>
      <trkpt lat="48.52949" lon="-2.63215">
        <ele>10.3</ele>
        <time>2016-07-07T10:26:11Z</time>
      </trkpt>
      <trkpt lat="48.52941" lon="-2.63208">
        <ele>10.5</ele>
        <time>2016-07-07T10:26:20Z</time>
      </trkpt>
      <trkpt lat="48.52932" lon="-2.63203">
        <ele>11.3</ele>
        <time>2016-07-07T10:26:28Z</time>
      </trkpt>
      <trkpt lat="48.52923" lon="-2.63196">
        <ele>10.8</ele>
        <time>2016-07-07T10:26:38Z</time>
      </trkpt>
      <trkpt lat="48.52914" lon="-2.63191">
        <ele>10.7</ele>
        <time>2016-07-07T10:26:47Z</time>
      </trkpt>
      <trkpt lat="48.52905" lon="-2.63185">
        <ele>11.3</ele>
        <time>2016-07-07T10:26:56Z</time>
      </trkpt>
      <trkpt lat="48.52895" lon="-2.6318">
        <ele>11.4</ele>
        <time>2016-07-07T10:27:05Z</time>
      </trkpt>
      <trkpt lat="48.52885" lon="-2.63176">
        <ele>12</ele>
        <time>2016-07-07T10:27:14Z</time>
      </trkpt>
      <trkpt lat="48.52876" lon="-2.63172">
        <ele>11.6</ele>
        <time>2016-07-07T10:27:22Z</time>
      </trkpt>
      <trkpt lat="48.52867" lon="-2.63169">
        <ele>11.7</ele>
        <time>2016-07-07T10:27:30Z</time>
      </trkpt>
      <trkpt lat="48.52858" lon="-2.63164">
        <ele>12.2</ele>
        <time>2016-07-07T10:27:55Z</time>
      </trkpt>
      <trkpt lat="48.52849" lon="-2.63159">
        <ele>11.9</ele>
        <time>2016-07-07T10:28:03Z</time>
      </trkpt>
      <trkpt lat="48.5284" lon="-2.63156">
        <ele>12.4</ele>
        <time>2016-07-07T10:28:12Z</time>
      </trkpt>
      <trkpt lat="48.5283" lon="-2.63152">
        <ele>11.9</ele>
        <time>2016-07-07T10:28:21Z</time>
      </trkpt>
      <trkpt lat="48.52821" lon="-2.63147">
        <ele>12.4</ele>
        <time>2016-07-07T10:28:29Z</time>
      </trkpt>
      <trkpt lat="48.52812" lon="-2.63143">
        <ele>12.9</ele>
        <time>2016-07-07T10:28:38Z</time>
      </trkpt>
      <trkpt lat="48.52802" lon="-2.63139">
        <ele>12.7</ele>
        <time>2016-07-07T10:28:46Z</time>
      </trkpt>
      <trkpt lat="48.52793" lon="-2.63138">
        <ele>13</ele>
        <time>2016-07-07T10:28:55Z</time>
      </trkpt>
      <trkpt lat="48.52784" lon="-2.63136">
        <ele>12.9</ele>
        <time>2016-07-07T10:29:03Z</time>
      </trkpt>
      <trkpt lat="48.52774" lon="-2.63134">
        <ele>12.9</ele>
        <time>2016-07-07T10:29:13Z</time>
      </trkpt>
      <trkpt lat="48.52765" lon="-2.63131">
        <ele>12.7</ele>
        <time>2016-07-07T10:29:21Z</time>
      </trkpt>
      <trkpt lat="48.52757" lon="-2.63125">
        <ele>13</ele>
        <time>2016-07-07T10:29:29Z</time>
      </trkpt>
      <trkpt lat="48.52747" lon="-2.63122">
        <ele>12.4</ele>
        <time>2016-07-07T10:29:38Z</time>
      </trkpt>
      <trkpt lat="48.52738" lon="-2.63116">
        <ele>12.6</ele>
        <time>2016-07-07T10:29:46Z</time>
      </trkpt>
      <trkpt lat="48.52729" lon="-2.63111">
        <ele>13.1</ele>
        <time>2016-07-07T10:29:55Z</time>
      </trkpt>
      <trkpt lat="48.5272" lon="-2.63107">
        <ele>13</ele>
        <time>2016-07-07T10:30:05Z</time>
      </trkpt>
      <trkpt lat="48.52711" lon="-2.63099">
        <ele>12.2</ele>
        <time>2016-07-07T10:30:13Z</time>
      </trkpt>
      <trkpt lat="48.52704" lon="-2.63088">
        <ele>12.4</ele>
        <time>2016-07-07T10:30:23Z</time>
      </trkpt>
      <trkpt lat="48.52702" lon="-2.63074">
        <ele>13.1</ele>
        <time>2016-07-07T10:30:31Z</time>
      </trkpt>
      <trkpt lat="48.52698" lon="-2.63061">
        <ele>13.6</ele>
        <time>2016-07-07T10:30:41Z</time>
      </trkpt>
      <trkpt lat="48.52702" lon="-2.63048">
        <ele>16.2</ele>
        <time>2016-07-07T10:30:56Z</time>
      </trkpt>
      <trkpt lat="48.527" lon="-2.63034">
        <ele>17.9</ele>
        <time>2016-07-07T10:31:24Z</time>
      </trkpt>
      <trkpt lat="48.52702" lon="-2.6302">
        <ele>19.3</ele>
        <time>2016-07-07T10:31:33Z</time>
      </trkpt>
      <trkpt lat="48.52702" lon="-2.63006">
        <ele>21.9</ele>
        <time>2016-07-07T10:31:51Z</time>
      </trkpt>
      <trkpt lat="48.52702" lon="-2.62991">
        <ele>22.9</ele>
        <time>2016-07-07T10:32:02Z</time>
      </trkpt>
      <trkpt lat="48.52701" lon="-2.62976">
        <ele>25.8</ele>
        <time>2016-07-07T10:32:37Z</time>
      </trkpt>
      <trkpt lat="48.52704" lon="-2.62963">
        <ele>29.8</ele>
        <time>2016-07-07T10:32:59Z</time>
      </trkpt>
      <trkpt lat="48.52699" lon="-2.62952">
        <ele>31.7</ele>
        <time>2016-07-07T10:33:31Z</time>
      </trkpt>
      <trkpt lat="48.52696" lon="-2.62937">
        <ele>30.7</ele>
        <time>2016-07-07T10:33:40Z</time>
      </trkpt>
      <trkpt lat="48.52693" lon="-2.62923">
        <ele>31.8</ele>
        <time>2016-07-07T10:33:49Z</time>
      </trkpt>
      <trkpt lat="48.52689" lon="-2.62911">
        <ele>32.2</ele>
        <time>2016-07-07T10:33:58Z</time>
      </trkpt>
      <trkpt lat="48.52684" lon="-2.62898">
        <ele>33</ele>
        <time>2016-07-07T10:34:08Z</time>
      </trkpt>
      <trkpt lat="48.5268" lon="-2.62886">
        <ele>32</ele>
        <time>2016-07-07T10:34:20Z</time>
      </trkpt>
      <trkpt lat="48.52672" lon="-2.62879">
        <ele>31.5</ele>
        <time>2016-07-07T10:34:28Z</time>
      </trkpt>
      <trkpt lat="48.52669" lon="-2.62864">
        <ele>31.9</ele>
        <time>2016-07-07T10:34:39Z</time>
      </trkpt>
      <trkpt lat="48.52668" lon="-2.6285">
        <ele>33.2</ele>
        <time>2016-07-07T10:34:51Z</time>
      </trkpt>
      <trkpt lat="48.52664" lon="-2.62837">
        <ele>34.1</ele>
        <time>2016-07-07T10:34:59Z</time>
      </trkpt>
      <trkpt lat="48.52662" lon="-2.62822">
        <ele>37.4</ele>
        <time>2016-07-07T10:35:52Z</time>
      </trkpt>
      <trkpt lat="48.52656" lon="-2.62812">
        <ele>36.5</ele>
        <time>2016-07-07T10:36:02Z</time>
      </trkpt>
      <trkpt lat="48.52646" lon="-2.62805">
        <ele>35.1</ele>
        <time>2016-07-07T10:36:16Z</time>
      </trkpt>
      <trkpt lat="48.52641" lon="-2.62793">
        <ele>33.5</ele>
        <time>2016-07-07T10:36:25Z</time>
      </trkpt>
      <trkpt lat="48.52633" lon="-2.62788">
        <ele>31.5</ele>
        <time>2016-07-07T10:36:38Z</time>
      </trkpt>
      <trkpt lat="48.52624" lon="-2.62779">
        <ele>30.8</ele>
        <time>2016-07-07T10:36:47Z</time>
      </trkpt>
      <trkpt lat="48.52617" lon="-2.62769">
        <ele>32</ele>
        <time>2016-07-07T10:36:59Z</time>
      </trkpt>
      <trkpt lat="48.52612" lon="-2.62758">
        <ele>35</ele>
        <time>2016-07-07T10:37:12Z</time>
      </trkpt>
      <trkpt lat="48.52603" lon="-2.62758">
        <ele>37.5</ele>
        <time>2016-07-07T10:37:52Z</time>
      </trkpt>
      <trkpt lat="48.52595" lon="-2.62748">
        <ele>39.3</ele>
        <time>2016-07-07T10:38:03Z</time>
      </trkpt>
      <trkpt lat="48.52587" lon="-2.62744">
        <ele>40.4</ele>
        <time>2016-07-07T10:38:13Z</time>
      </trkpt>
      <trkpt lat="48.5258" lon="-2.62736">
        <ele>40.3</ele>
        <time>2016-07-07T10:38:21Z</time>
      </trkpt>
      <trkpt lat="48.52573" lon="-2.62726">
        <ele>41.8</ele>
        <time>2016-07-07T10:38:33Z</time>
      </trkpt>
      <trkpt lat="48.52564" lon="-2.62719">
        <ele>45.9</ele>
        <time>2016-07-07T10:39:14Z</time>
      </trkpt>
      <trkpt lat="48.52558" lon="-2.62709">
        <ele>45.8</ele>
        <time>2016-07-07T10:39:20Z</time>
      </trkpt>
      <trkpt lat="48.5255" lon="-2.62701">
        <ele>46.2</ele>
        <time>2016-07-07T10:39:28Z</time>
      </trkpt>
      <trkpt lat="48.52545" lon="-2.62688">
        <ele>45.9</ele>
        <time>2016-07-07T10:39:37Z</time>
      </trkpt>
      <trkpt lat="48.52541" lon="-2.62676">
        <ele>44.8</ele>
        <time>2016-07-07T10:39:51Z</time>
      </trkpt>
      <trkpt lat="48.52535" lon="-2.62665">
        <ele>42.5</ele>
        <time>2016-07-07T10:40:03Z</time>
      </trkpt>
      <trkpt lat="48.52531" lon="-2.62652">
        <ele>41.2</ele>
        <time>2016-07-07T10:40:17Z</time>
      </trkpt>
      <trkpt lat="48.52528" lon="-2.62639">
        <ele>41.7</ele>
        <time>2016-07-07T10:40:29Z</time>
      </trkpt>
      <trkpt lat="48.52523" lon="-2.62627">
        <ele>43.4</ele>
        <time>2016-07-07T10:40:43Z</time>
      </trkpt>
      <trkpt lat="48.52515" lon="-2.62617">
        <ele>44</ele>
        <time>2016-07-07T10:40:51Z</time>
      </trkpt>
      <trkpt lat="48.52505" lon="-2.62606">
        <ele>43.5</ele>
        <time>2016-07-07T10:41:00Z</time>
      </trkpt>
      <trkpt lat="48.525" lon="-2.62594">
        <ele>43.5</ele>
        <time>2016-07-07T10:41:13Z</time>
      </trkpt>
      <trkpt lat="48.52497" lon="-2.62579">
        <ele>42.5</ele>
        <time>2016-07-07T10:41:26Z</time>
      </trkpt>
      <trkpt lat="48.5249" lon="-2.6257">
        <ele>39.8</ele>
        <time>2016-07-07T10:41:40Z</time>
      </trkpt>
      <trkpt lat="48.52485" lon="-2.62557">
        <ele>38</ele>
        <time>2016-07-07T10:41:50Z</time>
      </trkpt>
      <trkpt lat="48.52479" lon="-2.62546">
        <ele>39.6</ele>
        <time>2016-07-07T10:42:07Z</time>
      </trkpt>
      <trkpt lat="48.52472" lon="-2.62539">
        <ele>41.9</ele>
        <time>2016-07-07T10:42:41Z</time>
      </trkpt>
      <trkpt lat="48.52465" lon="-2.62529">
        <ele>46.5</ele>
        <time>2016-07-07T10:43:12Z</time>
      </trkpt>
      <trkpt lat="48.52456" lon="-2.62526">
        <ele>49.4</ele>
        <time>2016-07-07T10:43:35Z</time>
      </trkpt>
      <trkpt lat="48.52447" lon="-2.62524">
        <ele>51.5</ele>
        <time>2016-07-07T10:44:31Z</time>
      </trkpt>
      <trkpt lat="48.5244" lon="-2.62515">
        <ele>52</ele>
        <time>2016-07-07T10:44:41Z</time>
      </trkpt>
      <trkpt lat="48.5243" lon="-2.62513">
        <ele>52.7</ele>
        <time>2016-07-07T10:44:52Z</time>
      </trkpt>
      <trkpt lat="48.52423" lon="-2.62505">
        <ele>54.4</ele>
        <time>2016-07-07T10:45:09Z</time>
      </trkpt>
      <trkpt lat="48.52414" lon="-2.62503">
        <ele>55.9</ele>
        <time>2016-07-07T10:45:18Z</time>
      </trkpt>
      <trkpt lat="48.52405" lon="-2.62497">
        <ele>59.5</ele>
        <time>2016-07-07T10:46:14Z</time>
      </trkpt>
      <trkpt lat="48.52396" lon="-2.62492">
        <ele>62.4</ele>
        <time>2016-07-07T10:46:30Z</time>
      </trkpt>
      <trkpt lat="48.52387" lon="-2.62485">
        <ele>64.4</ele>
        <time>2016-07-07T10:46:41Z</time>
      </trkpt>
      <trkpt lat="48.52378" lon="-2.62488">
        <ele>64.7</ele>
        <time>2016-07-07T10:46:54Z</time>
      </trkpt>
      <trkpt lat="48.52369" lon="-2.62492">
        <ele>64.2</ele>
        <time>2016-07-07T10:47:05Z</time>
      </trkpt>
      <trkpt lat="48.52362" lon="-2.625">
        <ele>63.5</ele>
        <time>2016-07-07T10:47:14Z</time>
      </trkpt>
      <trkpt lat="48.52353" lon="-2.62506">
        <ele>63.2</ele>
        <time>2016-07-07T10:47:22Z</time>
      </trkpt>
      <trkpt lat="48.52345" lon="-2.62513">
        <ele>62.4</ele>
        <time>2016-07-07T10:47:32Z</time>
      </trkpt>
      <trkpt lat="48.52337" lon="-2.62521">
        <ele>61.1</ele>
        <time>2016-07-07T10:47:43Z</time>
      </trkpt>
      <trkpt lat="48.5233" lon="-2.6253">
        <ele>60.7</ele>
        <time>2016-07-07T10:47:52Z</time>
      </trkpt>
      <trkpt lat="48.52322" lon="-2.6254">
        <ele>58.8</ele>
        <time>2016-07-07T10:48:01Z</time>
      </trkpt>
      <trkpt lat="48.52318" lon="-2.62553">
        <ele>58.5</ele>
        <time>2016-07-07T10:48:08Z</time>
      </trkpt>
      <trkpt lat="48.52312" lon="-2.62564">
        <ele>57.6</ele>
        <time>2016-07-07T10:48:18Z</time>
      </trkpt>
      <trkpt lat="48.52305" lon="-2.62573">
        <ele>57.6</ele>
        <time>2016-07-07T10:48:27Z</time>
      </trkpt>
      <trkpt lat="48.52298" lon="-2.62582">
        <ele>57.3</ele>
        <time>2016-07-07T10:48:35Z</time>
      </trkpt>
      <trkpt lat="48.5229" lon="-2.62591">
        <ele>55.9</ele>
        <time>2016-07-07T10:48:45Z</time>
      </trkpt>
      <trkpt lat="48.52282" lon="-2.626">
        <ele>54.8</ele>
        <time>2016-07-07T10:48:55Z</time>
      </trkpt>
      <trkpt lat="48.52276" lon="-2.6261">
        <ele>53.3</ele>
        <time>2016-07-07T10:49:07Z</time>
      </trkpt>
      <trkpt lat="48.52269" lon="-2.6262">
        <ele>51.7</ele>
        <time>2016-07-07T10:49:21Z</time>
      </trkpt>
      <trkpt lat="48.52263" lon="-2.62631">
        <ele>49.8</ele>
        <time>2016-07-07T10:49:35Z</time>
      </trkpt>
      <trkpt lat="48.52257" lon="-2.62641">
        <ele>47.8</ele>
        <time>2016-07-07T10:49:47Z</time>
      </trkpt>
      <trkpt lat="48.5225" lon="-2.62649">
        <ele>46.6</ele>
        <time>2016-07-07T10:49:56Z</time>
      </trkpt>
      <trkpt lat="48.52243" lon="-2.62659">
        <ele>45.4</ele>
        <time>2016-07-07T10:50:09Z</time>
      </trkpt>
      <trkpt lat="48.52236" lon="-2.62667">
        <ele>44.3</ele>
        <time>2016-07-07T10:50:18Z</time>
      </trkpt>
      <trkpt lat="48.52227" lon="-2.62662">
        <ele>43.2</ele>
        <time>2016-07-07T10:50:29Z</time>
      </trkpt>
      <trkpt lat="48.52226" lon="-2.62647">
        <ele>42</ele>
        <time>2016-07-07T10:50:40Z</time>
      </trkpt>
      <trkpt lat="48.52232" lon="-2.62636">
        <ele>42.7</ele>
        <time>2016-07-07T10:50:51Z</time>
      </trkpt>
      <trkpt lat="48.52238" lon="-2.62625">
        <ele>45.7</ele>
        <time>2016-07-07T10:51:02Z</time>
      </trkpt>
      <trkpt lat="48.52242" lon="-2.62612">
        <ele>46.6</ele>
        <time>2016-07-07T10:51:12Z</time>
      </trkpt>
      <trkpt lat="48.52247" lon="-2.62601">
        <ele>46.9</ele>
        <time>2016-07-07T10:51:21Z</time>
      </trkpt>
      <trkpt lat="48.52253" lon="-2.6259">
        <ele>47.6</ele>
        <time>2016-07-07T10:51:58Z</time>
      </trkpt>
      <trkpt lat="48.52259" lon="-2.62579">
        <ele>47.6</ele>
        <time>2016-07-07T10:52:06Z</time>
      </trkpt>
      <trkpt lat="48.52266" lon="-2.62568">
        <ele>47.3</ele>
        <time>2016-07-07T10:52:16Z</time>
      </trkpt>
      <trkpt lat="48.52271" lon="-2.62556">
        <ele>46.9</ele>
        <time>2016-07-07T10:52:26Z</time>
      </trkpt>
      <trkpt lat="48.52277" lon="-2.62545">
        <ele>48.1</ele>
        <time>2016-07-07T10:52:38Z</time>
      </trkpt>
      <trkpt lat="48.52282" lon="-2.62532">
        <ele>48.6</ele>
        <time>2016-07-07T10:52:47Z</time>
      </trkpt>
      <trkpt lat="48.52288" lon="-2.62521">
        <ele>50</ele>
        <time>2016-07-07T10:52:59Z</time>
      </trkpt>
      <trkpt lat="48.52289" lon="-2.62507">
        <ele>50.1</ele>
        <time>2016-07-07T10:53:09Z</time>
      </trkpt>
      <trkpt lat="48.52294" lon="-2.62495">
        <ele>50.3</ele>
        <time>2016-07-07T10:53:19Z</time>
      </trkpt>
      <trkpt lat="48.52296" lon="-2.62481">
        <ele>52.1</ele>
        <time>2016-07-07T10:53:31Z</time>
      </trkpt>
      <trkpt lat="48.52299" lon="-2.62467">
        <ele>53.5</ele>
        <time>2016-07-07T10:53:43Z</time>
      </trkpt>
      <trkpt lat="48.52305" lon="-2.62455">
        <ele>54.7</ele>
        <time>2016-07-07T10:53:53Z</time>
      </trkpt>
      <trkpt lat="48.52307" lon="-2.62442">
        <ele>55.8</ele>
        <time>2016-07-07T10:54:37Z</time>
      </trkpt>
      <trkpt lat="48.52307" lon="-2.62428">
        <ele>56.1</ele>
        <time>2016-07-07T10:54:46Z</time>
      </trkpt>
      <trkpt lat="48.52309" lon="-2.62413">
        <ele>56.3</ele>
        <time>2016-07-07T10:54:57Z</time>
      </trkpt>
      <trkpt lat="48.52308" lon="-2.62398">
        <ele>58.7</ele>
        <time>2016-07-07T10:55:10Z</time>
      </trkpt>
      <trkpt lat="48.52311" lon="-2.62385">
        <ele>58.5</ele>
        <time>2016-07-07T10:55:19Z</time>
      </trkpt>
      <trkpt lat="48.52312" lon="-2.62371">
        <ele>58.4</ele>
        <time>2016-07-07T10:55:27Z</time>
      </trkpt>
      <trkpt lat="48.52309" lon="-2.62358">
        <ele>58.9</ele>
        <time>2016-07-07T10:55:35Z</time>
      </trkpt>
      <trkpt lat="48.52306" lon="-2.62344">
        <ele>59.5</ele>
        <time>2016-07-07T10:55:50Z</time>
      </trkpt>
      <trkpt lat="48.52304" lon="-2.62329">
        <ele>57.7</ele>
        <time>2016-07-07T10:56:02Z</time>
      </trkpt>
      <trkpt lat="48.52302" lon="-2.62315">
        <ele>56.6</ele>
        <time>2016-07-07T10:56:11Z</time>
      </trkpt>
      <trkpt lat="48.52299" lon="-2.62301">
        <ele>56.7</ele>
        <time>2016-07-07T10:56:20Z</time>
      </trkpt>
      <trkpt lat="48.52299" lon="-2.62287">
        <ele>57</ele>
        <time>2016-07-07T10:56:30Z</time>
      </trkpt>
      <trkpt lat="48.52297" lon="-2.62273">
        <ele>58.8</ele>
        <time>2016-07-07T10:56:42Z</time>
      </trkpt>
      <trkpt lat="48.52289" lon="-2.62266">
        <ele>58</ele>
        <time>2016-07-07T10:57:30Z</time>
      </trkpt>
      <trkpt lat="48.52281" lon="-2.62259">
        <ele>56.9</ele>
        <time>2016-07-07T10:57:39Z</time>
      </trkpt>
      <trkpt lat="48.52272" lon="-2.62261">
        <ele>56</ele>
        <time>2016-07-07T10:57:48Z</time>
      </trkpt>
      <trkpt lat="48.52262" lon="-2.62257">
        <ele>55.9</ele>
        <time>2016-07-07T10:58:00Z</time>
      </trkpt>
      <trkpt lat="48.52253" lon="-2.62255">
        <ele>54.7</ele>
        <time>2016-07-07T10:58:09Z</time>
      </trkpt>
      <trkpt lat="48.52243" lon="-2.62254">
        <ele>53.5</ele>
        <time>2016-07-07T10:58:19Z</time>
      </trkpt>
      <trkpt lat="48.52234" lon="-2.62252">
        <ele>43.2</ele>
        <time>2016-07-07T10:58:29Z</time>
      </trkpt>
      <trkpt lat="48.52226" lon="-2.62245">
        <ele>50.1</ele>
        <time>2016-07-07T10:58:35Z</time>
      </trkpt>
      <trkpt lat="48.52217" lon="-2.62241">
        <ele>51.9</ele>
        <time>2016-07-07T10:58:43Z</time>
      </trkpt>
      <trkpt lat="48.52207" lon="-2.62235">
        <ele>52.6</ele>
        <time>2016-07-07T10:58:53Z</time>
      </trkpt>
      <trkpt lat="48.522" lon="-2.62228">
        <ele>52.6</ele>
        <time>2016-07-07T10:59:02Z</time>
      </trkpt>
      <trkpt lat="48.52195" lon="-2.62216">
        <ele>52.3</ele>
        <time>2016-07-07T10:59:16Z</time>
      </trkpt>
      <trkpt lat="48.52192" lon="-2.62202">
        <ele>51.9</ele>
        <time>2016-07-07T10:59:25Z</time>
      </trkpt>
      <trkpt lat="48.52186" lon="-2.62192">
        <ele>49.8</ele>
        <time>2016-07-07T10:59:36Z</time>
      </trkpt>
      <trkpt lat="48.52177" lon="-2.62185">
        <ele>46.4</ele>
        <time>2016-07-07T10:59:58Z</time>
      </trkpt>
      <trkpt lat="48.52168" lon="-2.62188">
        <ele>44.5</ele>
        <time>2016-07-07T11:00:08Z</time>
      </trkpt>
      <trkpt lat="48.52158" lon="-2.62186">
        <ele>41.8</ele>
        <time>2016-07-07T11:00:30Z</time>
      </trkpt>
      <trkpt lat="48.52149" lon="-2.62186">
        <ele>35.5</ele>
        <time>2016-07-07T11:01:55Z</time>
      </trkpt>
      <trkpt lat="48.5214" lon="-2.62186">
        <ele>30.5</ele>
        <time>2016-07-07T11:02:26Z</time>
      </trkpt>
      <trkpt lat="48.5213" lon="-2.62186">
        <ele>25.2</ele>
        <time>2016-07-07T11:03:01Z</time>
      </trkpt>
      <trkpt lat="48.52122" lon="-2.6219">
        <ele>23.3</ele>
        <time>2016-07-07T11:03:12Z</time>
      </trkpt>
      <trkpt lat="48.52114" lon="-2.62197">
        <ele>20.9</ele>
        <time>2016-07-07T11:03:24Z</time>
      </trkpt>
      <trkpt lat="48.52107" lon="-2.62209">
        <ele>17.3</ele>
        <time>2016-07-07T11:03:44Z</time>
      </trkpt>
      <trkpt lat="48.52104" lon="-2.62222">
        <ele>14.6</ele>
        <time>2016-07-07T11:03:57Z</time>
      </trkpt>
      <trkpt lat="48.521" lon="-2.62235">
        <ele>11.2</ele>
        <time>2016-07-07T11:04:20Z</time>
      </trkpt>
      <trkpt lat="48.52093" lon="-2.62244">
        <ele>9.4</ele>
        <time>2016-07-07T11:04:36Z</time>
      </trkpt>
      <trkpt lat="48.52085" lon="-2.62249">
        <ele>10.4</ele>
        <time>2016-07-07T11:04:53Z</time>
      </trkpt>
      <trkpt lat="48.52075" lon="-2.6225">
        <ele>9.5</ele>
        <time>2016-07-07T11:05:04Z</time>
      </trkpt>
      <trkpt lat="48.52067" lon="-2.62258">
        <ele>10.5</ele>
        <time>2016-07-07T11:05:15Z</time>
      </trkpt>
      <trkpt lat="48.52058" lon="-2.62257">
        <ele>12.9</ele>
        <time>2016-07-07T11:05:28Z</time>
      </trkpt>
      <trkpt lat="48.52051" lon="-2.62249">
        <ele>15.5</ele>
        <time>2016-07-07T11:05:52Z</time>
      </trkpt>
      <trkpt lat="48.52042" lon="-2.62241">
        <ele>13.6</ele>
        <time>2016-07-07T11:07:15Z</time>
      </trkpt>
      <trkpt lat="48.52035" lon="-2.62249">
        <ele>9.5</ele>
        <time>2016-07-07T11:07:40Z</time>
      </trkpt>
      <trkpt lat="48.52036" lon="-2.62232">
        <ele>9.4</ele>
        <time>2016-07-07T11:07:46Z</time>
      </trkpt>
      <trkpt lat="48.52035" lon="-2.62217">
        <ele>10</ele>
        <time>2016-07-07T11:07:54Z</time>
      </trkpt>
      <trkpt lat="48.52035" lon="-2.62203">
        <ele>11.5</ele>
        <time>2016-07-07T11:08:03Z</time>
      </trkpt>
      <trkpt lat="48.52027" lon="-2.62194">
        <ele>12.5</ele>
        <time>2016-07-07T11:08:20Z</time>
      </trkpt>
      <trkpt lat="48.5202" lon="-2.62184">
        <ele>14.4</ele>
        <time>2016-07-07T11:08:35Z</time>
      </trkpt>
      <trkpt lat="48.52014" lon="-2.62174">
        <ele>16.5</ele>
        <time>2016-07-07T11:09:09Z</time>
      </trkpt>
      <trkpt lat="48.52009" lon="-2.62159">
        <ele>17.1</ele>
        <time>2016-07-07T11:09:19Z</time>
      </trkpt>
      <trkpt lat="48.51999" lon="-2.62153">
        <ele>15.8</ele>
        <time>2016-07-07T11:09:31Z</time>
      </trkpt>
      <trkpt lat="48.51993" lon="-2.62143">
        <ele>15.5</ele>
        <time>2016-07-07T11:09:37Z</time>
      </trkpt>
      <trkpt lat="48.51986" lon="-2.62134">
        <ele>14.8</ele>
        <time>2016-07-07T11:09:51Z</time>
      </trkpt>
      <trkpt lat="48.51981" lon="-2.62119">
        <ele>13.9</ele>
        <time>2016-07-07T11:09:57Z</time>
      </trkpt>
      <trkpt lat="48.51976" lon="-2.62107">
        <ele>13.4</ele>
        <time>2016-07-07T11:10:10Z</time>
      </trkpt>
      <trkpt lat="48.51973" lon="-2.62093">
        <ele>15.1</ele>
        <time>2016-07-07T11:10:22Z</time>
      </trkpt>
      <trkpt lat="48.51967" lon="-2.62081">
        <ele>15</ele>
        <time>2016-07-07T11:10:31Z</time>
      </trkpt>
      <trkpt lat="48.51962" lon="-2.62069">
        <ele>14.5</ele>
        <time>2016-07-07T11:10:46Z</time>
      </trkpt>
      <trkpt lat="48.51955" lon="-2.62058">
        <ele>12.8</ele>
        <time>2016-07-07T11:10:56Z</time>
      </trkpt>
      <trkpt lat="48.51948" lon="-2.62045">
        <ele>11.1</ele>
        <time>2016-07-07T11:11:14Z</time>
      </trkpt>
      <trkpt lat="48.5194" lon="-2.62035">
        <ele>11.2</ele>
        <time>2016-07-07T11:11:18Z</time>
      </trkpt>
      <trkpt lat="48.51936" lon="-2.6202">
        <ele>11.3</ele>
        <time>2016-07-07T11:11:28Z</time>
      </trkpt>
      <trkpt lat="48.5193" lon="-2.62007">
        <ele>11.7</ele>
        <time>2016-07-07T11:11:36Z</time>
      </trkpt>
      <trkpt lat="48.51926" lon="-2.61995">
        <ele>12.5</ele>
        <time>2016-07-07T11:11:42Z</time>
      </trkpt>
      <trkpt lat="48.51921" lon="-2.61982">
        <ele>12.6</ele>
        <time>2016-07-07T11:11:50Z</time>
      </trkpt>
      <trkpt lat="48.51916" lon="-2.61971">
        <ele>14.3</ele>
        <time>2016-07-07T11:11:59Z</time>
      </trkpt>
      <trkpt lat="48.51909" lon="-2.6196">
        <ele>16.4</ele>
        <time>2016-07-07T11:12:09Z</time>
      </trkpt>
      <trkpt lat="48.51901" lon="-2.61964">
        <ele>16.9</ele>
        <time>2016-07-07T11:12:47Z</time>
      </trkpt>
      <trkpt lat="48.51901" lon="-2.61978">
        <ele>16.4</ele>
        <time>2016-07-07T11:12:56Z</time>
      </trkpt>
      <trkpt lat="48.519" lon="-2.61995">
        <ele>16.2</ele>
        <time>2016-07-07T11:13:05Z</time>
      </trkpt>
      <trkpt lat="48.51896" lon="-2.62007">
        <ele>16</ele>
        <time>2016-07-07T11:13:18Z</time>
      </trkpt>
      <trkpt lat="48.51896" lon="-2.62021">
        <ele>15.8</ele>
        <time>2016-07-07T11:13:31Z</time>
      </trkpt>
      <trkpt lat="48.51893" lon="-2.62035">
        <ele>15.6</ele>
        <time>2016-07-07T11:13:37Z</time>
      </trkpt>
      <trkpt lat="48.51894" lon="-2.62049">
        <ele>15</ele>
        <time>2016-07-07T11:13:48Z</time>
      </trkpt>
      <trkpt lat="48.51893" lon="-2.62062">
        <ele>15.4</ele>
        <time>2016-07-07T11:13:55Z</time>
      </trkpt>
      <trkpt lat="48.51892" lon="-2.62077">
        <ele>15.6</ele>
        <time>2016-07-07T11:14:00Z</time>
      </trkpt>
      <trkpt lat="48.51887" lon="-2.62092">
        <ele>16.7</ele>
        <time>2016-07-07T11:14:08Z</time>
      </trkpt>
      <trkpt lat="48.51885" lon="-2.62106">
        <ele>17.2</ele>
        <time>2016-07-07T11:14:14Z</time>
      </trkpt>
      <trkpt lat="48.51893" lon="-2.62113">
        <ele>17.7</ele>
        <time>2016-07-07T11:14:20Z</time>
      </trkpt>
      <trkpt lat="48.51887" lon="-2.62123">
        <ele>20.1</ele>
        <time>2016-07-07T11:17:38Z</time>
      </trkpt>
      <trkpt lat="48.51896" lon="-2.62127">
        <ele>19.8</ele>
        <time>2016-07-07T11:24:00Z</time>
      </trkpt>
      <trkpt lat="48.51897" lon="-2.62141">
        <ele>20.3</ele>
        <time>2016-07-07T11:24:11Z</time>
      </trkpt>
      <trkpt lat="48.51899" lon="-2.62154">
        <ele>20.8</ele>
        <time>2016-07-07T11:24:26Z</time>
      </trkpt>
      <trkpt lat="48.51906" lon="-2.62167">
        <ele>21.9</ele>
        <time>2016-07-07T11:24:39Z</time>
      </trkpt>
      <trkpt lat="48.51907" lon="-2.6218">
        <ele>23.1</ele>
        <time>2016-07-07T11:24:52Z</time>
      </trkpt>
      <trkpt lat="48.51912" lon="-2.62193">
        <ele>23.7</ele>
        <time>2016-07-07T11:25:04Z</time>
      </trkpt>
      <trkpt lat="48.51916" lon="-2.62206">
        <ele>25.7</ele>
        <time>2016-07-07T11:25:16Z</time>
      </trkpt>
      <trkpt lat="48.51922" lon="-2.62216">
        <ele>26.5</ele>
        <time>2016-07-07T11:25:24Z</time>
      </trkpt>
      <trkpt lat="48.5192" lon="-2.6223">
        <ele>27.2</ele>
        <time>2016-07-07T11:25:33Z</time>
      </trkpt>
      <trkpt lat="48.51923" lon="-2.62244">
        <ele>27.9</ele>
        <time>2016-07-07T11:25:43Z</time>
      </trkpt>
      <trkpt lat="48.51927" lon="-2.62257">
        <ele>28.3</ele>
        <time>2016-07-07T11:25:52Z</time>
      </trkpt>
      <trkpt lat="48.51931" lon="-2.6227">
        <ele>28.1</ele>
        <time>2016-07-07T11:26:01Z</time>
      </trkpt>
      <trkpt lat="48.51933" lon="-2.62283">
        <ele>29.3</ele>
        <time>2016-07-07T11:26:17Z</time>
      </trkpt>
      <trkpt lat="48.51935" lon="-2.62298">
        <ele>30.2</ele>
        <time>2016-07-07T11:26:26Z</time>
      </trkpt>
      <trkpt lat="48.51941" lon="-2.62309">
        <ele>31.3</ele>
        <time>2016-07-07T11:26:34Z</time>
      </trkpt>
      <trkpt lat="48.51946" lon="-2.6232">
        <ele>31.8</ele>
        <time>2016-07-07T11:26:44Z</time>
      </trkpt>
      <trkpt lat="48.51955" lon="-2.62326">
        <ele>32.6</ele>
        <time>2016-07-07T11:26:51Z</time>
      </trkpt>
      <trkpt lat="48.51962" lon="-2.62334">
        <ele>33.7</ele>
        <time>2016-07-07T11:27:17Z</time>
      </trkpt>
      <trkpt lat="48.51969" lon="-2.62343">
        <ele>34</ele>
        <time>2016-07-07T11:27:22Z</time>
      </trkpt>
      <trkpt lat="48.51977" lon="-2.62352">
        <ele>34.5</ele>
        <time>2016-07-07T11:27:28Z</time>
      </trkpt>
      <trkpt lat="48.51981" lon="-2.62364">
        <ele>34.2</ele>
        <time>2016-07-07T11:27:38Z</time>
      </trkpt>
      <trkpt lat="48.51979" lon="-2.6238">
        <ele>34.9</ele>
        <time>2016-07-07T11:27:50Z</time>
      </trkpt>
      <trkpt lat="48.51981" lon="-2.62394">
        <ele>36.1</ele>
        <time>2016-07-07T11:28:00Z</time>
      </trkpt>
      <trkpt lat="48.51974" lon="-2.62407">
        <ele>36.1</ele>
        <time>2016-07-07T11:28:08Z</time>
      </trkpt>
      <trkpt lat="48.51969" lon="-2.62419">
        <ele>36.6</ele>
        <time>2016-07-07T11:28:17Z</time>
      </trkpt>
      <trkpt lat="48.51961" lon="-2.62428">
        <ele>37.8</ele>
        <time>2016-07-07T11:28:28Z</time>
      </trkpt>
      <trkpt lat="48.51954" lon="-2.62438">
        <ele>38.3</ele>
        <time>2016-07-07T11:28:36Z</time>
      </trkpt>
      <trkpt lat="48.51946" lon="-2.62447">
        <ele>38.9</ele>
        <time>2016-07-07T11:28:45Z</time>
      </trkpt>
      <trkpt lat="48.5194" lon="-2.62458">
        <ele>39.6</ele>
        <time>2016-07-07T11:29:36Z</time>
      </trkpt>
      <trkpt lat="48.51934" lon="-2.62469">
        <ele>40.8</ele>
        <time>2016-07-07T11:29:46Z</time>
      </trkpt>
      <trkpt lat="48.51927" lon="-2.62481">
        <ele>41.9</ele>
        <time>2016-07-07T11:29:54Z</time>
      </trkpt>
      <trkpt lat="48.51921" lon="-2.62492">
        <ele>42.4</ele>
        <time>2016-07-07T11:30:03Z</time>
      </trkpt>
      <trkpt lat="48.51917" lon="-2.62503">
        <ele>42.4</ele>
        <time>2016-07-07T11:30:11Z</time>
      </trkpt>
      <trkpt lat="48.5191" lon="-2.62513">
        <ele>43</ele>
        <time>2016-07-07T11:30:20Z</time>
      </trkpt>
      <trkpt lat="48.51903" lon="-2.62522">
        <ele>43.7</ele>
        <time>2016-07-07T11:30:30Z</time>
      </trkpt>
      <trkpt lat="48.51896" lon="-2.62532">
        <ele>44.5</ele>
        <time>2016-07-07T11:30:41Z</time>
      </trkpt>
      <trkpt lat="48.5189" lon="-2.62542">
        <ele>45.1</ele>
        <time>2016-07-07T11:30:49Z</time>
      </trkpt>
      <trkpt lat="48.51883" lon="-2.62552">
        <ele>46.5</ele>
        <time>2016-07-07T11:30:56Z</time>
      </trkpt>
      <trkpt lat="48.51878" lon="-2.62563">
        <ele>46.6</ele>
        <time>2016-07-07T11:31:05Z</time>
      </trkpt>
      <trkpt lat="48.51873" lon="-2.62575">
        <ele>47.3</ele>
        <time>2016-07-07T11:31:15Z</time>
      </trkpt>
      <trkpt lat="48.51869" lon="-2.62586">
        <ele>47.7</ele>
        <time>2016-07-07T11:31:24Z</time>
      </trkpt>
      <trkpt lat="48.51864" lon="-2.626">
        <ele>48.5</ele>
        <time>2016-07-07T11:31:57Z</time>
      </trkpt>
      <trkpt lat="48.51861" lon="-2.62614">
        <ele>48.5</ele>
        <time>2016-07-07T11:32:05Z</time>
      </trkpt>
      <trkpt lat="48.51857" lon="-2.62626">
        <ele>48.3</ele>
        <time>2016-07-07T11:32:12Z</time>
      </trkpt>
      <trkpt lat="48.51853" lon="-2.62639">
        <ele>48.3</ele>
        <time>2016-07-07T11:32:19Z</time>
      </trkpt>
      <trkpt lat="48.51852" lon="-2.62653">
        <ele>48.4</ele>
        <time>2016-07-07T11:32:24Z</time>
      </trkpt>
      <trkpt lat="48.5185" lon="-2.62666">
        <ele>47.9</ele>
        <time>2016-07-07T11:32:31Z</time>
      </trkpt>
      <trkpt lat="48.51848" lon="-2.62682">
        <ele>47.9</ele>
        <time>2016-07-07T11:32:45Z</time>
      </trkpt>
      <trkpt lat="48.51847" lon="-2.62697">
        <ele>48.3</ele>
        <time>2016-07-07T11:32:56Z</time>
      </trkpt>
      <trkpt lat="48.51846" lon="-2.62711">
        <ele>48.1</ele>
        <time>2016-07-07T11:33:04Z</time>
      </trkpt>
      <trkpt lat="48.51844" lon="-2.62724">
        <ele>48.3</ele>
        <time>2016-07-07T11:33:11Z</time>
      </trkpt>
      <trkpt lat="48.51841" lon="-2.62738">
        <ele>49</ele>
        <time>2016-07-07T11:33:18Z</time>
      </trkpt>
      <trkpt lat="48.51837" lon="-2.62751">
        <ele>49.4</ele>
        <time>2016-07-07T11:33:23Z</time>
      </trkpt>
      <trkpt lat="48.51835" lon="-2.62767">
        <ele>48.3</ele>
        <time>2016-07-07T11:33:31Z</time>
      </trkpt>
      <trkpt lat="48.51831" lon="-2.62781">
        <ele>48.3</ele>
        <time>2016-07-07T11:33:38Z</time>
      </trkpt>
      <trkpt lat="48.5183" lon="-2.62796">
        <ele>48.3</ele>
        <time>2016-07-07T11:33:44Z</time>
      </trkpt>
      <trkpt lat="48.51827" lon="-2.6281">
        <ele>48.3</ele>
        <time>2016-07-07T11:33:53Z</time>
      </trkpt>
      <trkpt lat="48.51826" lon="-2.62824">
        <ele>48.8</ele>
        <time>2016-07-07T11:34:02Z</time>
      </trkpt>
      <trkpt lat="48.51825" lon="-2.62837">
        <ele>47.3</ele>
        <time>2016-07-07T11:34:11Z</time>
      </trkpt>
      <trkpt lat="48.51822" lon="-2.62851">
        <ele>47.7</ele>
        <time>2016-07-07T11:34:19Z</time>
      </trkpt>
      <trkpt lat="48.5182" lon="-2.62867">
        <ele>47.2</ele>
        <time>2016-07-07T11:34:27Z</time>
      </trkpt>
      <trkpt lat="48.51817" lon="-2.62881">
        <ele>47.1</ele>
        <time>2016-07-07T11:34:34Z</time>
      </trkpt>
      <trkpt lat="48.51815" lon="-2.62895">
        <ele>45.9</ele>
        <time>2016-07-07T11:34:42Z</time>
      </trkpt>
      <trkpt lat="48.51815" lon="-2.62909">
        <ele>45.2</ele>
        <time>2016-07-07T11:34:49Z</time>
      </trkpt>
      <trkpt lat="48.51812" lon="-2.62923">
        <ele>45.8</ele>
        <time>2016-07-07T11:34:56Z</time>
      </trkpt>
      <trkpt lat="48.5181" lon="-2.62938">
        <ele>45</ele>
        <time>2016-07-07T11:35:03Z</time>
      </trkpt>
      <trkpt lat="48.51807" lon="-2.62952">
        <ele>44.2</ele>
        <time>2016-07-07T11:35:11Z</time>
      </trkpt>
      <trkpt lat="48.51806" lon="-2.62966">
        <ele>43.8</ele>
        <time>2016-07-07T11:35:19Z</time>
      </trkpt>
      <trkpt lat="48.51805" lon="-2.6298">
        <ele>43</ele>
        <time>2016-07-07T11:36:44Z</time>
      </trkpt>
      <trkpt lat="48.51812" lon="-2.62989">
        <ele>41.9</ele>
        <time>2016-07-07T11:36:51Z</time>
      </trkpt>
      <trkpt lat="48.5182" lon="-2.63001">
        <ele>41.3</ele>
        <time>2016-07-07T11:37:03Z</time>
      </trkpt>
      <trkpt lat="48.51826" lon="-2.63012">
        <ele>40</ele>
        <time>2016-07-07T11:37:15Z</time>
      </trkpt>
      <trkpt lat="48.51835" lon="-2.63021">
        <ele>39</ele>
        <time>2016-07-07T11:37:23Z</time>
      </trkpt>
      <trkpt lat="48.51836" lon="-2.63035">
        <ele>38.6</ele>
        <time>2016-07-07T11:37:31Z</time>
      </trkpt>
      <trkpt lat="48.51843" lon="-2.63045">
        <ele>37.7</ele>
        <time>2016-07-07T11:37:38Z</time>
      </trkpt>
      <trkpt lat="48.51845" lon="-2.6306">
        <ele>36.4</ele>
        <time>2016-07-07T11:37:46Z</time>
      </trkpt>
      <trkpt lat="48.51846" lon="-2.63073">
        <ele>36.3</ele>
        <time>2016-07-07T11:37:54Z</time>
      </trkpt>
      <trkpt lat="48.51845" lon="-2.63088">
        <ele>35</ele>
        <time>2016-07-07T11:38:03Z</time>
      </trkpt>
      <trkpt lat="48.51846" lon="-2.63102">
        <ele>34.6</ele>
        <time>2016-07-07T11:38:09Z</time>
      </trkpt>
      <trkpt lat="48.5185" lon="-2.63116">
        <ele>33.6</ele>
        <time>2016-07-07T11:38:16Z</time>
      </trkpt>
      <trkpt lat="48.51852" lon="-2.6313">
        <ele>33.3</ele>
        <time>2016-07-07T11:38:24Z</time>
      </trkpt>
      <trkpt lat="48.51856" lon="-2.63144">
        <ele>32.8</ele>
        <time>2016-07-07T11:38:31Z</time>
      </trkpt>
      <trkpt lat="48.5186" lon="-2.63157">
        <ele>33.5</ele>
        <time>2016-07-07T11:38:40Z</time>
      </trkpt>
      <trkpt lat="48.51866" lon="-2.63168">
        <ele>34</ele>
        <time>2016-07-07T11:38:53Z</time>
      </trkpt>
      <trkpt lat="48.51875" lon="-2.63178">
        <ele>35.5</ele>
        <time>2016-07-07T11:39:03Z</time>
      </trkpt>
      <trkpt lat="48.5188" lon="-2.63192">
        <ele>36.7</ele>
        <time>2016-07-07T11:39:14Z</time>
      </trkpt>
      <trkpt lat="48.51885" lon="-2.63203">
        <ele>37.4</ele>
        <time>2016-07-07T11:39:22Z</time>
      </trkpt>
      <trkpt lat="48.5189" lon="-2.63216">
        <ele>38</ele>
        <time>2016-07-07T11:39:31Z</time>
      </trkpt>
      <trkpt lat="48.51896" lon="-2.6323">
        <ele>38.8</ele>
        <time>2016-07-07T11:39:41Z</time>
      </trkpt>
      <trkpt lat="48.51899" lon="-2.63243">
        <ele>39.6</ele>
        <time>2016-07-07T11:39:56Z</time>
      </trkpt>
      <trkpt lat="48.51901" lon="-2.63257">
        <ele>40.1</ele>
        <time>2016-07-07T11:40:02Z</time>
      </trkpt>
      <trkpt lat="48.51904" lon="-2.63269">
        <ele>41.3</ele>
        <time>2016-07-07T11:40:10Z</time>
      </trkpt>
      <trkpt lat="48.51909" lon="-2.63283">
        <ele>42.4</ele>
        <time>2016-07-07T11:40:18Z</time>
      </trkpt>
      <trkpt lat="48.51913" lon="-2.63295">
        <ele>42.5</ele>
        <time>2016-07-07T11:40:27Z</time>
      </trkpt>
      <trkpt lat="48.51917" lon="-2.63308">
        <ele>42.5</ele>
        <time>2016-07-07T11:40:37Z</time>
      </trkpt>
      <trkpt lat="48.5192" lon="-2.63322">
        <ele>42.9</ele>
        <time>2016-07-07T11:41:18Z</time>
      </trkpt>
      <trkpt lat="48.51925" lon="-2.63334">
        <ele>42.6</ele>
        <time>2016-07-07T11:41:25Z</time>
      </trkpt>
      <trkpt lat="48.51929" lon="-2.63347">
        <ele>42.7</ele>
        <time>2016-07-07T11:41:34Z</time>
      </trkpt>
      <trkpt lat="48.51933" lon="-2.6336">
        <ele>41.7</ele>
        <time>2016-07-07T11:41:41Z</time>
      </trkpt>
      <trkpt lat="48.51938" lon="-2.63374">
        <ele>41.8</ele>
        <time>2016-07-07T11:41:49Z</time>
      </trkpt>
      <trkpt lat="48.5194" lon="-2.63388">
        <ele>41.7</ele>
        <time>2016-07-07T11:41:57Z</time>
      </trkpt>
      <trkpt lat="48.5194" lon="-2.63401">
        <ele>42</ele>
        <time>2016-07-07T11:42:03Z</time>
      </trkpt>
      <trkpt lat="48.51941" lon="-2.63417">
        <ele>42.1</ele>
        <time>2016-07-07T11:42:11Z</time>
      </trkpt>
      <trkpt lat="48.51944" lon="-2.63431">
        <ele>42.2</ele>
        <time>2016-07-07T11:42:20Z</time>
      </trkpt>
      <trkpt lat="48.51944" lon="-2.63445">
        <ele>41.3</ele>
        <time>2016-07-07T11:42:28Z</time>
      </trkpt>
      <trkpt lat="48.51945" lon="-2.6346">
        <ele>41.2</ele>
        <time>2016-07-07T11:42:38Z</time>
      </trkpt>
      <trkpt lat="48.51947" lon="-2.63474">
        <ele>40.8</ele>
        <time>2016-07-07T11:42:43Z</time>
      </trkpt>
      <trkpt lat="48.5195" lon="-2.6349">
        <ele>40.8</ele>
        <time>2016-07-07T11:42:50Z</time>
      </trkpt>
      <trkpt lat="48.5195" lon="-2.63504">
        <ele>41.7</ele>
        <time>2016-07-07T11:42:58Z</time>
      </trkpt>
      <trkpt lat="48.51953" lon="-2.63519">
        <ele>41.4</ele>
        <time>2016-07-07T11:43:05Z</time>
      </trkpt>
      <trkpt lat="48.51953" lon="-2.63535">
        <ele>40.6</ele>
        <time>2016-07-07T11:43:13Z</time>
      </trkpt>
      <trkpt lat="48.51954" lon="-2.63549">
        <ele>40.5</ele>
        <time>2016-07-07T11:43:19Z</time>
      </trkpt>
      <trkpt lat="48.51953" lon="-2.63564">
        <ele>40.6</ele>
        <time>2016-07-07T11:43:28Z</time>
      </trkpt>
      <trkpt lat="48.51952" lon="-2.63578">
        <ele>40.2</ele>
        <time>2016-07-07T11:43:36Z</time>
      </trkpt>
      <trkpt lat="48.51952" lon="-2.63592">
        <ele>40</ele>
        <time>2016-07-07T11:43:44Z</time>
      </trkpt>
      <trkpt lat="48.51951" lon="-2.63608">
        <ele>40.6</ele>
        <time>2016-07-07T11:43:52Z</time>
      </trkpt>
      <trkpt lat="48.51949" lon="-2.63624">
        <ele>39.9</ele>
        <time>2016-07-07T11:44:00Z</time>
      </trkpt>
      <trkpt lat="48.51947" lon="-2.6364">
        <ele>39.2</ele>
        <time>2016-07-07T11:44:08Z</time>
      </trkpt>
      <trkpt lat="48.51946" lon="-2.63655">
        <ele>39.1</ele>
        <time>2016-07-07T11:44:16Z</time>
      </trkpt>
      <trkpt lat="48.51943" lon="-2.6367">
        <ele>38.7</ele>
        <time>2016-07-07T11:44:26Z</time>
      </trkpt>
      <trkpt lat="48.51941" lon="-2.63686">
        <ele>38.8</ele>
        <time>2016-07-07T11:44:34Z</time>
      </trkpt>
      <trkpt lat="48.5194" lon="-2.637">
        <ele>39.1</ele>
        <time>2016-07-07T11:44:43Z</time>
      </trkpt>
      <trkpt lat="48.5194" lon="-2.63715">
        <ele>38.8</ele>
        <time>2016-07-07T11:44:50Z</time>
      </trkpt>
      <trkpt lat="48.51943" lon="-2.63728">
        <ele>37.8</ele>
        <time>2016-07-07T11:44:58Z</time>
      </trkpt>
      <trkpt lat="48.51947" lon="-2.6374">
        <ele>37.8</ele>
        <time>2016-07-07T11:45:04Z</time>
      </trkpt>
      <trkpt lat="48.51947" lon="-2.63755">
        <ele>37.9</ele>
        <time>2016-07-07T11:45:10Z</time>
      </trkpt>
      <trkpt lat="48.51946" lon="-2.63769">
        <ele>37.8</ele>
        <time>2016-07-07T11:45:18Z</time>
      </trkpt>
      <trkpt lat="48.51947" lon="-2.63783">
        <ele>37.1</ele>
        <time>2016-07-07T11:45:26Z</time>
      </trkpt>
      <trkpt lat="48.51943" lon="-2.63798">
        <ele>37.7</ele>
        <time>2016-07-07T11:45:34Z</time>
      </trkpt>
      <trkpt lat="48.5194" lon="-2.63812">
        <ele>36.9</ele>
        <time>2016-07-07T11:45:42Z</time>
      </trkpt>
      <trkpt lat="48.51937" lon="-2.63825">
        <ele>36.4</ele>
        <time>2016-07-07T11:45:50Z</time>
      </trkpt>
      <trkpt lat="48.51932" lon="-2.6384">
        <ele>37</ele>
        <time>2016-07-07T11:45:57Z</time>
      </trkpt>
      <trkpt lat="48.5193" lon="-2.63856">
        <ele>36.8</ele>
        <time>2016-07-07T11:46:06Z</time>
      </trkpt>
      <trkpt lat="48.51926" lon="-2.6387">
        <ele>36.5</ele>
        <time>2016-07-07T11:46:14Z</time>
      </trkpt>
      <trkpt lat="48.51922" lon="-2.63884">
        <ele>37.2</ele>
        <time>2016-07-07T11:46:23Z</time>
      </trkpt>
      <trkpt lat="48.51916" lon="-2.63895">
        <ele>36.1</ele>
        <time>2016-07-07T11:46:31Z</time>
      </trkpt>
      <trkpt lat="48.5191" lon="-2.63907">
        <ele>36.6</ele>
        <time>2016-07-07T11:46:40Z</time>
      </trkpt>
      <trkpt lat="48.51907" lon="-2.6392">
        <ele>37.2</ele>
        <time>2016-07-07T11:49:49Z</time>
      </trkpt>
      <trkpt lat="48.51906" lon="-2.63935">
        <ele>37.1</ele>
        <time>2016-07-07T11:49:58Z</time>
      </trkpt>
      <trkpt lat="48.51903" lon="-2.63949">
        <ele>37.2</ele>
        <time>2016-07-07T11:50:07Z</time>
      </trkpt>
      <trkpt lat="48.51898" lon="-2.6396">
        <ele>37.1</ele>
        <time>2016-07-07T11:50:15Z</time>
      </trkpt>
      <trkpt lat="48.51893" lon="-2.63973">
        <ele>37.4</ele>
        <time>2016-07-07T11:50:23Z</time>
      </trkpt>
      <trkpt lat="48.51889" lon="-2.63985">
        <ele>37.4</ele>
        <time>2016-07-07T11:50:32Z</time>
      </trkpt>
      <trkpt lat="48.51885" lon="-2.63999">
        <ele>37.9</ele>
        <time>2016-07-07T11:51:05Z</time>
      </trkpt>
      <trkpt lat="48.5188" lon="-2.64012">
        <ele>38</ele>
        <time>2016-07-07T11:51:14Z</time>
      </trkpt>
      <trkpt lat="48.51876" lon="-2.64024">
        <ele>38.2</ele>
        <time>2016-07-07T11:51:21Z</time>
      </trkpt>
      <trkpt lat="48.51872" lon="-2.64037">
        <ele>39</ele>
        <time>2016-07-07T11:51:28Z</time>
      </trkpt>
      <trkpt lat="48.51868" lon="-2.64049">
        <ele>39.1</ele>
        <time>2016-07-07T11:51:35Z</time>
      </trkpt>
      <trkpt lat="48.51864" lon="-2.64063">
        <ele>39.8</ele>
        <time>2016-07-07T11:51:45Z</time>
      </trkpt>
      <trkpt lat="48.5186" lon="-2.64076">
        <ele>40.5</ele>
        <time>2016-07-07T11:51:53Z</time>
      </trkpt>
      <trkpt lat="48.51855" lon="-2.64089">
        <ele>39.9</ele>
        <time>2016-07-07T11:52:02Z</time>
      </trkpt>
      <trkpt lat="48.51852" lon="-2.64103">
        <ele>39.9</ele>
        <time>2016-07-07T11:52:10Z</time>
      </trkpt>
      <trkpt lat="48.51847" lon="-2.64118">
        <ele>40</ele>
        <time>2016-07-07T11:52:18Z</time>
      </trkpt>
      <trkpt lat="48.51843" lon="-2.64132">
        <ele>41.2</ele>
        <time>2016-07-07T11:52:27Z</time>
      </trkpt>
      <trkpt lat="48.5184" lon="-2.64145">
        <ele>41.1</ele>
        <time>2016-07-07T11:52:36Z</time>
      </trkpt>
      <trkpt lat="48.51837" lon="-2.64158">
        <ele>41.9</ele>
        <time>2016-07-07T11:52:44Z</time>
      </trkpt>
      <trkpt lat="48.51832" lon="-2.64173">
        <ele>43.6</ele>
        <time>2016-07-07T11:52:54Z</time>
      </trkpt>
      <trkpt lat="48.51826" lon="-2.64185">
        <ele>44.7</ele>
        <time>2016-07-07T11:53:02Z</time>
      </trkpt>
      <trkpt lat="48.51823" lon="-2.64198">
        <ele>44.7</ele>
        <time>2016-07-07T11:53:12Z</time>
      </trkpt>
      <trkpt lat="48.51818" lon="-2.6421">
        <ele>44.9</ele>
        <time>2016-07-07T11:53:21Z</time>
      </trkpt>
      <trkpt lat="48.51812" lon="-2.64223">
        <ele>45.7</ele>
        <time>2016-07-07T11:54:02Z</time>
      </trkpt>
      <trkpt lat="48.51809" lon="-2.64236">
        <ele>46.4</ele>
        <time>2016-07-07T11:54:11Z</time>
      </trkpt>
      <trkpt lat="48.51806" lon="-2.6425">
        <ele>46.8</ele>
        <time>2016-07-07T11:54:22Z</time>
      </trkpt>
      <trkpt lat="48.51801" lon="-2.64262">
        <ele>46.9</ele>
        <time>2016-07-07T11:54:29Z</time>
      </trkpt>
      <trkpt lat="48.51796" lon="-2.64275">
        <ele>47.4</ele>
        <time>2016-07-07T11:54:39Z</time>
      </trkpt>
      <trkpt lat="48.51791" lon="-2.64288">
        <ele>49</ele>
        <time>2016-07-07T11:54:47Z</time>
      </trkpt>
      <trkpt lat="48.51786" lon="-2.643">
        <ele>49.8</ele>
        <time>2016-07-07T11:54:54Z</time>
      </trkpt>
      <trkpt lat="48.51781" lon="-2.64312">
        <ele>49.4</ele>
        <time>2016-07-07T11:55:02Z</time>
      </trkpt>
      <trkpt lat="48.51775" lon="-2.64322">
        <ele>50.2</ele>
        <time>2016-07-07T11:55:10Z</time>
      </trkpt>
      <trkpt lat="48.51768" lon="-2.64334">
        <ele>49.8</ele>
        <time>2016-07-07T11:55:17Z</time>
      </trkpt>
      <trkpt lat="48.51764" lon="-2.64347">
        <ele>49.9</ele>
        <time>2016-07-07T11:55:25Z</time>
      </trkpt>
      <trkpt lat="48.5176" lon="-2.64362">
        <ele>51.8</ele>
        <time>2016-07-07T11:55:36Z</time>
      </trkpt>
      <trkpt lat="48.51752" lon="-2.6437">
        <ele>51.8</ele>
        <time>2016-07-07T11:55:53Z</time>
      </trkpt>
      <trkpt lat="48.51748" lon="-2.64383">
        <ele>52</ele>
        <time>2016-07-07T11:56:01Z</time>
      </trkpt>
      <trkpt lat="48.51742" lon="-2.64394">
        <ele>53.7</ele>
        <time>2016-07-07T11:56:09Z</time>
      </trkpt>
      <trkpt lat="48.51735" lon="-2.64404">
        <ele>54.1</ele>
        <time>2016-07-07T11:56:15Z</time>
      </trkpt>
      <trkpt lat="48.51729" lon="-2.64416">
        <ele>54.5</ele>
        <time>2016-07-07T11:56:23Z</time>
      </trkpt>
      <trkpt lat="48.51725" lon="-2.6443">
        <ele>55.5</ele>
        <time>2016-07-07T11:56:40Z</time>
      </trkpt>
      <trkpt lat="48.51717" lon="-2.64442">
        <ele>56.2</ele>
        <time>2016-07-07T11:56:47Z</time>
      </trkpt>
      <trkpt lat="48.51711" lon="-2.64454">
        <ele>58</ele>
        <time>2016-07-07T11:57:20Z</time>
      </trkpt>
      <trkpt lat="48.51706" lon="-2.64467">
        <ele>57</ele>
        <time>2016-07-07T11:57:27Z</time>
      </trkpt>
      <trkpt lat="48.51701" lon="-2.64479">
        <ele>56.7</ele>
        <time>2016-07-07T11:57:35Z</time>
      </trkpt>
      <trkpt lat="48.51696" lon="-2.64491">
        <ele>57.4</ele>
        <time>2016-07-07T11:57:43Z</time>
      </trkpt>
      <trkpt lat="48.51691" lon="-2.64505">
        <ele>56.7</ele>
        <time>2016-07-07T11:57:52Z</time>
      </trkpt>
      <trkpt lat="48.51686" lon="-2.64517">
        <ele>56.9</ele>
        <time>2016-07-07T11:57:59Z</time>
      </trkpt>
      <trkpt lat="48.5168" lon="-2.64529">
        <ele>57</ele>
        <time>2016-07-07T11:58:06Z</time>
      </trkpt>
      <trkpt lat="48.51677" lon="-2.64543">
        <ele>57.3</ele>
        <time>2016-07-07T11:58:13Z</time>
      </trkpt>
      <trkpt lat="48.51672" lon="-2.64557">
        <ele>59.4</ele>
        <time>2016-07-07T11:58:21Z</time>
      </trkpt>
      <trkpt lat="48.51668" lon="-2.6457">
        <ele>60.4</ele>
        <time>2016-07-07T11:58:29Z</time>
      </trkpt>
      <trkpt lat="48.51663" lon="-2.64583">
        <ele>59.5</ele>
        <time>2016-07-07T11:58:38Z</time>
      </trkpt>
      <trkpt lat="48.51659" lon="-2.64596">
        <ele>59.7</ele>
        <time>2016-07-07T11:58:46Z</time>
      </trkpt>
      <trkpt lat="48.51657" lon="-2.64611">
        <ele>60.4</ele>
        <time>2016-07-07T11:58:54Z</time>
      </trkpt>
      <trkpt lat="48.51653" lon="-2.64624">
        <ele>59.4</ele>
        <time>2016-07-07T11:59:01Z</time>
      </trkpt>
      <trkpt lat="48.5165" lon="-2.64637">
        <ele>58.8</ele>
        <time>2016-07-07T11:59:08Z</time>
      </trkpt>
      <trkpt lat="48.51645" lon="-2.6465">
        <ele>59.2</ele>
        <time>2016-07-07T11:59:16Z</time>
      </trkpt>
      <trkpt lat="48.51641" lon="-2.64665">
        <ele>57.9</ele>
        <time>2016-07-07T11:59:26Z</time>
      </trkpt>
      <trkpt lat="48.51637" lon="-2.64677">
        <ele>57.1</ele>
        <time>2016-07-07T11:59:33Z</time>
      </trkpt>
      <trkpt lat="48.51633" lon="-2.6469">
        <ele>56.6</ele>
        <time>2016-07-07T11:59:41Z</time>
      </trkpt>
      <trkpt lat="48.51628" lon="-2.64703">
        <ele>54.8</ele>
        <time>2016-07-07T11:59:48Z</time>
      </trkpt>
      <trkpt lat="48.51623" lon="-2.64716">
        <ele>54.1</ele>
        <time>2016-07-07T11:59:55Z</time>
      </trkpt>
      <trkpt lat="48.51618" lon="-2.64729">
        <ele>53.9</ele>
        <time>2016-07-07T12:00:01Z</time>
      </trkpt>
      <trkpt lat="48.51615" lon="-2.64743">
        <ele>53.7</ele>
        <time>2016-07-07T12:00:09Z</time>
      </trkpt>
      <trkpt lat="48.51613" lon="-2.64757">
        <ele>52.1</ele>
        <time>2016-07-07T12:00:19Z</time>
      </trkpt>
      <trkpt lat="48.51609" lon="-2.64769">
        <ele>51.7</ele>
        <time>2016-07-07T12:00:25Z</time>
      </trkpt>
      <trkpt lat="48.51608" lon="-2.64784">
        <ele>51.4</ele>
        <time>2016-07-07T12:00:34Z</time>
      </trkpt>
      <trkpt lat="48.51605" lon="-2.64797">
        <ele>51.2</ele>
        <time>2016-07-07T12:00:50Z</time>
      </trkpt>
      <trkpt lat="48.51604" lon="-2.64811">
        <ele>50.6</ele>
        <time>2016-07-07T12:01:10Z</time>
      </trkpt>
      <trkpt lat="48.51601" lon="-2.64825">
        <ele>49.6</ele>
        <time>2016-07-07T12:01:17Z</time>
      </trkpt>
      <trkpt lat="48.51599" lon="-2.6484">
        <ele>48.2</ele>
        <time>2016-07-07T12:01:23Z</time>
      </trkpt>
      <trkpt lat="48.51602" lon="-2.64854">
        <ele>47.8</ele>
        <time>2016-07-07T12:01:32Z</time>
      </trkpt>
      <trkpt lat="48.51604" lon="-2.64869">
        <ele>47.3</ele>
        <time>2016-07-07T12:01:40Z</time>
      </trkpt>
      <trkpt lat="48.51607" lon="-2.64884">
        <ele>46.6</ele>
        <time>2016-07-07T12:01:48Z</time>
      </trkpt>
      <trkpt lat="48.51605" lon="-2.64898">
        <ele>46.6</ele>
        <time>2016-07-07T12:01:53Z</time>
      </trkpt>
      <trkpt lat="48.51607" lon="-2.64912">
        <ele>45.9</ele>
        <time>2016-07-07T12:02:02Z</time>
      </trkpt>
      <trkpt lat="48.51608" lon="-2.64926">
        <ele>45</ele>
        <time>2016-07-07T12:02:09Z</time>
      </trkpt>
      <trkpt lat="48.5161" lon="-2.64941">
        <ele>44.6</ele>
        <time>2016-07-07T12:02:17Z</time>
      </trkpt>
      <trkpt lat="48.51612" lon="-2.64956">
        <ele>44.4</ele>
        <time>2016-07-07T12:02:25Z</time>
      </trkpt>
      <trkpt lat="48.51614" lon="-2.6497">
        <ele>43.8</ele>
        <time>2016-07-07T12:02:32Z</time>
      </trkpt>
      <trkpt lat="48.51616" lon="-2.64984">
        <ele>42.4</ele>
        <time>2016-07-07T12:02:41Z</time>
      </trkpt>
      <trkpt lat="48.51615" lon="-2.64999">
        <ele>41.9</ele>
        <time>2016-07-07T12:02:47Z</time>
      </trkpt>
      <trkpt lat="48.5162" lon="-2.65011">
        <ele>41.5</ele>
        <time>2016-07-07T12:02:56Z</time>
      </trkpt>
      <trkpt lat="48.51618" lon="-2.65027">
        <ele>41.4</ele>
        <time>2016-07-07T12:03:02Z</time>
      </trkpt>
      <trkpt lat="48.51618" lon="-2.65041">
        <ele>41.5</ele>
        <time>2016-07-07T12:03:08Z</time>
      </trkpt>
      <trkpt lat="48.51619" lon="-2.65056">
        <ele>41</ele>
        <time>2016-07-07T12:03:16Z</time>
      </trkpt>
      <trkpt lat="48.51622" lon="-2.6507">
        <ele>40.7</ele>
        <time>2016-07-07T12:03:25Z</time>
      </trkpt>
      <trkpt lat="48.51623" lon="-2.65085">
        <ele>41.1</ele>
        <time>2016-07-07T12:03:33Z</time>
      </trkpt>
      <trkpt lat="48.51624" lon="-2.65098">
        <ele>40.3</ele>
        <time>2016-07-07T12:03:41Z</time>
      </trkpt>
      <trkpt lat="48.51625" lon="-2.65114">
        <ele>40.6</ele>
        <time>2016-07-07T12:03:46Z</time>
      </trkpt>
      <trkpt lat="48.51628" lon="-2.65127">
        <ele>40.6</ele>
        <time>2016-07-07T12:03:54Z</time>
      </trkpt>
      <trkpt lat="48.51629" lon="-2.65141">
        <ele>40.3</ele>
        <time>2016-07-07T12:04:02Z</time>
      </trkpt>
      <trkpt lat="48.5163" lon="-2.65156">
        <ele>39.6</ele>
        <time>2016-07-07T12:04:10Z</time>
      </trkpt>
      <trkpt lat="48.51629" lon="-2.65169">
        <ele>39.6</ele>
        <time>2016-07-07T12:04:15Z</time>
      </trkpt>
      <trkpt lat="48.5163" lon="-2.65183">
        <ele>39.5</ele>
        <time>2016-07-07T12:04:24Z</time>
      </trkpt>
      <trkpt lat="48.5163" lon="-2.65197">
        <ele>39.2</ele>
        <time>2016-07-07T12:04:32Z</time>
      </trkpt>
      <trkpt lat="48.51629" lon="-2.65211">
        <ele>39</ele>
        <time>2016-07-07T12:04:39Z</time>
      </trkpt>
      <trkpt lat="48.51629" lon="-2.65225">
        <ele>38.9</ele>
        <time>2016-07-07T12:04:46Z</time>
      </trkpt>
      <trkpt lat="48.51628" lon="-2.65239">
        <ele>38.4</ele>
        <time>2016-07-07T12:04:53Z</time>
      </trkpt>
      <trkpt lat="48.51628" lon="-2.65254">
        <ele>39.7</ele>
        <time>2016-07-07T12:05:01Z</time>
      </trkpt>
      <trkpt lat="48.51627" lon="-2.65268">
        <ele>38.9</ele>
        <time>2016-07-07T12:05:08Z</time>
      </trkpt>
      <trkpt lat="48.51626" lon="-2.65282">
        <ele>39.3</ele>
        <time>2016-07-07T12:05:15Z</time>
      </trkpt>
      <trkpt lat="48.51624" lon="-2.65297">
        <ele>38.6</ele>
        <time>2016-07-07T12:05:22Z</time>
      </trkpt>
      <trkpt lat="48.51623" lon="-2.65312">
        <ele>38.1</ele>
        <time>2016-07-07T12:05:29Z</time>
      </trkpt>
      <trkpt lat="48.51621" lon="-2.65325">
        <ele>38.5</ele>
        <time>2016-07-07T12:05:34Z</time>
      </trkpt>
      <trkpt lat="48.5162" lon="-2.65342">
        <ele>38.5</ele>
        <time>2016-07-07T12:05:44Z</time>
      </trkpt>
      <trkpt lat="48.5162" lon="-2.65355">
        <ele>38.9</ele>
        <time>2016-07-07T12:06:11Z</time>
      </trkpt>
      <trkpt lat="48.51618" lon="-2.6537">
        <ele>38.7</ele>
        <time>2016-07-07T12:06:19Z</time>
      </trkpt>
      <trkpt lat="48.51616" lon="-2.65384">
        <ele>38.6</ele>
        <time>2016-07-07T12:06:25Z</time>
      </trkpt>
      <trkpt lat="48.51617" lon="-2.65398">
        <ele>38.1</ele>
        <time>2016-07-07T12:06:32Z</time>
      </trkpt>
      <trkpt lat="48.51615" lon="-2.65412">
        <ele>38.1</ele>
        <time>2016-07-07T12:06:38Z</time>
      </trkpt>
      <trkpt lat="48.51616" lon="-2.65427">
        <ele>41.4</ele>
        <time>2016-07-07T12:06:46Z</time>
      </trkpt>
      <trkpt lat="48.51614" lon="-2.65441">
        <ele>41.7</ele>
        <time>2016-07-07T12:06:55Z</time>
      </trkpt>
      <trkpt lat="48.51611" lon="-2.65455">
        <ele>39.4</ele>
        <time>2016-07-07T12:07:01Z</time>
      </trkpt>
      <trkpt lat="48.51608" lon="-2.6547">
        <ele>38</ele>
        <time>2016-07-07T12:07:09Z</time>
      </trkpt>
      <trkpt lat="48.51606" lon="-2.65483">
        <ele>37.5</ele>
        <time>2016-07-07T12:07:15Z</time>
      </trkpt>
      <trkpt lat="48.51605" lon="-2.65497">
        <ele>37.3</ele>
        <time>2016-07-07T12:07:23Z</time>
      </trkpt>
      <trkpt lat="48.51601" lon="-2.6551">
        <ele>37.8</ele>
        <time>2016-07-07T12:07:31Z</time>
      </trkpt>
      <trkpt lat="48.51599" lon="-2.65524">
        <ele>37.7</ele>
        <time>2016-07-07T12:07:41Z</time>
      </trkpt>
      <trkpt lat="48.51595" lon="-2.65538">
        <ele>37.7</ele>
        <time>2016-07-07T12:07:48Z</time>
      </trkpt>
      <trkpt lat="48.51594" lon="-2.65552">
        <ele>36.9</ele>
        <time>2016-07-07T12:07:55Z</time>
      </trkpt>
      <trkpt lat="48.51589" lon="-2.65565">
        <ele>37.4</ele>
        <time>2016-07-07T12:08:03Z</time>
      </trkpt>
      <trkpt lat="48.51588" lon="-2.65579">
        <ele>37</ele>
        <time>2016-07-07T12:08:11Z</time>
      </trkpt>
      <trkpt lat="48.51584" lon="-2.65593">
        <ele>37.1</ele>
        <time>2016-07-07T12:08:35Z</time>
      </trkpt>
      <trkpt lat="48.51579" lon="-2.65607">
        <ele>36.7</ele>
        <time>2016-07-07T12:08:41Z</time>
      </trkpt>
      <trkpt lat="48.51573" lon="-2.65619">
        <ele>37.1</ele>
        <time>2016-07-07T12:08:50Z</time>
      </trkpt>
      <trkpt lat="48.51567" lon="-2.65632">
        <ele>37</ele>
        <time>2016-07-07T12:08:56Z</time>
      </trkpt>
      <trkpt lat="48.51563" lon="-2.65645">
        <ele>37.2</ele>
        <time>2016-07-07T12:09:02Z</time>
      </trkpt>
      <trkpt lat="48.51562" lon="-2.65661">
        <ele>36.5</ele>
        <time>2016-07-07T12:09:10Z</time>
      </trkpt>
      <trkpt lat="48.51564" lon="-2.65674">
        <ele>37.1</ele>
        <time>2016-07-07T12:09:18Z</time>
      </trkpt>
      <trkpt lat="48.51561" lon="-2.65688">
        <ele>35.6</ele>
        <time>2016-07-07T12:09:25Z</time>
      </trkpt>
      <trkpt lat="48.51559" lon="-2.65702">
        <ele>32.4</ele>
        <time>2016-07-07T12:09:31Z</time>
      </trkpt>
      <trkpt lat="48.51558" lon="-2.65717">
        <ele>38.6</ele>
        <time>2016-07-07T12:09:50Z</time>
      </trkpt>
      <trkpt lat="48.51558" lon="-2.65732">
        <ele>37.8</ele>
        <time>2016-07-07T12:09:59Z</time>
      </trkpt>
      <trkpt lat="48.51557" lon="-2.65747">
        <ele>37.3</ele>
        <time>2016-07-07T12:10:07Z</time>
      </trkpt>
      <trkpt lat="48.51558" lon="-2.65761">
        <ele>37.9</ele>
        <time>2016-07-07T12:10:15Z</time>
      </trkpt>
      <trkpt lat="48.51558" lon="-2.65775">
        <ele>37.7</ele>
        <time>2016-07-07T12:10:22Z</time>
      </trkpt>
      <trkpt lat="48.51557" lon="-2.6579">
        <ele>38.3</ele>
        <time>2016-07-07T12:10:30Z</time>
      </trkpt>
      <trkpt lat="48.51556" lon="-2.65804">
        <ele>38.3</ele>
        <time>2016-07-07T12:10:37Z</time>
      </trkpt>
      <trkpt lat="48.51556" lon="-2.65819">
        <ele>38</ele>
        <time>2016-07-07T12:10:45Z</time>
      </trkpt>
      <trkpt lat="48.51555" lon="-2.65833">
        <ele>38</ele>
        <time>2016-07-07T12:10:53Z</time>
      </trkpt>
      <trkpt lat="48.51555" lon="-2.65848">
        <ele>38.1</ele>
        <time>2016-07-07T12:11:01Z</time>
      </trkpt>
      <trkpt lat="48.51554" lon="-2.65863">
        <ele>37.7</ele>
        <time>2016-07-07T12:11:09Z</time>
      </trkpt>
      <trkpt lat="48.51553" lon="-2.65877">
        <ele>37.2</ele>
        <time>2016-07-07T12:11:17Z</time>
      </trkpt>
      <trkpt lat="48.51553" lon="-2.65891">
        <ele>37.5</ele>
        <time>2016-07-07T12:11:25Z</time>
      </trkpt>
      <trkpt lat="48.51553" lon="-2.65905">
        <ele>38.2</ele>
        <time>2016-07-07T12:11:33Z</time>
      </trkpt>
      <trkpt lat="48.51552" lon="-2.6592">
        <ele>37.7</ele>
        <time>2016-07-07T12:11:41Z</time>
      </trkpt>
      <trkpt lat="48.51552" lon="-2.65935">
        <ele>37.1</ele>
        <time>2016-07-07T12:11:48Z</time>
      </trkpt>
      <trkpt lat="48.5155" lon="-2.65951">
        <ele>38</ele>
        <time>2016-07-07T12:11:56Z</time>
      </trkpt>
      <trkpt lat="48.51551" lon="-2.65965">
        <ele>37.8</ele>
        <time>2016-07-07T12:12:03Z</time>
      </trkpt>
      <trkpt lat="48.5155" lon="-2.6598">
        <ele>37.5</ele>
        <time>2016-07-07T12:12:11Z</time>
      </trkpt>
      <trkpt lat="48.51549" lon="-2.65994">
        <ele>37.6</ele>
        <time>2016-07-07T12:12:18Z</time>
      </trkpt>
      <trkpt lat="48.51548" lon="-2.66009">
        <ele>37.8</ele>
        <time>2016-07-07T12:12:25Z</time>
      </trkpt>
      <trkpt lat="48.51547" lon="-2.66022">
        <ele>38.4</ele>
        <time>2016-07-07T12:12:32Z</time>
      </trkpt>
      <trkpt lat="48.51545" lon="-2.66036">
        <ele>38</ele>
        <time>2016-07-07T12:12:38Z</time>
      </trkpt>
      <trkpt lat="48.51543" lon="-2.6605">
        <ele>37.6</ele>
        <time>2016-07-07T12:12:45Z</time>
      </trkpt>
      <trkpt lat="48.51541" lon="-2.66063">
        <ele>37.2</ele>
        <time>2016-07-07T12:12:53Z</time>
      </trkpt>
      <trkpt lat="48.51538" lon="-2.66077">
        <ele>37.6</ele>
        <time>2016-07-07T12:13:00Z</time>
      </trkpt>
      <trkpt lat="48.51535" lon="-2.6609">
        <ele>37.9</ele>
        <time>2016-07-07T12:13:07Z</time>
      </trkpt>
      <trkpt lat="48.51532" lon="-2.66103">
        <ele>37.6</ele>
        <time>2016-07-07T12:13:14Z</time>
      </trkpt>
      <trkpt lat="48.51529" lon="-2.66117">
        <ele>38.1</ele>
        <time>2016-07-07T12:13:21Z</time>
      </trkpt>
      <trkpt lat="48.51526" lon="-2.66132">
        <ele>37.6</ele>
        <time>2016-07-07T12:13:30Z</time>
      </trkpt>
      <trkpt lat="48.51524" lon="-2.66145">
        <ele>37.3</ele>
        <time>2016-07-07T12:13:37Z</time>
      </trkpt>
      <trkpt lat="48.51522" lon="-2.6616">
        <ele>36.9</ele>
        <time>2016-07-07T12:13:46Z</time>
      </trkpt>
      <trkpt lat="48.51519" lon="-2.66173">
        <ele>37.6</ele>
        <time>2016-07-07T12:14:46Z</time>
      </trkpt>
      <trkpt lat="48.51516" lon="-2.66188">
        <ele>36.7</ele>
        <time>2016-07-07T12:14:55Z</time>
      </trkpt>
      <trkpt lat="48.51514" lon="-2.66203">
        <ele>36.9</ele>
        <time>2016-07-07T12:15:03Z</time>
      </trkpt>
      <trkpt lat="48.51512" lon="-2.66216">
        <ele>37</ele>
        <time>2016-07-07T12:15:10Z</time>
      </trkpt>
      <trkpt lat="48.51508" lon="-2.6623">
        <ele>36.4</ele>
        <time>2016-07-07T12:15:18Z</time>
      </trkpt>
      <trkpt lat="48.51505" lon="-2.66244">
        <ele>37.4</ele>
        <time>2016-07-07T12:15:26Z</time>
      </trkpt>
      <trkpt lat="48.51502" lon="-2.66259">
        <ele>36.6</ele>
        <time>2016-07-07T12:15:33Z</time>
      </trkpt>
      <trkpt lat="48.515" lon="-2.66273">
        <ele>36.2</ele>
        <time>2016-07-07T12:15:40Z</time>
      </trkpt>
      <trkpt lat="48.51496" lon="-2.66286">
        <ele>36.5</ele>
        <time>2016-07-07T12:15:47Z</time>
      </trkpt>
      <trkpt lat="48.51491" lon="-2.66297">
        <ele>37.4</ele>
        <time>2016-07-07T12:15:54Z</time>
      </trkpt>
      <trkpt lat="48.51486" lon="-2.6631">
        <ele>37.6</ele>
        <time>2016-07-07T12:16:02Z</time>
      </trkpt>
      <trkpt lat="48.51481" lon="-2.66323">
        <ele>36.8</ele>
        <time>2016-07-07T12:16:10Z</time>
      </trkpt>
      <trkpt lat="48.51478" lon="-2.66337">
        <ele>37.1</ele>
        <time>2016-07-07T12:16:18Z</time>
      </trkpt>
      <trkpt lat="48.51473" lon="-2.66351">
        <ele>37.2</ele>
        <time>2016-07-07T12:16:26Z</time>
      </trkpt>
      <trkpt lat="48.5147" lon="-2.66366">
        <ele>37.4</ele>
        <time>2016-07-07T12:16:34Z</time>
      </trkpt>
      <trkpt lat="48.51466" lon="-2.66378">
        <ele>37</ele>
        <time>2016-07-07T12:16:41Z</time>
      </trkpt>
      <trkpt lat="48.51463" lon="-2.66392">
        <ele>37.1</ele>
        <time>2016-07-07T12:16:49Z</time>
      </trkpt>
      <trkpt lat="48.5146" lon="-2.66405">
        <ele>37.3</ele>
        <time>2016-07-07T12:16:56Z</time>
      </trkpt>
      <trkpt lat="48.51457" lon="-2.66419">
        <ele>36.9</ele>
        <time>2016-07-07T12:17:05Z</time>
      </trkpt>
      <trkpt lat="48.51451" lon="-2.66432">
        <ele>37</ele>
        <time>2016-07-07T12:17:12Z</time>
      </trkpt>
      <trkpt lat="48.51447" lon="-2.66446">
        <ele>36</ele>
        <time>2016-07-07T12:17:20Z</time>
      </trkpt>
      <trkpt lat="48.51447" lon="-2.6646">
        <ele>35.7</ele>
        <time>2016-07-07T12:17:29Z</time>
      </trkpt>
      <trkpt lat="48.51446" lon="-2.66475">
        <ele>35.3</ele>
        <time>2016-07-07T12:17:38Z</time>
      </trkpt>
      <trkpt lat="48.51443" lon="-2.66489">
        <ele>35.9</ele>
        <time>2016-07-07T12:17:46Z</time>
      </trkpt>
      <trkpt lat="48.51441" lon="-2.66503">
        <ele>35.6</ele>
        <time>2016-07-07T12:17:53Z</time>
      </trkpt>
      <trkpt lat="48.51442" lon="-2.66518">
        <ele>33.8</ele>
        <time>2016-07-07T12:18:01Z</time>
      </trkpt>
      <trkpt lat="48.51442" lon="-2.66533">
        <ele>34.7</ele>
        <time>2016-07-07T12:18:09Z</time>
      </trkpt>
      <trkpt lat="48.51439" lon="-2.66548">
        <ele>33</ele>
        <time>2016-07-07T12:18:18Z</time>
      </trkpt>
      <trkpt lat="48.51436" lon="-2.66562">
        <ele>33.1</ele>
        <time>2016-07-07T12:18:23Z</time>
      </trkpt>
      <trkpt lat="48.51434" lon="-2.66576">
        <ele>34</ele>
        <time>2016-07-07T12:18:32Z</time>
      </trkpt>
      <trkpt lat="48.51428" lon="-2.66589">
        <ele>33.5</ele>
        <time>2016-07-07T12:18:39Z</time>
      </trkpt>
      <trkpt lat="48.51422" lon="-2.66601">
        <ele>33.3</ele>
        <time>2016-07-07T12:18:46Z</time>
      </trkpt>
      <trkpt lat="48.51415" lon="-2.6661">
        <ele>33.3</ele>
        <time>2016-07-07T12:18:54Z</time>
      </trkpt>
      <trkpt lat="48.51406" lon="-2.6662">
        <ele>33.2</ele>
        <time>2016-07-07T12:19:07Z</time>
      </trkpt>
      <trkpt lat="48.51398" lon="-2.66627">
        <ele>33.3</ele>
        <time>2016-07-07T12:19:15Z</time>
      </trkpt>
      <trkpt lat="48.5139" lon="-2.66636">
        <ele>34.2</ele>
        <time>2016-07-07T12:19:27Z</time>
      </trkpt>
      <trkpt lat="48.51382" lon="-2.66644">
        <ele>34.2</ele>
        <time>2016-07-07T12:19:37Z</time>
      </trkpt>
      <trkpt lat="48.51375" lon="-2.66653">
        <ele>34.4</ele>
        <time>2016-07-07T12:19:43Z</time>
      </trkpt>
      <trkpt lat="48.51368" lon="-2.66663">
        <ele>34.5</ele>
        <time>2016-07-07T12:19:51Z</time>
      </trkpt>
      <trkpt lat="48.51365" lon="-2.66677">
        <ele>33.9</ele>
        <time>2016-07-07T12:20:02Z</time>
      </trkpt>
      <trkpt lat="48.51364" lon="-2.6669">
        <ele>33.8</ele>
        <time>2016-07-07T12:20:10Z</time>
      </trkpt>
      <trkpt lat="48.51363" lon="-2.66704">
        <ele>33.7</ele>
        <time>2016-07-07T12:20:17Z</time>
      </trkpt>
      <trkpt lat="48.51364" lon="-2.66718">
        <ele>34.1</ele>
        <time>2016-07-07T12:20:25Z</time>
      </trkpt>
      <trkpt lat="48.51363" lon="-2.66733">
        <ele>33.8</ele>
        <time>2016-07-07T12:20:34Z</time>
      </trkpt>
      <trkpt lat="48.51369" lon="-2.66742">
        <ele>34</ele>
        <time>2016-07-07T12:20:54Z</time>
      </trkpt>
      <trkpt lat="48.51378" lon="-2.66742">
        <ele>34.4</ele>
        <time>2016-07-07T12:21:01Z</time>
      </trkpt>
      <trkpt lat="48.51388" lon="-2.66735">
        <ele>33.4</ele>
        <time>2016-07-07T12:21:08Z</time>
      </trkpt>
      <trkpt lat="48.51396" lon="-2.66738">
        <ele>32.6</ele>
        <time>2016-07-07T12:21:16Z</time>
      </trkpt>
      <trkpt lat="48.51404" lon="-2.66746">
        <ele>33.2</ele>
        <time>2016-07-07T12:21:24Z</time>
      </trkpt>
      <trkpt lat="48.51413" lon="-2.66748">
        <ele>33.6</ele>
        <time>2016-07-07T12:21:33Z</time>
      </trkpt>
      <trkpt lat="48.5142" lon="-2.66757">
        <ele>33.1</ele>
        <time>2016-07-07T12:21:43Z</time>
      </trkpt>
      <trkpt lat="48.51418" lon="-2.66771">
        <ele>33.4</ele>
        <time>2016-07-07T12:21:51Z</time>
      </trkpt>
      <trkpt lat="48.5142" lon="-2.66758">
        <ele>33</ele>
        <time>2016-07-07T12:22:11Z</time>
      </trkpt>
      <trkpt lat="48.51426" lon="-2.66747">
        <ele>34</ele>
        <time>2016-07-07T12:22:32Z</time>
      </trkpt>
      <trkpt lat="48.51436" lon="-2.66746">
        <ele>32.9</ele>
        <time>2016-07-07T12:22:42Z</time>
      </trkpt>
      <trkpt lat="48.51446" lon="-2.66746">
        <ele>32.6</ele>
        <time>2016-07-07T12:22:50Z</time>
      </trkpt>
      <trkpt lat="48.51456" lon="-2.66747">
        <ele>33.1</ele>
        <time>2016-07-07T12:22:57Z</time>
      </trkpt>
      <trkpt lat="48.51467" lon="-2.66748">
        <ele>32.7</ele>
        <time>2016-07-07T12:23:06Z</time>
      </trkpt>
      <trkpt lat="48.51476" lon="-2.6675">
        <ele>31.4</ele>
        <time>2016-07-07T12:23:14Z</time>
      </trkpt>
      <trkpt lat="48.51486" lon="-2.66752">
        <ele>31.4</ele>
        <time>2016-07-07T12:23:22Z</time>
      </trkpt>
      <trkpt lat="48.51495" lon="-2.66753">
        <ele>31.2</ele>
        <time>2016-07-07T12:23:29Z</time>
      </trkpt>
      <trkpt lat="48.51504" lon="-2.66754">
        <ele>30.9</ele>
        <time>2016-07-07T12:23:37Z</time>
      </trkpt>
      <trkpt lat="48.51514" lon="-2.66757">
        <ele>31.3</ele>
        <time>2016-07-07T12:23:44Z</time>
      </trkpt>
      <trkpt lat="48.51523" lon="-2.66758">
        <ele>30.5</ele>
        <time>2016-07-07T12:23:51Z</time>
      </trkpt>
      <trkpt lat="48.51533" lon="-2.66759">
        <ele>30.6</ele>
        <time>2016-07-07T12:23:59Z</time>
      </trkpt>
      <trkpt lat="48.51543" lon="-2.66757">
        <ele>30.5</ele>
        <time>2016-07-07T12:24:08Z</time>
      </trkpt>
      <trkpt lat="48.51553" lon="-2.66757">
        <ele>30</ele>
        <time>2016-07-07T12:24:15Z</time>
      </trkpt>
      <trkpt lat="48.51563" lon="-2.66754">
        <ele>29.2</ele>
        <time>2016-07-07T12:24:23Z</time>
      </trkpt>
      <trkpt lat="48.51573" lon="-2.66754">
        <ele>28.6</ele>
        <time>2016-07-07T12:24:32Z</time>
      </trkpt>
      <trkpt lat="48.51582" lon="-2.66751">
        <ele>27.7</ele>
        <time>2016-07-07T12:24:38Z</time>
      </trkpt>
      <trkpt lat="48.51591" lon="-2.66748">
        <ele>28.2</ele>
        <time>2016-07-07T12:24:46Z</time>
      </trkpt>
      <trkpt lat="48.51602" lon="-2.66746">
        <ele>28.4</ele>
        <time>2016-07-07T12:24:53Z</time>
      </trkpt>
      <trkpt lat="48.51611" lon="-2.66744">
        <ele>27.7</ele>
        <time>2016-07-07T12:25:00Z</time>
      </trkpt>
      <trkpt lat="48.51621" lon="-2.66743">
        <ele>27.3</ele>
        <time>2016-07-07T12:25:09Z</time>
      </trkpt>
      <trkpt lat="48.51631" lon="-2.66741">
        <ele>26.8</ele>
        <time>2016-07-07T12:25:16Z</time>
      </trkpt>
      <trkpt lat="48.5164" lon="-2.6674">
        <ele>26.8</ele>
        <time>2016-07-07T12:25:23Z</time>
      </trkpt>
      <trkpt lat="48.51649" lon="-2.6674">
        <ele>27.8</ele>
        <time>2016-07-07T12:25:30Z</time>
      </trkpt>
      <trkpt lat="48.51659" lon="-2.6674">
        <ele>29</ele>
        <time>2016-07-07T12:25:38Z</time>
      </trkpt>
      <trkpt lat="48.51667" lon="-2.66746">
        <ele>27.9</ele>
        <time>2016-07-07T12:25:48Z</time>
      </trkpt>
      <trkpt lat="48.51677" lon="-2.66748">
        <ele>26.6</ele>
        <time>2016-07-07T12:27:14Z</time>
      </trkpt>
      <trkpt lat="48.51687" lon="-2.66753">
        <ele>27.7</ele>
        <time>2016-07-07T12:27:23Z</time>
      </trkpt>
      <trkpt lat="48.51696" lon="-2.66756">
        <ele>27.3</ele>
        <time>2016-07-07T12:27:32Z</time>
      </trkpt>
      <trkpt lat="48.51705" lon="-2.6676">
        <ele>27.2</ele>
        <time>2016-07-07T12:27:40Z</time>
      </trkpt>
      <trkpt lat="48.51714" lon="-2.66765">
        <ele>27.7</ele>
        <time>2016-07-07T12:27:48Z</time>
      </trkpt>
      <trkpt lat="48.51722" lon="-2.66768">
        <ele>27.7</ele>
        <time>2016-07-07T12:27:55Z</time>
      </trkpt>
      <trkpt lat="48.51732" lon="-2.66773">
        <ele>26.9</ele>
        <time>2016-07-07T12:28:02Z</time>
      </trkpt>
      <trkpt lat="48.51742" lon="-2.66776">
        <ele>27.2</ele>
        <time>2016-07-07T12:28:09Z</time>
      </trkpt>
      <trkpt lat="48.51751" lon="-2.66779">
        <ele>27.1</ele>
        <time>2016-07-07T12:28:18Z</time>
      </trkpt>
      <trkpt lat="48.51761" lon="-2.66782">
        <ele>26.7</ele>
        <time>2016-07-07T12:28:27Z</time>
      </trkpt>
      <trkpt lat="48.5177" lon="-2.66786">
        <ele>27.4</ele>
        <time>2016-07-07T12:28:34Z</time>
      </trkpt>
      <trkpt lat="48.5178" lon="-2.6679">
        <ele>28.4</ele>
        <time>2016-07-07T12:28:44Z</time>
      </trkpt>
      <trkpt lat="48.51789" lon="-2.66795">
        <ele>28.1</ele>
        <time>2016-07-07T12:28:53Z</time>
      </trkpt>
      <trkpt lat="48.51798" lon="-2.66798">
        <ele>29.7</ele>
        <time>2016-07-07T12:29:00Z</time>
      </trkpt>
      <trkpt lat="48.51808" lon="-2.66805">
        <ele>29.2</ele>
        <time>2016-07-07T12:29:07Z</time>
      </trkpt>
      <trkpt lat="48.51817" lon="-2.66807">
        <ele>29.4</ele>
        <time>2016-07-07T12:29:14Z</time>
      </trkpt>
      <trkpt lat="48.51825" lon="-2.66814">
        <ele>29.4</ele>
        <time>2016-07-07T12:29:23Z</time>
      </trkpt>
      <trkpt lat="48.51834" lon="-2.66818">
        <ele>31.2</ele>
        <time>2016-07-07T12:29:31Z</time>
      </trkpt>
      <trkpt lat="48.51843" lon="-2.66823">
        <ele>30</ele>
        <time>2016-07-07T12:29:38Z</time>
      </trkpt>
      <trkpt lat="48.51853" lon="-2.66827">
        <ele>30</ele>
        <time>2016-07-07T12:29:46Z</time>
      </trkpt>
      <trkpt lat="48.51862" lon="-2.66831">
        <ele>31.2</ele>
        <time>2016-07-07T12:29:51Z</time>
      </trkpt>
      <trkpt lat="48.51871" lon="-2.66836">
        <ele>31.1</ele>
        <time>2016-07-07T12:30:00Z</time>
      </trkpt>
      <trkpt lat="48.5188" lon="-2.66843">
        <ele>31</ele>
        <time>2016-07-07T12:30:10Z</time>
      </trkpt>
      <trkpt lat="48.51888" lon="-2.6685">
        <ele>32.1</ele>
        <time>2016-07-07T12:30:18Z</time>
      </trkpt>
      <trkpt lat="48.51895" lon="-2.66859">
        <ele>32.6</ele>
        <time>2016-07-07T12:30:27Z</time>
      </trkpt>
      <trkpt lat="48.51901" lon="-2.6687">
        <ele>32.8</ele>
        <time>2016-07-07T12:30:35Z</time>
      </trkpt>
      <trkpt lat="48.51907" lon="-2.66881">
        <ele>33.9</ele>
        <time>2016-07-07T12:30:43Z</time>
      </trkpt>
      <trkpt lat="48.51912" lon="-2.66894">
        <ele>34</ele>
        <time>2016-07-07T12:31:05Z</time>
      </trkpt>
      <trkpt lat="48.51914" lon="-2.66909">
        <ele>34.9</ele>
        <time>2016-07-07T12:31:13Z</time>
      </trkpt>
      <trkpt lat="48.51909" lon="-2.66921">
        <ele>35.4</ele>
        <time>2016-07-07T12:31:21Z</time>
      </trkpt>
      <trkpt lat="48.51906" lon="-2.66933">
        <ele>34.6</ele>
        <time>2016-07-07T12:31:29Z</time>
      </trkpt>
      <trkpt lat="48.51901" lon="-2.66946">
        <ele>36</ele>
        <time>2016-07-07T12:31:37Z</time>
      </trkpt>
      <trkpt lat="48.51898" lon="-2.6696">
        <ele>35.8</ele>
        <time>2016-07-07T12:31:44Z</time>
      </trkpt>
      <trkpt lat="48.51894" lon="-2.66975">
        <ele>36.5</ele>
        <time>2016-07-07T12:31:51Z</time>
      </trkpt>
      <trkpt lat="48.51892" lon="-2.66989">
        <ele>36.8</ele>
        <time>2016-07-07T12:31:59Z</time>
      </trkpt>
      <trkpt lat="48.51891" lon="-2.67003">
        <ele>37.8</ele>
        <time>2016-07-07T12:32:08Z</time>
      </trkpt>
      <trkpt lat="48.51887" lon="-2.67016">
        <ele>38.3</ele>
        <time>2016-07-07T12:32:15Z</time>
      </trkpt>
      <trkpt lat="48.51885" lon="-2.6703">
        <ele>38.3</ele>
        <time>2016-07-07T12:32:24Z</time>
      </trkpt>
      <trkpt lat="48.51883" lon="-2.67044">
        <ele>39.3</ele>
        <time>2016-07-07T12:32:33Z</time>
      </trkpt>
      <trkpt lat="48.5188" lon="-2.67059">
        <ele>39.7</ele>
        <time>2016-07-07T12:32:42Z</time>
      </trkpt>
      <trkpt lat="48.51877" lon="-2.67073">
        <ele>39.9</ele>
        <time>2016-07-07T12:32:51Z</time>
      </trkpt>
      <trkpt lat="48.51874" lon="-2.67086">
        <ele>39.5</ele>
        <time>2016-07-07T12:33:00Z</time>
      </trkpt>
      <trkpt lat="48.5187" lon="-2.67099">
        <ele>39.8</ele>
        <time>2016-07-07T12:33:09Z</time>
      </trkpt>
      <trkpt lat="48.51866" lon="-2.67112">
        <ele>39</ele>
        <time>2016-07-07T12:33:23Z</time>
      </trkpt>
      <trkpt lat="48.51863" lon="-2.67125">
        <ele>39.5</ele>
        <time>2016-07-07T12:33:31Z</time>
      </trkpt>
      <trkpt lat="48.51862" lon="-2.67138">
        <ele>39.3</ele>
        <time>2016-07-07T12:33:39Z</time>
      </trkpt>
      <trkpt lat="48.51857" lon="-2.6715">
        <ele>38.3</ele>
        <time>2016-07-07T12:33:47Z</time>
      </trkpt>
      <trkpt lat="48.51853" lon="-2.67164">
        <ele>38.1</ele>
        <time>2016-07-07T12:33:55Z</time>
      </trkpt>
      <trkpt lat="48.5185" lon="-2.67178">
        <ele>37.1</ele>
        <time>2016-07-07T12:34:05Z</time>
      </trkpt>
      <trkpt lat="48.51846" lon="-2.67192">
        <ele>36.4</ele>
        <time>2016-07-07T12:34:13Z</time>
      </trkpt>
      <trkpt lat="48.51841" lon="-2.67205">
        <ele>36.1</ele>
        <time>2016-07-07T12:34:21Z</time>
      </trkpt>
      <trkpt lat="48.51836" lon="-2.67217">
        <ele>34.1</ele>
        <time>2016-07-07T12:34:28Z</time>
      </trkpt>
      <trkpt lat="48.51831" lon="-2.6723">
        <ele>33.8</ele>
        <time>2016-07-07T12:34:37Z</time>
      </trkpt>
      <trkpt lat="48.51826" lon="-2.67243">
        <ele>33.9</ele>
        <time>2016-07-07T12:34:45Z</time>
      </trkpt>
      <trkpt lat="48.5182" lon="-2.67255">
        <ele>33</ele>
        <time>2016-07-07T12:34:52Z</time>
      </trkpt>
      <trkpt lat="48.51814" lon="-2.67267">
        <ele>32.4</ele>
        <time>2016-07-07T12:34:59Z</time>
      </trkpt>
      <trkpt lat="48.51809" lon="-2.67279">
        <ele>31.4</ele>
        <time>2016-07-07T12:35:06Z</time>
      </trkpt>
      <trkpt lat="48.51804" lon="-2.67291">
        <ele>31.7</ele>
        <time>2016-07-07T12:35:13Z</time>
      </trkpt>
      <trkpt lat="48.51798" lon="-2.67302">
        <ele>32.1</ele>
        <time>2016-07-07T12:35:21Z</time>
      </trkpt>
      <trkpt lat="48.51792" lon="-2.67315">
        <ele>30.3</ele>
        <time>2016-07-07T12:35:29Z</time>
      </trkpt>
      <trkpt lat="48.51787" lon="-2.67328">
        <ele>30.9</ele>
        <time>2016-07-07T12:35:38Z</time>
      </trkpt>
      <trkpt lat="48.51782" lon="-2.6734">
        <ele>30.2</ele>
        <time>2016-07-07T12:35:45Z</time>
      </trkpt>
      <trkpt lat="48.51776" lon="-2.67351">
        <ele>30.5</ele>
        <time>2016-07-07T12:35:52Z</time>
      </trkpt>
      <trkpt lat="48.51771" lon="-2.67363">
        <ele>30.5</ele>
        <time>2016-07-07T12:36:00Z</time>
      </trkpt>
      <trkpt lat="48.51765" lon="-2.67374">
        <ele>29.8</ele>
        <time>2016-07-07T12:36:09Z</time>
      </trkpt>
      <trkpt lat="48.51761" lon="-2.67389">
        <ele>29.6</ele>
        <time>2016-07-07T12:36:18Z</time>
      </trkpt>
      <trkpt lat="48.51757" lon="-2.67401">
        <ele>30.5</ele>
        <time>2016-07-07T12:36:26Z</time>
      </trkpt>
      <trkpt lat="48.51754" lon="-2.67415">
        <ele>30.6</ele>
        <time>2016-07-07T12:36:35Z</time>
      </trkpt>
      <trkpt lat="48.51751" lon="-2.6743">
        <ele>30.7</ele>
        <time>2016-07-07T12:36:45Z</time>
      </trkpt>
      <trkpt lat="48.51744" lon="-2.6744">
        <ele>30.6</ele>
        <time>2016-07-07T12:36:51Z</time>
      </trkpt>
      <trkpt lat="48.51749" lon="-2.67428">
        <ele>32.2</ele>
        <time>2016-07-07T12:40:55Z</time>
      </trkpt>
      <trkpt lat="48.51752" lon="-2.67413">
        <ele>30.8</ele>
        <time>2016-07-07T12:41:03Z</time>
      </trkpt>
      <trkpt lat="48.51755" lon="-2.674">
        <ele>30.6</ele>
        <time>2016-07-07T12:41:11Z</time>
      </trkpt>
      <trkpt lat="48.5176" lon="-2.67388">
        <ele>31.1</ele>
        <time>2016-07-07T12:41:19Z</time>
      </trkpt>
      <trkpt lat="48.51761" lon="-2.67374">
        <ele>30.8</ele>
        <time>2016-07-07T12:41:28Z</time>
      </trkpt>
      <trkpt lat="48.51759" lon="-2.67376">
        <ele>31.1</ele>
        <time>2016-07-07T12:44:36Z</time>
      </trkpt>
    </trkseg>
  </trk>
</gpx>